Date StartTime U_cm/s V_cm/s W_cm/s Ustd_cm/s Vstd_cm/s Wstd_cm/s Uvar_(cm/s)^2 Vvar_(cm/s)^2 Wvar_(cm/s)^2 KE_(m/s)^2 TurbulentKE_(m/s)^2 HorizWindSpeed_cm/s FrictionSpeec_cm/s DragCoef SpeedOfSound_m/s SonicTemperature_C Pressure_mb 
08/16/2014  00:00:00      102.340       48.140       31.733       32.049       30.255       30.274     1027.130      915.374      916.516        0.833        0.143      113.097       21.833        0.037      344.792       21.862      864.218
08/16/2014  00:01:00       71.830       32.004        9.654       44.282       35.212       22.766     1960.892     1239.853      518.288        0.500        0.186       78.637        9.558        0.015      344.861       21.979      864.219
08/16/2014  00:02:00       51.529       16.657       14.342       29.112       29.876       20.034      847.500      892.550      401.361        0.264        0.107       54.154       14.194        0.069      344.813       21.899      864.234
08/16/2014  00:03:00       56.731       43.174        5.419       25.021       16.284       27.716      626.032      265.161      768.200        0.339        0.083       71.291        9.734        0.019      344.829       21.927      864.238
08/16/2014  00:04:00       44.821       19.905        2.378       24.354       13.129        9.467      593.110      172.382       89.626        0.163        0.043       49.042       10.926        0.050      344.901       22.048      864.256
08/16/2014  00:05:00      -13.037       -5.087        0.370       23.570       13.242        7.900      555.564      175.358       62.414        0.049        0.040       13.995        8.940        0.408      344.831       21.931      864.258
08/16/2014  00:06:00      -75.967      -14.009      -11.712       16.191       18.564       12.178      262.153      344.632      148.300        0.343        0.038       77.248       10.999        0.020      344.780       21.841      864.259
08/16/2014  00:07:00      -89.802      -37.511       -5.444       28.248       21.488       16.502      797.945      461.731      272.301        0.552        0.077       97.322       13.746        0.020      344.648       21.616      864.266
08/16/2014  00:08:00       -9.653      -25.557       -6.964       18.907       18.913       10.647      357.478      357.687      113.358        0.081        0.041       27.320        4.591        0.028      344.757       21.801      864.259
08/16/2014  00:09:00      -35.233      -13.116       -3.967        9.579        7.691        9.546       91.759       59.158       91.126        0.084        0.012       37.595        3.010        0.006      344.872       21.999      864.244
08/16/2014  00:10:00      -61.712       -4.945       -2.365       23.484       15.623        9.834      551.483      244.069       96.707        0.237        0.045       61.910        9.567        0.024      344.825       21.917      864.256
08/16/2014  00:11:00      -48.342      -37.535        8.227       40.039       22.233       14.320     1603.140      494.300      205.052        0.306        0.115       61.203       16.963        0.077      344.483       21.334      864.278
08/16/2014  00:12:00       16.997       -6.601        1.221       18.199        9.488        9.337      331.197       90.028       87.172        0.042        0.025       18.234        5.965        0.107      344.617       21.565      864.302
08/16/2014  00:13:00       -5.099      -30.120       -3.911       16.925       12.751        9.624      286.439      162.583       92.620        0.074        0.027       30.548        2.630        0.007      344.777       21.837      864.318
08/16/2014  00:14:00        4.719      -30.044        1.233       12.651       15.848       12.154      160.037      251.149      147.720        0.074        0.028       30.413        8.291        0.074      344.806       21.886      864.332
08/16/2014  00:15:00       38.304       44.058       20.830       16.125       19.924       14.332      260.007      396.979      205.420        0.235        0.043       58.381        3.406        0.003      344.715       21.729      864.342
08/16/2014  00:16:00      -11.176        7.836       -4.620       31.906       20.173       12.343     1018.016      406.940      152.350        0.089        0.079       13.649        9.951        0.532      344.647       21.613      864.371
08/16/2014  00:17:00      -36.764       -9.460       -3.927       20.254       13.983        8.256      410.235      195.530       68.156        0.107        0.034       37.961        8.725        0.053      344.547       21.444      864.407
08/16/2014  00:18:00       11.306      -40.881       -2.111       14.772       25.891       10.023      218.219      670.337      100.457        0.140        0.049       42.415       12.533        0.087      344.470       21.310      864.413
08/16/2014  00:19:00        7.389      -15.700        0.690        6.229        9.081        8.713       38.798       82.462       75.912        0.025        0.010       17.352        6.036        0.121      344.689       21.684      864.405
08/16/2014  00:20:00        5.770      -13.611        4.853       11.200        7.133        5.339      125.441       50.879       28.500        0.022        0.010       14.783        5.254        0.126      344.862       21.980      864.411
08/16/2014  00:21:00        2.490      -20.386        2.433        7.366       13.350        7.356       54.256      178.222       54.116        0.036        0.014       20.537        5.280        0.066      344.850       21.962      864.419
08/16/2014  00:22:00        0.880      -29.159       -2.570       17.544       13.487        7.136      307.809      181.908       50.919        0.070        0.027       29.172        7.853        0.072      344.732       21.758      864.424
08/16/2014  00:23:00      -43.923        7.618       -6.873        8.567       11.414        6.411       73.398      130.268       41.103        0.114        0.012       44.579        4.566        0.010      344.560       21.466      864.423
08/16/2014  00:24:00      -67.769       17.952       -6.300       10.678       10.168        4.433      114.024      103.397       19.653        0.260        0.012       70.107        4.485        0.004      344.531       21.417      864.426
08/16/2014  00:25:00      -61.191       -3.032       -8.308        8.266        6.255        4.684       68.320       39.124       21.944        0.198        0.006       61.266        2.224        0.001      344.704       21.711      864.430
08/16/2014  00:26:00     -113.005      -21.449       -8.537       42.021       22.700       11.645     1765.779      515.305      135.596        0.786        0.121      115.023        9.846        0.007      344.418       21.223      864.426
08/16/2014  00:27:00     -119.575      -16.206       -7.336       45.449       23.037       13.820     2065.619      530.722      191.004        0.870        0.139      120.668       17.403        0.021      344.642       21.606      864.424
08/16/2014  00:28:00      -53.418      -15.062       -0.457       39.590       34.222       14.675     1567.397     1171.177      215.348        0.302        0.148       55.501       20.362        0.135      344.659       21.636      864.419
08/16/2014  00:29:00     -127.667        1.879      -10.189       38.217       28.088       16.531     1460.551      788.928      273.287        0.946        0.126      127.681       16.937        0.018      344.366       21.133      864.439
08/16/2014  00:30:00      -71.606      -28.329       -0.866       24.500       21.965       15.158      600.245      482.443      229.772        0.362        0.066       77.006       13.568        0.031      344.272       20.973      864.448
08/16/2014  00:31:00      -98.615      -41.184       -3.848       35.737       26.973       18.982     1277.152      727.569      360.309        0.690        0.118      106.869       16.335        0.023      344.226       20.894      864.449
08/16/2014  00:32:00     -105.864       -9.864      -12.102       41.856       24.591       19.469     1751.885      604.712      379.032        0.709        0.137      106.323       19.870        0.035      344.122       20.717      864.449
08/16/2014  00:33:00     -154.829       50.518      -24.587       59.627       51.803       29.988     3555.390     2683.501      899.287        1.713        0.357      162.862       26.394        0.026      344.030       20.557      864.451
08/16/2014  00:34:00     -117.011       22.244      -23.900       28.134       60.227       22.210      791.494     3627.346      493.288        0.983        0.246      119.107       18.782        0.025      344.078       20.642      864.448
08/16/2014  00:35:00     -101.814      -27.622       -3.531       43.213       33.147       29.814     1867.321     1098.704      888.898        0.750        0.193      105.495       23.077        0.048      344.013       20.530      864.443
08/16/2014  00:36:00     -126.427       10.629      -20.526       41.343       34.166       27.066     1709.257     1167.326      732.574        1.006        0.180      126.873       17.775        0.020      343.990       20.491      864.439
08/16/2014  00:37:00      -98.224      -15.083      -11.864       28.026       36.035       21.089      785.476     1298.508      444.737        0.627        0.126       99.375       12.718        0.016      343.904       20.344      864.435
08/16/2014  00:38:00     -133.120       16.090      -17.612       58.778       45.983       28.378     3454.799     2114.470      805.294        1.233        0.319      134.089       27.329        0.042      343.933       20.392      864.432
08/16/2014  00:39:00     -143.678      129.262      -29.566       33.201       38.782       24.764     1102.332     1504.070      613.239        2.072        0.161      193.267       23.372        0.015      344.188       20.827      864.417
08/16/2014  00:40:00     -142.338       49.940      -12.112       42.277       41.771       24.860     1787.309     1744.836      618.017        1.352        0.208      150.845       21.739        0.021      344.078       20.641      864.416
08/16/2014  00:41:00     -127.907       49.798      -10.110       33.652       34.751       28.179     1132.462     1207.627      794.045        1.104        0.157      137.259       18.844        0.019      344.038       20.574      864.425
08/16/2014  00:42:00     -155.022       40.826      -11.628       39.441       36.222       27.642     1555.598     1312.054      764.084        1.473        0.182      160.308       22.473        0.020      344.047       20.588      864.423
08/16/2014  00:43:00     -121.784       13.866       -0.318       41.360       56.622       27.513     1710.645     3206.036      756.953        1.035        0.284      122.571       21.876        0.032      344.057       20.607      864.413
08/16/2014  00:44:00     -156.644       15.813      -17.660       40.695       60.213       31.342     1656.088     3625.613      982.325        1.568        0.313      157.440       22.063        0.020      344.136       20.739      864.410
08/16/2014  00:45:00     -159.724      -28.377       -7.746       67.598       54.321       37.721     4569.478     2950.775     1422.876        1.766        0.447      162.225       28.566        0.031      344.106       20.689      864.391
08/16/2014  00:46:00     -111.548      -23.551      -13.235       49.427       45.091       31.898     2442.979     2033.200     1017.452        0.933        0.275      114.007       24.448        0.046      344.173       20.803      864.385
08/16/2014  00:47:00     -158.517       30.950      -16.708       54.783       61.623       37.466     3001.211     3797.445     1403.673        1.728        0.410      161.510       28.705        0.032      343.928       20.386      864.390
08/16/2014  00:48:00     -147.430       -7.204      -12.129       52.815       52.980       33.303     2789.460     2806.926     1109.119        1.432        0.335      147.606       22.298        0.023      343.883       20.308      864.402
08/16/2014  00:49:00     -107.568      -21.574      -26.326       72.817       46.065       29.257     5302.282     2121.977      855.962        1.050        0.414      109.710       25.193        0.053      343.810       20.184      864.395
08/16/2014  00:50:00     -150.188        7.104      -20.511       67.147       41.798       44.948     4508.784     1747.103     2020.295        1.565        0.414      150.356       42.814        0.081      343.797       20.161      864.408
08/16/2014  00:51:00     -101.846      -50.090       -1.994       39.351       57.697       29.352     1548.488     3329.001      861.565        0.931        0.287      113.498       22.631        0.040      343.712       20.016      864.402
08/16/2014  00:52:00      -61.908      -23.333      -14.255       56.964       43.083       29.725     3244.916     1856.185      883.557        0.528        0.299       66.159       29.440        0.198      343.840       20.236      864.404
08/16/2014  00:53:00      -97.013      -36.448      -24.599       45.475       32.441       23.216     2068.014     1052.387      538.974        0.750        0.183      103.634        6.946        0.004      343.740       20.065      864.415
08/16/2014  00:54:00      -82.603      -38.477      -14.390       44.626       32.902       28.764     1991.487     1082.559      827.387        0.621        0.195       91.125       19.811        0.047      343.886       20.314      864.416
08/16/2014  00:55:00      -88.524      -48.448       -7.467       32.766       26.145       19.487     1073.610      683.547      379.750        0.619        0.107      100.915       12.071        0.014      343.739       20.063      864.431
08/16/2014  00:56:00     -134.670      -43.232       -9.767       43.807       41.836       23.368     1919.058     1750.228      546.050        1.216        0.211      141.439       22.012        0.024      343.566       19.768      864.443
08/16/2014  00:57:00     -142.573       -0.443      -12.557       52.281       38.760       28.539     2733.341     1502.305      814.471        1.277        0.253      142.574       26.116        0.034      343.685       19.971      864.444
08/16/2014  00:58:00      -71.372       10.576        2.122       47.312       43.191       28.075     2238.387     1865.469      788.231        0.505        0.245       72.151       29.267        0.165      343.779       20.130      864.453
08/16/2014  00:59:00      -66.281       -2.096       -6.409       25.563       23.133       15.468      653.449      535.125      239.251        0.293        0.071       66.314       11.905        0.032      343.678       19.957      864.455
08/16/2014  01:00:00     -118.613      -37.341      -12.200       37.054       26.821       15.131     1373.016      719.355      228.962        0.897        0.116      124.352       13.570        0.012      343.774       20.124      864.477
08/16/2014  01:01:00      -93.045      -23.357        2.248       36.484       30.283       27.234     1331.070      917.041      741.687        0.610        0.149       95.932       24.086        0.063      343.743       20.068      864.488
08/16/2014  01:02:00     -101.939       -4.292       -1.048       39.382       34.527       21.236     1550.941     1192.129      450.972        0.680        0.160      102.029       21.224        0.043      343.808       20.181      864.490
08/16/2014  01:03:00     -120.293       -4.063       -7.447       34.535       38.370       21.168     1192.661     1472.228      448.082        0.883        0.156      120.361       18.249        0.023      343.798       20.162      864.511
08/16/2014  01:04:00     -124.814        8.525       -4.976       36.472       37.092       22.059     1330.181     1375.818      486.591        0.943        0.160      125.105       19.962        0.025      343.840       20.235      864.513
08/16/2014  01:05:00     -120.868       19.586      -11.854       51.549       30.296       21.965     2657.264      917.852      482.462        0.959        0.203      122.445       25.151        0.042      343.934       20.395      864.513
08/16/2014  01:06:00      -64.933       23.924       -1.453       42.175       31.636       16.810     1778.720     1000.835      282.560        0.393        0.153       69.201       17.147        0.061      343.820       20.201      864.519
08/16/2014  01:07:00     -122.340       -2.576      -18.544       36.371       42.506       21.285     1322.851     1806.779      453.060        0.945        0.179      122.367       18.035        0.022      343.990       20.491      864.516
08/16/2014  01:08:00     -116.215      -53.602      -17.212       20.767       24.748       17.894      431.259      612.475      320.212        0.902        0.068      127.981        8.061        0.004      343.839       20.233      864.515
08/16/2014  01:09:00     -132.650      -25.569       -6.247       33.989       26.656       19.719     1155.220      710.545      388.849        1.027        0.113      135.092       17.755        0.017      343.804       20.174      864.534
08/16/2014  01:10:00     -121.244      -30.575       -4.553       41.917       37.299       22.090     1757.015     1391.213      487.955        0.965        0.182      125.040       19.802        0.025      343.685       19.970      864.536
08/16/2014  01:11:00     -126.921       -8.170       -8.004       62.967       35.207       25.193     3964.901     1239.556      634.685        1.104        0.292      127.184       29.205        0.053      343.628       19.873      864.535
08/16/2014  01:12:00     -122.250      -29.706       -1.002       43.465       33.091       21.668     1889.183     1095.046      469.515        0.964        0.173      125.808       21.646        0.030      343.754       20.088      864.536
08/16/2014  01:13:00     -145.612      -51.795       -3.427       47.967       33.111       25.400     2300.788     1096.371      645.138        1.397        0.202      154.549       24.263        0.025      343.932       20.391      864.527
08/16/2014  01:14:00     -156.175      -42.052        4.508       64.019       56.951       31.906     4098.377     3243.441     1017.992        1.727        0.418      161.737       31.414        0.038      344.136       20.741      864.521
08/16/2014  01:15:00     -196.485      -77.843       -4.329       80.350       59.936       35.413     6456.085     3592.337     1254.066        2.799        0.565      211.343       36.356        0.030      344.467       21.302      864.525
08/16/2014  01:16:00     -187.520      -69.780        3.747       80.009       46.017       37.229     6401.407     2117.537     1386.028        2.497        0.495      200.083       39.701        0.039      344.378       21.152      864.512
08/16/2014  01:17:00     -191.622      -78.184       -0.214       53.747       36.242       34.231     2888.789     1313.449     1171.742        2.410        0.269      206.958       30.254        0.021      344.503       21.366      864.511
08/16/2014  01:18:00     -143.624     -119.794       -0.534       63.707       53.014       25.190     4058.535     2810.506      634.561        2.124        0.375      187.025       26.489        0.020      344.463       21.297      864.512
08/16/2014  01:19:00     -205.958     -149.666       -4.988       73.410       63.155       44.302     5388.958     3988.509     1962.661        3.809        0.567      254.595       43.204        0.029      344.584       21.502      864.500
08/16/2014  01:20:00     -124.470      -91.772        8.213       68.555       59.767       38.841     4699.811     3572.052     1508.649        1.688        0.489      154.644       26.254        0.029      344.524       21.403      864.499
08/16/2014  01:21:00     -126.693      -73.468       -5.452       44.921       52.612       28.692     2017.869     2768.053      823.229        1.354        0.280      146.454       27.849        0.036      344.487       21.341      864.507
08/16/2014  01:22:00     -104.120      -48.104       10.291       74.351       55.333       31.928     5528.106     3061.686     1019.408        1.143        0.480      114.696       34.722        0.092      344.362       21.127      864.509
08/16/2014  01:23:00      -81.157      -43.246        6.280       66.307       42.829       23.191     4396.618     1834.326      537.840        0.763        0.338       91.960       27.721        0.091      344.272       20.973      864.521
08/16/2014  01:24:00      -82.636       17.368      -12.950       47.477       30.481       23.255     2254.040      929.118      540.816        0.551        0.186       84.442       26.943        0.102      344.001       20.509      864.550
08/16/2014  01:25:00     -131.070       -8.307      -15.503       52.429       65.302       22.731     2748.768     4264.387      516.710        1.251        0.376      131.333       19.282        0.022      343.842       20.239      864.574
08/16/2014  01:26:00     -159.715      -66.394      -13.763       71.412       52.381       30.446     5099.674     2743.736      926.969        1.944        0.439      172.965       27.131        0.025      343.672       19.947      864.590
08/16/2014  01:27:00     -203.726       -4.704      -11.245       57.176       49.222       34.338     3269.115     2422.840     1179.095        2.426        0.344      203.780       35.311        0.030      343.651       19.911      864.609
08/16/2014  01:28:00     -150.286      -37.834       -3.388       79.174       38.538       24.150     6268.527     1485.187      583.199        1.618        0.417      154.975       31.629        0.042      343.687       19.971      864.627
08/16/2014  01:29:00      -99.795      -44.901       -2.407       45.314       42.722       22.358     2053.338     1825.179      499.902        0.818        0.219      109.431       20.579        0.035      343.654       19.918      864.620
08/16/2014  01:30:00     -118.407       29.750       -3.852       29.710       31.051       18.791      882.676      964.169      353.090        0.856        0.110      122.087       15.307        0.016      343.673       19.948      864.621
08/16/2014  01:31:00      -79.135       -6.589      -10.934       25.124       34.506       19.516      631.191     1190.633      380.875        0.431        0.110       79.408       17.495        0.049      343.681       19.962      864.624
08/16/2014  01:32:00     -110.752       16.899      -12.900       27.088       44.793       16.723      733.751     2006.402      279.665        0.787        0.151      112.034       14.723        0.017      343.674       19.951      864.645
08/16/2014  01:33:00      -80.404      -26.329       -6.769       27.896       36.209       18.225      778.189     1311.070      332.143        0.481        0.121       84.605       10.264        0.015      343.590       19.809      864.654
08/16/2014  01:34:00     -119.597        8.314      -16.980       46.913       30.864       19.582     2200.842      952.556      383.450        0.910        0.177      119.885       17.563        0.021      343.620       19.858      864.663
08/16/2014  01:35:00     -157.788      -51.117      -20.347       55.743       48.002       31.271     3107.336     2304.212      977.902        1.716        0.319      165.862       27.310        0.027      343.550       19.738      864.671
08/16/2014  01:36:00     -199.000        4.606      -26.183       33.645       48.512       23.412     1132.012     2353.367      548.129        2.217        0.202      199.054       18.591        0.009      343.453       19.572      864.676
08/16/2014  01:37:00     -139.369       -8.489       -8.211       45.275       70.717       28.947     2049.784     5000.833      837.914        1.372        0.394      139.628       22.902        0.027      343.498       19.651      864.677
08/16/2014  01:38:00     -168.514      -12.897      -20.242       52.975       46.096       32.865     2806.301     2124.871     1080.096        1.749        0.301      169.007       26.489        0.025      343.482       19.623      864.684
08/16/2014  01:39:00     -173.855       31.911      -11.341       45.828       64.461       28.638     2100.198     4155.256      820.122        1.922        0.354      176.759       16.325        0.009      343.447       19.564      864.679
08/16/2014  01:40:00     -178.958      -13.175      -22.322       45.285       42.946       29.296     2050.732     1844.385      858.278        1.872        0.238      179.442       24.937        0.019      343.448       19.565      864.678
08/16/2014  01:41:00     -141.595      -35.304       -0.295       63.018       55.528       36.989     3971.267     3083.378     1368.170        1.486        0.421      145.930       35.321        0.059      343.373       19.438      864.673
08/16/2014  01:42:00     -176.632        6.514      -18.697       53.729       52.609       34.600     2886.828     2767.662     1197.156        1.922        0.343      176.752       21.161        0.014      343.347       19.392      864.674
08/16/2014  01:43:00     -212.773      -39.616      -29.312       35.267       33.369       21.177     1243.780     1113.493      448.454        2.525        0.140      216.430       15.687        0.005      343.341       19.383      864.691
08/16/2014  01:44:00     -159.232      -42.193      -20.448       39.665       32.954       20.785     1573.276     1085.956      432.027        1.532        0.155      164.727       11.254        0.005      343.338       19.379      864.708
08/16/2014  01:45:00     -134.460      -39.982      -12.959       51.298       43.989       31.400     2631.451     1935.044      985.939        1.270        0.278      140.279       33.493        0.057      343.468       19.601      864.696
08/16/2014  01:46:00     -125.993      -49.272      -13.982       36.304       39.435       31.522     1317.973     1555.136      993.621        1.118        0.193      135.285       23.928        0.031      343.550       19.740      864.698
08/16/2014  01:47:00     -132.274      -31.524      -13.215       38.679       28.946       20.927     1496.048      837.858      437.926        1.072        0.139      135.979       16.862        0.015      343.594       19.816      864.701
08/16/2014  01:48:00     -120.864      -12.493      -13.421       30.205       36.816       17.735      912.327     1355.433      314.541        0.876        0.129      121.508       12.239        0.010      343.763       20.105      864.692
08/16/2014  01:49:00     -115.097       23.967       -9.890       39.338       31.097       26.484     1547.454      967.034      701.385        0.857        0.161      117.566       22.506        0.037      343.878       20.301      864.683
08/16/2014  01:50:00     -149.027       43.670      -19.665       26.887       33.315       23.032      722.934     1109.922      530.486        1.343        0.118      155.294       15.265        0.010      343.818       20.197      864.688
08/16/2014  01:51:00     -149.405       34.909      -20.633       35.613       37.325       21.395     1268.307     1393.130      457.733        1.354        0.156      153.429        6.993        0.002      343.901       20.339      864.675
08/16/2014  01:52:00     -168.541       36.515      -13.040       29.303       30.444       16.787      858.655      926.840      281.798        1.599        0.103      172.452       10.344        0.004      344.024       20.549      864.665
08/16/2014  01:53:00     -149.325       51.373      -18.027       54.609       24.801       20.357     2982.134      615.086      414.416        1.464        0.201      157.915       16.300        0.011      343.881       20.304      864.670
08/16/2014  01:54:00     -144.783       39.130       -9.699       42.624       26.222       19.610     1816.784      687.585      384.558        1.274        0.144      149.977       19.258        0.016      343.915       20.363      864.663
08/16/2014  01:55:00     -161.244      -29.145      -23.937       29.087       51.444       19.401      846.035     2646.497      376.388        1.564        0.193      163.856        4.284        0.001      343.837       20.230      864.661
08/16/2014  01:56:00     -144.522      -35.139       -6.582       60.002       41.541       23.783     3600.222     1725.683      565.614        1.403        0.295      148.732       25.161        0.029      343.552       19.742      864.671
08/16/2014  01:57:00     -121.432        3.173      -10.667       43.383       32.413       22.999     1882.105     1050.619      528.953        0.916        0.173      121.473       24.121        0.039      343.535       19.714      864.683
08/16/2014  01:58:00      -82.116      -12.231       -4.576       32.930       35.296       15.554     1084.411     1245.773      241.932        0.474        0.129       83.022       15.696        0.036      343.557       19.751      864.675
08/16/2014  01:59:00      -44.359      -17.865        1.523       29.305       29.422       17.021      858.758      865.674      289.699        0.215        0.101       47.821       10.958        0.053      343.429       19.536      864.677
08/16/2014  02:00:00      -67.303       30.982       -3.592       40.241       19.832       17.775     1619.357      393.314      315.966        0.392        0.116       74.092       10.114        0.019      343.475       19.612      864.685
08/16/2014  02:01:00      -90.255      -23.173       -1.366       46.522       34.127       16.092     2164.291     1164.679      258.962        0.614        0.179       93.183        9.656        0.011      343.529       19.705      864.680
08/16/2014  02:02:00     -105.881      -40.095       -6.591       24.628       42.444       12.059      606.533     1801.486      145.422        0.771        0.128      113.218        8.378        0.005      343.398       19.482      864.685
08/16/2014  02:03:00     -111.399        0.095      -12.374       30.044       18.928       12.746      902.612      358.282      162.465        0.699        0.071      111.399       11.993        0.012      343.381       19.453      864.681
08/16/2014  02:04:00      -91.916       22.506      -13.095       33.953       17.431       15.236     1152.828      303.823      232.127        0.541        0.084       94.631       13.357        0.020      343.395       19.475      864.685
08/16/2014  02:05:00      -80.432       -8.928       -7.184       45.856       32.839       18.559     2102.801     1078.402      344.431        0.506        0.176       80.926       17.493        0.047      343.422       19.522      864.695
08/16/2014  02:06:00     -112.157      -66.025       -2.861       67.533       44.486       21.122     4560.679     1979.036      446.119        1.196        0.349      130.148       22.077        0.029      343.280       19.280      864.695
08/16/2014  02:07:00     -108.614      -84.222      -11.578       40.590       35.674       25.693     1647.524     1272.660      660.133        1.130        0.179      137.442       17.779        0.017      343.279       19.279      864.700
08/16/2014  02:08:00      -51.141      -29.753        6.179       53.638       39.952       26.181     2877.062     1596.181      685.452        0.435        0.258       59.166       30.034        0.258      343.402       19.487      864.704
08/16/2014  02:09:00     -124.379      -35.654       -8.272       43.587       45.798       21.774     1899.826     2097.488      474.111        1.064        0.224      129.388       20.247        0.024      343.284       19.286      864.698
08/16/2014  02:10:00      -68.292      -57.531        2.179       41.803       25.041       22.645     1747.514      627.042      512.790        0.543        0.144       89.295       16.384        0.034      343.332       19.370      864.689
08/16/2014  02:11:00      -75.469      -76.658        3.372       41.258       45.882       23.734     1702.254     2105.151      563.307        0.798        0.219      107.573       26.457        0.060      343.460       19.588      864.679
08/16/2014  02:12:00      -90.211      -83.897       -0.789       40.681       32.157       24.414     1654.907     1034.079      596.049        0.923        0.164      123.194       21.030        0.029      343.442       19.556      864.679
08/16/2014  02:13:00      -97.841      -59.856        1.325       32.450       30.304       19.733     1052.979      918.337      389.402        0.776        0.118      114.698       16.324        0.020      343.431       19.538      864.678
08/16/2014  02:14:00      -80.885      -32.826        8.772       49.670       28.934       19.600     2467.062      837.162      384.161        0.569        0.184       87.292       19.172        0.048      343.347       19.394      864.682
08/16/2014  02:15:00      -68.386      -70.993        3.068       45.406       49.882       18.676     2061.666     2488.178      348.809        0.731        0.245       98.573       22.062        0.050      343.407       19.496      864.685
08/16/2014  02:16:00      -91.778      -52.329        1.542       43.790       39.482       22.216     1917.605     1558.855      493.536        0.757        0.198      105.648       20.661        0.038      343.337       19.378      864.690
08/16/2014  02:17:00      -75.515      -40.899        2.658       40.355       34.501       18.090     1628.517     1190.325      327.254        0.526        0.157       85.879       15.968        0.035      343.387       19.461      864.687
08/16/2014  02:18:00      -91.066      -37.584        0.410       43.656       40.647       22.225     1905.836     1652.143      493.932        0.688        0.203       98.517       18.777        0.036      343.342       19.385      864.691
08/16/2014  02:19:00     -107.988      -16.669      -10.909       28.261       19.966       13.312      798.696      398.628      177.214        0.672        0.069      109.267       10.555        0.009      343.186       19.120      864.711
08/16/2014  02:20:00      -62.506      -34.951        3.634       33.690       27.036       18.073     1135.015      730.969      326.650        0.367        0.110       71.614       17.426        0.059      343.073       18.927      864.721
08/16/2014  02:21:00      -63.526      -26.216        6.200       29.945       28.141       17.889      896.724      791.898      320.019        0.338        0.100       68.722       17.497        0.065      343.031       18.856      864.720
08/16/2014  02:22:00      -95.133       -1.108       -8.261       38.223       26.001       20.460     1460.997      676.072      418.618        0.584        0.128       95.139       18.898        0.039      342.890       18.616      864.722
08/16/2014  02:23:00      -97.031      -19.455        0.517       34.998       26.628       21.581     1224.835      709.036      465.730        0.610        0.120       98.962       21.491        0.047      342.902       18.637      864.732
08/16/2014  02:24:00      -91.005      -38.054       -0.760       31.529       33.679       15.573      994.102     1134.292      242.509        0.605        0.119       98.641       11.876        0.014      342.882       18.603      864.743
08/16/2014  02:25:00      -82.328      -24.291        3.629       25.349       23.739       14.044      642.557      563.522      197.243        0.439        0.070       85.837       13.556        0.025      342.849       18.546      864.760
08/16/2014  02:26:00      -88.705      -25.238       -2.856       26.795       16.399       14.243      717.956      268.935      202.873        0.485        0.059       92.225        9.604        0.011      343.060       18.906      864.764
08/16/2014  02:27:00      -50.056      -20.998        3.149       32.385       28.617       18.223     1048.763      818.957      332.075        0.258        0.110       54.282       20.813        0.147      343.053       18.893      864.765
08/16/2014  02:28:00      -56.461       -5.164       -6.211       18.973       18.391       10.592      359.987      338.239      112.196        0.203        0.041       56.697        9.279        0.027      343.079       18.938      864.771
08/16/2014  02:29:00      -75.523      -32.913       -7.102       25.045       18.370        9.225      627.276      337.439       85.102        0.394        0.052       82.383        8.025        0.009      343.061       18.908      864.774
08/16/2014  02:30:00      -42.782      -21.674        5.157       19.786       14.679       13.650      391.484      215.459      186.331        0.156        0.040       47.959       12.494        0.068      342.961       18.738      864.795
08/16/2014  02:31:00       -8.786      -31.545        0.461       24.159       17.409        9.110      583.665      303.089       82.989        0.102        0.048       32.746        6.741        0.042      343.076       18.933      864.800
08/16/2014  02:32:00       -2.266      -45.588       -9.384       17.095       24.179       10.255      292.237      584.605      105.164        0.158        0.049       45.644        9.055        0.039      343.160       19.077      864.799
08/16/2014  02:33:00       -5.272      -19.218        2.241       20.144       16.147       16.508      405.792      260.714      272.509        0.067        0.047       19.928        6.890        0.120      343.074       18.929      864.801
08/16/2014  02:34:00      -66.766      -22.260       -2.848       14.489       11.975        8.041      209.919      143.401       64.650        0.269        0.021       70.379        6.024        0.007      343.098       18.970      864.802
08/16/2014  02:35:00      -16.573       -8.314       -0.304       18.626       14.335        7.014      346.913      205.506       49.199        0.047        0.030       18.542        7.410        0.160      342.968       18.748      864.806
08/16/2014  02:36:00      -40.162      -52.787        1.319       43.826       22.314       14.384     1920.743      497.936      206.888        0.351        0.131       66.328       14.403        0.047      343.110       18.991      864.803
08/16/2014  02:37:00      -46.270      -54.391        9.642       38.284       34.508       23.429     1465.670     1190.827      548.915        0.420        0.160       71.409       20.920        0.086      343.150       19.059      864.790
08/16/2014  02:38:00      -37.910      -34.918        8.147       50.147       32.692       18.437     2514.682     1068.763      339.934        0.332        0.196       51.541       13.395        0.068      343.051       18.890      864.788
08/16/2014  02:39:00      -46.626      -50.045       11.976       59.219       32.527       19.942     3506.930     1057.980      397.670        0.489        0.248       68.399       25.992        0.144      343.066       18.915      864.787
08/16/2014  02:40:00     -102.260      -60.492       -5.083       38.027       31.568       20.354     1446.017      996.509      414.271        0.850        0.143      118.812       15.517        0.017      343.141       19.043      864.792
08/16/2014  02:41:00      -97.416      -40.647        0.405       27.452       23.319       14.998      753.616      543.777      224.946        0.633        0.076      105.556       10.325        0.010      343.077       18.934      864.791
08/16/2014  02:42:00      -55.028      -28.445        1.055       26.846       29.759       16.755      720.700      885.616      280.733        0.286        0.094       61.945       15.829        0.065      343.058       18.903      864.784
08/16/2014  02:43:00      -86.550      -22.137        1.459       40.744       26.073       19.402     1660.079      679.778      376.425        0.535        0.136       89.336       23.494        0.069      342.888       18.612      864.781
08/16/2014  02:44:00      -82.165      -13.591        3.384       51.019       27.908       20.875     2602.918      778.882      435.763        0.538        0.191       83.282       21.370        0.066      342.787       18.440      864.792
08/16/2014  02:45:00      -99.855      -33.173        8.617       51.491       27.754       21.870     2651.355      770.303      478.289        0.752        0.195      105.221       20.241        0.037      342.821       18.499      864.815
08/16/2014  02:46:00      -79.982      -42.041        8.656       47.557       36.720       23.399     2261.700     1348.352      547.531        0.620        0.208       90.358       20.463        0.051      342.880       18.599      864.827
08/16/2014  02:47:00     -123.382      -60.189       -2.686       38.903       27.758       17.322     1513.422      770.496      300.036        1.072        0.129      137.280        9.431        0.005      342.922       18.670      864.830
08/16/2014  02:48:00     -120.463      -37.533        3.666       42.057       31.677       17.092     1768.767     1003.414      292.127        0.950        0.153      126.175       16.694        0.018      342.844       18.538      864.836
08/16/2014  02:49:00     -142.405      -67.908       -1.033       45.410       29.537       18.521     2062.072      872.450      343.043        1.408        0.164      157.768       16.748        0.011      342.918       18.663      864.834
08/16/2014  02:50:00     -149.262      -61.112        3.916       36.890       33.022       21.477     1360.852     1090.429      461.269        1.447        0.146      161.288       20.666        0.016      342.967       18.748      864.836
08/16/2014  02:51:00     -167.119      -60.913        0.008       47.696       34.934       22.240     2274.938     1220.412      494.619        1.781        0.199      177.874       23.434        0.017      342.943       18.705      864.844
08/16/2014  02:52:00     -165.761      -57.184        1.093       45.359       39.336       23.955     2057.472     1547.328      573.832        1.746        0.209      175.347       21.771        0.015      342.945       18.708      864.851
08/16/2014  02:53:00     -124.090      -47.566       -1.410       42.557       36.536       23.720     1811.092     1334.897      562.653        1.069        0.185      132.894       18.992        0.020      342.905       18.642      864.850
08/16/2014  02:54:00     -143.977      -47.049       -0.505       52.458       33.159       25.918     2751.864     1099.550      671.737        1.373        0.226      151.469       14.905        0.010      342.916       18.661      864.851
08/16/2014  02:55:00      -69.520      -58.308        0.051       62.959       51.418       26.187     3963.801     2643.860      685.784        0.776        0.365       90.735       28.812        0.101      342.913       18.655      864.860
08/16/2014  02:56:00      -99.982     -103.953       -5.702       53.872       38.304       33.052     2902.221     1467.201     1092.421        1.315        0.273      144.231       30.340        0.044      342.939       18.698      864.865
08/16/2014  02:57:00     -112.254     -101.934        1.099       53.717       44.678       28.083     2885.543     1996.088      788.658        1.433        0.284      151.629       28.203        0.035      342.913       18.655      864.856
08/16/2014  02:58:00     -113.344     -104.479       -6.058       37.728       32.780       24.722     1423.424     1074.523      611.184        1.345        0.155      154.152       22.337        0.021      342.920       18.667      864.848
08/16/2014  02:59:00      -92.670      -87.301        5.684       53.452       46.798       28.664     2857.094     2190.017      821.611        1.105        0.293      127.316       29.247        0.053      342.897       18.628      864.854
08/16/2014  03:00:00     -108.727      -79.173       -0.405       51.203       42.478       26.615     2621.732     1804.410      708.346        1.161        0.257      134.499       26.482        0.039      342.848       18.546      864.872
08/16/2014  03:01:00      -93.026      -72.014       -3.305       37.582       42.062       28.543     1412.380     1769.192      814.697        0.892        0.200      117.643       27.629        0.055      342.843       18.535      864.875
08/16/2014  03:02:00      -75.950      -65.056        2.857       39.523       33.764       27.058     1562.066     1139.980      732.155        0.672        0.172      100.004       25.362        0.064      342.849       18.546      864.873
08/16/2014  03:03:00     -112.134      -62.349        6.166       37.564       29.795       23.083     1411.091      887.729      532.840        0.966        0.142      128.302       20.552        0.026      342.811       18.483      864.878
08/16/2014  03:04:00      -83.128      -61.944       -8.200       36.395       19.981       12.867     1324.632      399.249      165.566        0.635        0.094      103.669       10.458        0.010      342.815       18.491      864.894
08/16/2014  03:05:00      -82.679      -45.661      -12.252       14.547       18.179       12.313      211.619      330.461      151.615        0.488        0.035       94.450        6.322        0.004      342.817       18.491      864.905
08/16/2014  03:06:00      -45.950      -47.663       -4.406       15.858       17.000       17.254      251.488      288.993      297.687        0.262        0.042       66.205       11.458        0.030      342.864       18.573      864.913
08/16/2014  03:07:00      -62.638      -39.358       -4.100       17.776       13.089       11.991      315.984      171.333      143.791        0.306        0.032       73.977       11.223        0.023      342.799       18.461      864.913
08/16/2014  03:08:00      -68.063      -19.033       -3.759       29.638       14.814       16.540      878.389      219.451      273.586        0.319        0.069       70.674       16.601        0.055      342.637       18.186      864.928
08/16/2014  03:09:00     -108.694      -33.202       -2.444       28.937       24.378       13.735      837.366      594.276      188.655        0.727        0.081      113.651        9.969        0.008      342.610       18.142      864.930
08/16/2014  03:10:00     -104.686      -39.310       -0.359       27.627       20.292       19.070      763.264      411.758      363.650        0.702        0.077      111.823       15.723        0.020      342.559       18.054      864.927
08/16/2014  03:11:00      -25.934      -31.422        6.809       32.554       20.597       17.590     1059.754      424.227      309.418        0.175        0.090       40.742       16.022        0.155      342.567       18.067      864.919
08/16/2014  03:12:00      -43.347      -48.407        8.036       41.563       34.297       19.753     1727.478     1176.317      390.187        0.379        0.165       64.979       23.106        0.126      342.604       18.130      864.931
08/16/2014  03:13:00      -92.059      -60.469        2.308       33.075       29.978       22.061     1093.948      898.707      486.700        0.731        0.124      110.142       18.731        0.029      342.614       18.147      864.941
08/16/2014  03:14:00     -101.709      -71.625       -2.687       56.609       35.269       22.826     3204.622     1243.923      521.034        1.022        0.248      124.398       20.574        0.027      342.563       18.059      864.937
08/16/2014  03:15:00      -79.169      -39.583        1.429       42.542       34.583       18.238     1809.828     1196.006      332.632        0.559        0.167       88.513       20.697        0.055      342.569       18.070      864.936
08/16/2014  03:16:00      -77.044      -55.868        5.192       41.378       31.306       22.116     1712.178      980.086      489.096        0.613        0.159       95.168       19.146        0.040      342.542       18.024      864.944
08/16/2014  03:17:00      -56.091      -66.658        5.358       39.047       33.136       21.099     1524.689     1098.006      445.164        0.534        0.153       87.118       16.318        0.035      342.573       18.076      864.952
08/16/2014  03:18:00      -50.015      -50.326        9.333       41.456       30.745       22.460     1718.593      945.256      504.465        0.414        0.158       70.952       22.259        0.098      342.514       17.977      864.969
08/16/2014  03:19:00      -91.289      -66.289        0.756       38.333       27.211       20.645     1469.402      740.420      426.196        0.768        0.132      112.818       19.031        0.028      342.580       18.089      864.967
08/16/2014  03:20:00     -101.443      -74.251       -3.247       32.599       19.582       18.617     1062.663      383.440      346.590        0.880        0.090      125.713       18.399        0.021      342.578       18.086      864.961
08/16/2014  03:21:00     -108.282      -67.437       -5.828       24.426       22.523       16.948      596.622      507.296      287.249        0.885        0.070      127.564       11.377        0.008      342.533       18.010      864.956
08/16/2014  03:22:00      -95.318      -64.607        0.573       39.222       25.264       18.585     1538.353      638.294      345.401        0.789        0.126      115.150       19.521        0.029      342.490       17.936      864.963
08/16/2014  03:23:00      -99.528      -42.394       -0.474       32.373       25.686       15.800     1047.985      659.764      249.627        0.683        0.098      108.181       10.199        0.009      342.429       17.832      864.959
08/16/2014  03:24:00      -72.454      -40.406       -3.248       29.493       30.936       18.086      869.855      957.030      327.101        0.452        0.108       82.960       13.375        0.026      342.389       17.764      864.961
08/16/2014  03:25:00      -88.751      -20.826        1.710       25.866       19.801       15.293      669.070      392.096      233.886        0.480        0.065       91.161        9.126        0.010      342.322       17.649      864.970
08/16/2014  03:26:00     -102.684      -42.922        1.840       27.989       25.316       16.809      783.410      640.881      282.532        0.705        0.085      111.294       12.674        0.013      342.290       17.596      864.994
08/16/2014  03:27:00      -65.924      -37.269        1.976       46.018       27.984       18.463     2117.677      783.107      340.873        0.449        0.162       75.730       23.478        0.096      342.244       17.516      864.999
08/16/2014  03:28:00      -85.246      -59.549       -1.286       30.530       19.979       16.383      932.068      399.179      268.414        0.621        0.080      103.985       12.883        0.015      342.315       17.640      864.999
08/16/2014  03:29:00      -35.752      -65.362        0.569       28.827       27.013       18.776      830.999      729.725      352.532        0.373        0.096       74.501       14.694        0.039      342.429       17.832      865.002
08/16/2014  03:30:00      -48.694      -72.582        5.564       42.022       23.939       22.729     1765.878      573.069      516.618        0.526        0.143       87.403       24.317        0.077      342.408       17.797      865.001
08/16/2014  03:31:00      -45.529      -57.722        3.025       37.020       25.598       14.658     1370.446      655.234      214.860        0.383        0.112       73.517       16.050        0.048      342.429       17.833      864.999
08/16/2014  03:32:00      -90.168      -52.635        0.581       54.479       39.798       20.807     2968.010     1583.914      432.918        0.794        0.249      104.407       21.745        0.043      342.447       17.864      864.994
08/16/2014  03:33:00     -108.796     -103.540       -3.398       46.952       39.329       22.818     2204.491     1546.796      520.661        1.342        0.214      150.190       24.583        0.027      342.548       18.034      864.997
08/16/2014  03:34:00      -94.570      -52.342       -1.823       40.333       24.099       21.836     1626.730      580.771      476.799        0.718        0.134      108.088       12.509        0.013      342.338       17.678      865.010
08/16/2014  03:35:00      -81.767      -33.037       -0.275       40.909       27.106       19.822     1673.568      734.739      392.900        0.529        0.140       88.189       18.125        0.042      342.273       17.568      865.014
08/16/2014  03:36:00      -81.914      -52.249        3.319       42.403       29.137       19.018     1797.991      848.964      361.688        0.623        0.150       97.159       16.997        0.031      342.297       17.606      865.009
08/16/2014  03:37:00      -71.912      -61.667       -0.179       43.897       33.561       26.879     1926.984     1126.310      722.456        0.637        0.189       94.732       16.053        0.029      342.310       17.628      865.009
08/16/2014  03:38:00     -107.513      -61.341       -2.327       45.708       27.385       18.247     2089.179      749.938      332.960        0.925        0.159      123.781        8.405        0.005      342.285       17.586      865.014
08/16/2014  03:39:00     -104.752      -63.514       -0.563       40.824       35.317       27.591     1666.567     1247.324      761.282        0.934        0.184      122.503       27.281        0.050      342.246       17.522      865.011
08/16/2014  03:40:00     -102.433      -68.361        3.101       44.302       47.517       23.732     1962.679     2257.821      563.223        0.998        0.239      123.149       23.817        0.037      342.206       17.453      865.020
08/16/2014  03:41:00     -109.204      -75.098        3.718       39.552       58.453       24.236     1564.371     3416.791      587.365        1.157        0.278      132.534       20.326        0.024      342.183       17.413      865.031
08/16/2014  03:42:00     -129.228      -83.880       -3.881       27.025       23.218       19.593      730.350      539.071      383.875        1.270        0.083      154.065       15.547        0.010      342.243       17.518      865.065
08/16/2014  03:43:00     -102.633      -46.650      -11.441       18.363       26.355       12.784      337.184      694.585      163.424        0.702        0.060      112.738        9.860        0.008      342.172       17.395      865.074
08/16/2014  03:44:00     -110.897      -17.906       -6.645       21.868       23.793       11.599      478.225      566.092      134.528        0.692        0.059      112.333       10.364        0.009      342.125       17.314      865.082
08/16/2014  03:45:00      -93.053      -35.637       -1.790       36.212       16.182       12.574     1311.323      261.849      158.110        0.583        0.087       99.644       16.758        0.028      342.133       17.329      865.080
08/16/2014  03:46:00     -109.799      -41.784       -5.227       23.301       16.552       15.233      542.921      273.983      232.050        0.744        0.052      117.481       12.346        0.011      342.162       17.378      865.082
08/16/2014  03:47:00      -66.464      -54.244        4.840       40.101       28.560       17.914     1608.120      815.676      320.925        0.506        0.137       85.790       18.154        0.045      342.184       17.417      865.081
08/16/2014  03:48:00      -87.429      -60.384        0.830       41.734       36.333       19.074     1741.698     1320.053      363.821        0.736        0.171      106.255       20.062        0.036      342.155       17.368      865.077
08/16/2014  03:49:00      -73.803      -59.050        3.104       34.078       28.460       21.193     1161.319      809.947      449.125        0.568        0.121       94.519       20.895        0.049      342.111       17.292      865.077
08/16/2014  03:50:00     -100.457      -86.918       -2.235       23.935       25.472       15.694      572.870      648.836      246.307        0.956        0.073      132.840       15.894        0.014      342.097       17.268      865.093
08/16/2014  03:51:00      -87.315      -41.008       -3.028       20.959       16.533       16.567      439.268      273.342      274.476        0.515        0.049       96.465       11.298        0.014      342.110       17.290      865.090
08/16/2014  03:52:00      -76.581      -27.297       -0.727       33.554       14.458       16.521     1125.875      209.036      272.946        0.411        0.080       81.301       13.804        0.029      342.063       17.211      865.096
08/16/2014  03:53:00      -95.247      -36.776       -9.276       19.461       14.551       11.828      378.745      211.718      139.892        0.562        0.037      102.100        5.408        0.003      342.086       17.250      865.104
08/16/2014  03:54:00     -102.772      -28.305       -0.103       20.451       20.113       15.292      418.252      404.520      233.852        0.621        0.053      106.599       13.102        0.015      342.108       17.287      865.113
08/16/2014  03:55:00     -105.225      -22.747       -2.393       33.151       20.685       14.156     1098.993      427.849      200.380        0.666        0.086      107.656       13.596        0.016      342.064       17.210      865.118
08/16/2014  03:56:00     -124.596      -33.178       -4.460       25.739       20.514       15.675      662.513      420.809      245.718        0.899        0.066      128.937       14.690        0.013      342.007       17.114      865.120
08/16/2014  03:57:00     -105.140      -32.628       -5.632       34.733       23.107       15.845     1206.402      533.945      251.071        0.707        0.100      110.086       17.349        0.025      341.917       16.962      865.125
08/16/2014  03:58:00     -144.595      -45.805       -3.531       31.835       19.007       14.499     1013.457      361.265      210.235        1.230        0.079      151.676       14.901        0.010      342.022       17.140      865.130
08/16/2014  03:59:00     -120.487      -34.304        0.342       43.513       39.084       22.669     1893.413     1527.541      513.902        0.981        0.197      125.276       23.067        0.034      341.995       17.095      865.120
08/16/2014  04:00:00     -157.465       -4.713      -15.199       41.192       31.934       24.933     1696.757     1019.799      621.632        1.419        0.167      157.536       19.269        0.015      341.901       16.935      865.107
08/16/2014  04:01:00     -149.613        9.972       -6.709       40.462       37.960       21.982     1637.157     1440.976      483.228        1.304        0.178      149.945       19.203        0.016      341.896       16.928      865.110
08/16/2014  04:02:00     -131.598       -2.178      -14.123       43.955       33.778       22.476     1932.002     1140.970      505.186        1.055        0.179      131.617       23.052        0.031      341.856       16.859      865.122
08/16/2014  04:03:00     -102.840       -9.447       -4.873       50.218       30.768       23.522     2521.896      946.660      553.299        0.735        0.201      103.273       24.717        0.057      341.776       16.723      865.119
08/16/2014  04:04:00     -116.718       -4.150       -3.615       43.891       27.457       22.955     1926.423      753.863      526.921        0.843        0.160      116.792       26.345        0.051      341.806       16.775      865.117
08/16/2014  04:05:00     -151.888        6.892       -9.702       41.985       26.639       23.520     1762.741      709.626      553.191        1.312        0.151      152.044       25.790        0.029      341.876       16.892      865.112
08/16/2014  04:06:00     -111.099       -2.879       -7.411       41.533       37.611       24.065     1725.006     1414.612      579.141        0.806        0.186      111.136       19.300        0.030      341.834       16.821      865.119
08/16/2014  04:07:00     -132.280        9.282      -15.197       41.292       28.113       25.452     1705.055      790.327      647.826        1.048        0.157      132.606       26.247        0.039      341.870       16.883      865.116
08/16/2014  04:08:00     -135.867       13.666      -17.499       32.717       29.848       22.149     1070.394      890.885      490.581        1.070        0.123      136.552       15.020        0.012      341.951       17.019      865.115
08/16/2014  04:09:00     -167.723       18.126      -16.088       37.117       31.450       17.745     1377.666      989.132      314.886        1.570        0.134      168.699       18.834        0.012      342.020       17.139      865.112
08/16/2014  04:10:00     -121.531      -11.750      -11.396       24.639       35.217       18.628      607.081     1240.258      346.988        0.862        0.110      122.098       11.111        0.008      341.948       17.016      865.116
08/16/2014  04:11:00     -108.041       -0.548       -6.014       32.225       23.338       19.306     1038.482      544.666      372.720        0.683        0.098      108.042       17.812        0.027      342.011       17.123      865.128
08/16/2014  04:12:00     -130.880       33.260      -10.214       36.903       27.299       18.586     1361.811      745.209      345.443        1.040        0.123      135.040       15.364        0.013      342.075       17.231      865.129
08/16/2014  04:13:00     -138.477       20.122      -16.746       26.119       28.516       17.492      682.188      813.169      305.958        1.083        0.090      139.931       14.238        0.010      342.190       17.427      865.124
08/16/2014  04:14:00      -99.190      -17.590       -6.373       41.279       39.629       22.067     1703.992     1570.466      486.940        0.697        0.188      100.738       18.270        0.033      342.013       17.124      865.131
08/16/2014  04:15:00      -99.298      -20.184       -9.732       44.286       20.570       14.072     1961.256      423.137      198.035        0.647        0.129      101.328       16.741        0.027      341.967       17.048      865.134
08/16/2014  04:16:00      -78.551      -25.754       -6.822       30.913       22.972       12.792      955.622      527.718      163.630        0.426        0.082       82.665       14.704        0.032      341.946       17.011      865.136
08/16/2014  04:17:00      -62.239      -29.654       -6.251       24.763       22.321       12.506      613.187      498.217      156.391        0.303        0.063       68.943        7.574        0.012      341.979       17.069      865.144
08/16/2014  04:18:00      -56.465      -32.100        0.827       18.927       17.135       10.536      358.225      293.611      111.014        0.249        0.038       64.951        3.987        0.004      342.001       17.106      865.156
08/16/2014  04:19:00      -24.915      -42.057       -0.060       25.619       26.380       13.592      656.345      695.878      184.751        0.196        0.077       48.883       13.859        0.080      342.084       17.245      865.153
08/16/2014  04:20:00      -42.341      -56.517        3.382       33.116       26.956       15.777     1096.686      726.648      248.929        0.353        0.104       70.618       17.664        0.063      342.118       17.304      865.153
08/16/2014  04:21:00      -54.039      -67.030        3.554       27.314       19.728       22.894      746.053      389.213      524.119        0.454        0.083       86.100       13.329        0.024      342.187       17.423      865.155
08/16/2014  04:22:00      -50.070      -45.786        4.807       36.069       22.295       21.380     1300.957      497.080      457.105        0.344        0.113       67.848       20.972        0.096      342.188       17.422      865.160
08/16/2014  04:23:00      -45.416      -39.019       -0.254       61.106       29.173       25.951     3733.954      851.079      673.459        0.442        0.263       59.875       25.377        0.180      342.122       17.312      865.145
08/16/2014  04:24:00     -103.699      -63.272       -3.657       48.940       41.747       32.030     2395.170     1742.777     1025.942        0.997        0.258      121.478       23.710        0.038      342.050       17.189      865.133
08/16/2014  04:25:00     -115.620      -84.433       -6.233       55.065       47.626       30.940     3032.115     2268.260      957.275        1.340        0.313      143.168       28.390        0.039      341.980       17.070      865.128
08/16/2014  04:26:00     -131.045      -94.959       -8.804       47.896       41.362       28.700     2294.002     1710.845      823.691        1.555        0.241      161.833       21.963        0.018      341.978       17.064      865.127
08/16/2014  04:27:00     -102.431      -93.819      -14.099       46.604       38.110       25.317     2171.969     1452.405      640.934        1.188        0.213      138.903       25.120        0.033      341.995       17.095      865.122
08/16/2014  04:28:00      -49.252      -54.606        1.422       48.706       39.355       27.516     2372.264     1548.802      757.136        0.504        0.234       73.537       13.770        0.035      341.934       16.991      865.126
08/16/2014  04:29:00      -95.148     -107.276       -5.773       38.599       49.172       28.979     1489.864     2417.934      839.795        1.267        0.237      143.392       21.170        0.022      341.852       16.854      865.132
08/16/2014  04:30:00      -74.881      -35.481        3.467       46.912       35.587       30.217     2200.740     1266.414      913.061        0.563        0.219       82.862       21.236        0.066      341.822       16.803      865.135
08/16/2014  04:31:00     -109.053      -93.452       -4.512       53.048       41.762       26.393     2814.085     1744.100      696.565        1.295        0.263      143.617       26.573        0.034      341.786       16.741      865.121
08/16/2014  04:32:00     -133.594     -123.941       -3.375       56.554       45.152       36.080     3198.372     2038.697     1301.743        1.988        0.327      182.233       33.962        0.035      341.765       16.703      865.117
08/16/2014  04:33:00     -168.001     -133.100       -8.872       36.721       41.217       29.830     1348.461     1698.878      889.857        2.498        0.197      214.336       21.366        0.010      341.793       16.750      865.119
08/16/2014  04:34:00     -132.380     -112.613       -8.926       44.785       44.344       33.240     2005.657     1966.430     1104.904        1.768        0.254      173.799       29.776        0.029      341.741       16.663      865.134
08/16/2014  04:35:00     -132.234      -80.275       -5.478       49.211       49.035       27.521     2421.681     2404.387      757.428        1.477        0.279      154.693       27.800        0.032      341.772       16.717      865.144
08/16/2014  04:36:00     -100.975      -84.430       -0.962       61.580       49.232       31.259     3792.150     2423.742      977.127        1.226        0.360      131.622       30.980        0.055      341.742       16.665      865.152
08/16/2014  04:37:00     -138.215      -88.727       -9.458       78.374       52.080       39.036     6142.498     2712.362     1523.842        1.872        0.519      164.244       35.034        0.045      341.738       16.656      865.154
08/16/2014  04:38:00     -157.143     -106.441      -12.855       50.079       45.837       37.575     2507.947     2100.992     1411.891        2.110        0.301      189.799       30.973        0.027      341.599       16.422      865.169
08/16/2014  04:39:00     -156.044     -114.907       -5.337       61.271       53.375       41.217     3754.186     2848.850     1698.866        2.294        0.415      193.787       35.586        0.034      341.581       16.392      865.181
08/16/2014  04:40:00     -160.465     -115.499       -5.200       62.257       54.218       31.216     3875.965     2939.623      974.454        2.345        0.390      197.709       30.798        0.024      341.570       16.371      865.183
08/16/2014  04:41:00     -154.303      -88.451       -7.094       70.609       58.304       30.965     4985.623     3399.358      958.840        2.051        0.467      177.857       13.194        0.006      341.557       16.350      865.179
08/16/2014  04:42:00     -130.619     -106.604       -1.219       68.252       53.740       35.412     4658.378     2887.999     1253.976        1.861        0.440      168.599       31.003        0.034      341.547       16.335      865.191
08/16/2014  04:43:00     -166.918     -114.597       -5.172       52.891       38.745       34.458     2797.440     1501.212     1187.380        2.325        0.274      202.470       29.820        0.022      341.539       16.318      865.198
08/16/2014  04:44:00     -162.415      -81.114        3.523       49.024       52.511       31.752     2403.340     2757.412     1008.193        1.957        0.308      181.544       25.370        0.020      341.509       16.269      865.196
08/16/2014  04:45:00     -154.990      -81.535       -2.125       49.634       45.531       36.023     2463.527     2073.040     1297.688        1.825        0.292      175.128       29.659        0.029      341.528       16.301      865.197
08/16/2014  04:46:00     -151.665      -91.736       -9.595       58.329       50.251       28.160     3402.291     2525.175      792.960        1.911        0.336      177.250       35.160        0.039      341.547       16.334      865.212
08/16/2014  04:47:00     -145.892     -124.994       -1.464       57.942       42.347       32.157     3357.328     1793.253     1034.082        2.155        0.309      192.114       26.206        0.019      341.549       16.337      865.215
08/16/2014  04:48:00     -119.911     -109.839       -4.781       75.812       49.025       40.199     5747.533     2403.472     1615.919        1.811        0.488      162.614       45.639        0.079      341.498       16.251      865.219
08/16/2014  04:49:00     -148.120     -105.434      -10.313       49.359       54.503       31.577     2436.263     2970.526      997.087        1.978        0.320      181.813       26.610        0.021      341.525       16.295      865.226
08/16/2014  04:50:00     -107.691      -80.612       -4.936       38.832       44.678       21.965     1507.945     1996.106      482.447        1.105        0.199      134.520       24.547        0.033      341.528       16.301      865.235
08/16/2014  04:51:00      -81.003      -63.544        1.875       38.948       19.347       19.395     1516.908      374.306      376.160        0.643        0.113      102.953       21.130        0.042      341.507       16.267      865.240
08/16/2014  04:52:00      -71.058      -49.961        3.144       34.440       27.983       20.884     1186.098      783.067      436.154        0.498        0.120       86.864       19.064        0.048      341.526       16.300      865.246
08/16/2014  04:53:00      -66.500      -34.520       -1.127       30.590       25.928       16.535      935.771      672.277      273.420        0.375        0.094       74.926       14.433        0.037      341.528       16.301      865.257
08/16/2014  04:54:00      -91.903      -48.114       -6.854       29.028       30.313       14.809      842.628      918.904      219.313        0.639        0.099      103.736       13.624        0.017      341.516       16.281      865.263
08/16/2014  04:55:00      -94.993      -16.016       -8.796       18.224       18.493       11.422      332.127      341.983      130.451        0.508        0.040       96.334        7.580        0.006      341.474       16.211      865.273
08/16/2014  04:56:00      -92.155       -5.188       -8.217       23.015       16.444       12.520      529.699      270.420      156.751        0.477        0.048       92.301        7.439        0.006      341.319       15.949      865.292
08/16/2014  04:57:00     -109.000      -21.027       -7.430       16.330       14.396       13.605      266.670      207.245      185.104        0.652        0.033      111.010       10.099        0.008      341.289       15.898      865.297
08/16/2014  04:58:00      -72.151      -28.969        2.288       34.304       19.035       13.667     1176.740      362.336      186.782        0.389        0.086       77.749       14.498        0.035      341.333       15.973      865.304
08/16/2014  04:59:00      -72.533      -30.670       -1.602       16.776       18.287       14.577      281.426      334.406      212.493        0.352        0.041       78.751       10.176        0.017      341.332       15.970      865.312
08/16/2014  05:00:00      -54.659      -30.614       -9.001       14.081       14.292        8.999      198.280      204.264       80.989        0.224        0.024       62.648        9.356        0.022      341.392       16.073      865.315
08/16/2014  05:01:00      -48.363      -16.203       -0.613       12.317       17.329       10.562      151.705      300.310      111.562        0.158        0.028       51.005        7.520        0.022      341.441       16.154      865.305
08/16/2014  05:02:00      -36.347      -20.992       -2.559       16.715       15.363        9.746      279.381      236.032       94.988        0.119        0.031       41.973        5.163        0.015      341.418       16.118      865.302
08/16/2014  05:03:00      -17.789      -23.112        3.037       28.716       14.244       11.366      824.631      202.903      129.177        0.101        0.058       29.165       11.710        0.161      341.392       16.072      865.307
08/16/2014  05:04:00      -66.594      -33.539       -5.248       27.349       18.620        7.396      747.957      346.699       54.694        0.337        0.057       74.563        6.589        0.008      341.334       15.975      865.314
08/16/2014  05:05:00      -37.150      -29.230       -0.032       36.852       24.571       14.128     1358.090      603.720      199.593        0.220        0.108       47.271       12.147        0.066      341.345       15.993      865.315
08/16/2014  05:06:00      -50.925      -33.949       -0.895       23.261       18.215       11.953      541.058      331.791      142.880        0.238        0.051       61.204        9.795        0.026      341.366       16.028      865.318
08/16/2014  05:07:00      -61.792      -36.655       -2.486       32.731       24.219       18.131     1071.321      586.541      328.730        0.358        0.099       71.846       14.047        0.038      341.407       16.097      865.315
08/16/2014  05:08:00      -75.910      -44.027       -1.803       20.922       29.580       13.877      437.712      874.969      192.572        0.460        0.075       87.754        8.032        0.008      341.411       16.105      865.317
08/16/2014  05:09:00      -59.353      -49.259        2.827       42.227       37.151       19.509     1783.139     1380.232      380.594        0.475        0.177       77.131       17.737        0.053      341.403       16.091      865.324
08/16/2014  05:10:00      -88.880      -69.475        3.724       35.577       39.073       23.333     1265.694     1526.728      544.427        0.804        0.167      112.812       22.842        0.041      341.442       16.157      865.325
08/16/2014  05:11:00      -82.370      -56.473       -2.224       40.255       35.628       21.476     1620.495     1269.365      461.221        0.666        0.168       99.870       21.406        0.046      341.425       16.128      865.322
08/16/2014  05:12:00      -94.685      -64.517        0.447       34.406       31.605       21.368     1183.775      998.874      456.589        0.788        0.132      114.576       18.793        0.027      341.463       16.192      865.316
08/16/2014  05:13:00      -56.488      -51.168        6.584       56.012       31.792       20.565     3137.399     1010.717      422.920        0.521        0.229       76.217       22.540        0.087      341.475       16.213      865.314
08/16/2014  05:14:00      -71.188      -40.206       10.535       51.413       39.660       26.954     2643.246     1572.909      726.520        0.587        0.247       81.758       29.419        0.129      341.439       16.152      865.308
08/16/2014  05:15:00      -96.150      -58.132        2.765       46.589       30.647       20.712     2170.565      939.267      428.988        0.808        0.177      112.357       18.821        0.028      341.467       16.198      865.309
08/16/2014  05:16:00      -94.442      -51.116        3.909       39.275       30.140       18.909     1542.504      908.395      357.532        0.718        0.140      107.388       17.011        0.025      341.452       16.175      865.313
08/16/2014  05:17:00      -84.936      -66.377        8.781       51.473       34.565       27.060     2649.449     1194.718      732.266        0.814        0.229      107.796       26.670        0.061      341.494       16.243      865.321
08/16/2014  05:18:00     -104.010      -74.763       -0.468       40.199       38.180       24.054     1615.970     1457.678      578.596        1.003        0.183      128.092       27.304        0.045      341.481       16.221      865.323
08/16/2014  05:19:00     -115.131      -58.807       -5.898       39.925       36.143       20.699     1593.966     1306.286      428.468        1.004        0.166      129.280       17.353        0.018      341.518       16.286      865.317
08/16/2014  05:20:00      -95.774      -68.171        7.836       57.097       43.945       26.969     3260.095     1931.188      727.339        0.990        0.296      117.558       31.635        0.072      341.467       16.199      865.321
08/16/2014  05:21:00     -106.956      -77.309        0.340       60.516       54.170       32.602     3662.230     2934.388     1062.921        1.254        0.383      131.971       33.019        0.063      341.414       16.109      865.323
08/16/2014  05:22:00     -137.643      -78.967       -5.285       64.012       38.550       22.411     4097.473     1486.095      502.240        1.565        0.304      158.686       25.180        0.025      341.416       16.113      865.335
08/16/2014  05:23:00     -102.784      -62.745        3.659       51.709       47.256       25.849     2673.832     2233.128      668.180        1.004        0.279      120.422       20.798        0.030      341.403       16.091      865.346
08/16/2014  05:24:00     -141.399      -76.776       -2.012       58.259       38.314       25.194     3394.069     1467.934      634.755        1.569        0.275      160.899       21.896        0.019      341.341       15.985      865.350
08/16/2014  05:25:00     -129.060      -71.458       -2.301       32.705       34.478       25.866     1069.627     1188.751      669.037        1.235        0.146      147.521       20.081        0.019      341.345       15.994      865.346
08/16/2014  05:26:00      -93.452      -65.979        8.131       54.726       30.707       26.885     2994.884      942.922      722.816        0.891        0.233      114.396       23.851        0.043      341.282       15.885      865.335
08/16/2014  05:27:00     -128.275     -104.585        1.462       64.021       49.099       31.366     4098.718     2410.680      983.826        1.744        0.375      165.507       31.095        0.035      341.281       15.884      865.327
08/16/2014  05:28:00     -154.323     -118.442       -3.039       72.664       56.867       34.653     5280.001     3233.887     1200.804        2.378        0.486      194.536       27.001        0.019      341.278       15.875      865.333
08/16/2014  05:29:00     -146.916      -89.006        1.790       87.166       58.286       41.356     7597.857     3397.219     1710.317        2.110        0.635      171.774       41.029        0.057      341.204       15.753      865.331
08/16/2014  05:30:00     -115.621      -79.008        2.834       64.959       52.097       28.850     4219.710     2714.122      832.321        1.369        0.388      140.037       30.441        0.047      341.185       15.721      865.328
08/16/2014  05:31:00     -117.332      -85.237       -5.331       41.559       37.088       28.600     1727.142     1375.499      817.953        1.249        0.196      145.025       29.414        0.041      341.210       15.764      865.321
08/16/2014  05:32:00     -121.350     -103.795       -5.663       40.235       27.405       27.017     1618.876      751.030      729.940        1.432        0.155      159.685       21.522        0.018      341.181       15.716      865.316
08/16/2014  05:33:00     -120.920      -79.890        2.010       36.964       41.788       21.726     1366.347     1746.267      472.023        1.230        0.179      144.928       21.597        0.022      341.158       15.678      865.325
08/16/2014  05:34:00      -96.549      -67.441       -1.857       34.216       30.429       18.584     1170.756      925.923      345.383        0.816        0.122      117.771       10.332        0.008      341.195       15.739      865.325
08/16/2014  05:35:00     -117.554      -20.316       -7.653       46.043       29.276       24.072     2119.954      857.108      579.458        0.892        0.178      119.297       24.421        0.042      341.172       15.700      865.312
08/16/2014  05:36:00     -134.490      -52.833       -7.450       32.192       27.309       20.820     1036.299      745.767      433.452        1.157        0.111      144.496       19.516        0.018      341.109       15.594      865.309
08/16/2014  05:37:00     -118.876      -37.759       -8.156       37.394       25.300       18.822     1398.298      640.082      354.264        0.901        0.120      124.729       16.651        0.018      341.136       15.639      865.314
08/16/2014  05:38:00      -95.361      -21.756       -8.763       32.164       38.537       16.874     1034.499     1485.106      284.719        0.622        0.140       97.811       12.636        0.017      341.102       15.581      865.318
08/16/2014  05:39:00     -135.308       -6.141       -6.943       32.511       23.184       21.002     1056.935      537.507      441.068        1.021        0.102      135.448       21.876        0.026      340.915       15.265      865.319
08/16/2014  05:40:00     -118.717      -13.994       -1.890       33.216       22.514       21.738     1103.301      506.874      472.560        0.819        0.104      119.539       18.563        0.024      340.906       15.249      865.337
08/16/2014  05:41:00     -107.819      -16.168       -0.779       34.495       22.072       18.774     1189.880      487.160      352.453        0.696        0.101      109.025       17.112        0.025      340.941       15.309      865.352
08/16/2014  05:42:00     -114.442      -36.199      -12.498       25.253       16.481       18.689      637.691      271.618      349.277        0.791        0.063      120.031       17.203        0.021      340.943       15.313      865.357
08/16/2014  05:43:00      -73.927      -21.016       -0.369       35.728       25.086       18.447     1276.484      629.324      340.280        0.408        0.112       76.856       16.697        0.047      341.030       15.460      865.359
08/16/2014  05:44:00     -102.727      -25.739       -4.218       24.453       15.902       11.740      597.948      252.889      137.830        0.611        0.049      105.902       10.198        0.009      341.033       15.464      865.370
08/16/2014  05:45:00      -89.778      -61.428       -7.266       23.929       14.899       14.697      572.589      221.976      215.997        0.645        0.051      108.782        6.845        0.004      341.065       15.519      865.376
08/16/2014  05:46:00      -40.591      -31.192        5.179       49.247       41.344       26.171     2425.258     1709.358      684.921        0.373        0.241       51.191       32.520        0.404      340.974       15.365      865.367
08/16/2014  05:47:00      -70.545      -50.369        3.149       54.908       45.211       24.056     3014.852     2043.997      578.713        0.658        0.282       86.681       24.349        0.079      341.013       15.431      865.361
08/16/2014  05:48:00      -48.835      -49.601        7.138       53.062       42.864       26.757     2815.573     1837.284      715.913        0.513        0.268       69.607       33.056        0.226      340.990       15.392      865.363
08/16/2014  05:49:00      -69.405      -43.634        7.600       58.214       30.172       23.437     3388.831      910.322      549.308        0.581        0.242       81.982       29.373        0.128      341.003       15.414      865.364
08/16/2014  05:50:00     -110.176      -58.582        1.441       38.594       28.173       20.651     1489.489      793.693      426.479        0.914        0.135      124.782       15.270        0.015      341.064       15.517      865.360
08/16/2014  05:51:00      -46.834      -43.847        8.015       45.536       34.438       23.642     2073.525     1185.954      558.960        0.400        0.191       64.156       25.323        0.156      341.060       15.511      865.368
08/16/2014  05:52:00      -77.094      -65.223        0.201       37.284       27.544       18.075     1390.070      758.689      326.719        0.634        0.124      100.982       18.047        0.032      341.098       15.576      865.382
08/16/2014  05:53:00      -88.056      -81.204        3.520       44.419       29.228       21.976     1973.029      854.274      482.940        0.883        0.166      119.783       22.925        0.037      341.111       15.597      865.409
08/16/2014  05:54:00     -106.850      -90.826       -9.356       26.428       29.787       23.153      698.443      887.271      536.056        1.094        0.106      140.236       18.669        0.018      341.165       15.689      865.423
08/16/2014  05:55:00      -96.408      -65.463       -2.045       39.354       40.698       23.667     1548.709     1656.347      560.133        0.867        0.188      116.533       26.784        0.053      341.203       15.753      865.438
08/16/2014  05:56:00     -147.161      -84.742       -8.090       39.509       28.640       23.440     1560.979      820.271      549.452        1.592        0.147      169.816       19.877        0.014      341.268       15.863      865.441
08/16/2014  05:57:00     -112.304      -71.129       -0.934       46.283       38.597       18.899     2142.104     1489.760      357.159        1.083        0.199      132.934       13.517        0.010      341.210       15.764      865.440
08/16/2014  05:58:00     -116.600      -57.797       -3.063       39.395       27.710       21.596     1551.988      767.845      466.401        0.987        0.139      130.138       11.859        0.008      341.212       15.767      865.446
08/16/2014  05:59:00     -149.322      -56.815        0.341       39.495       28.501       19.671     1559.848      812.287      386.958        1.414        0.138      159.765       20.261        0.016      341.217       15.778      865.446
08/16/2014  06:00:00     -112.008      -79.149        3.622       32.364       28.372       23.333     1047.435      804.994      544.427        1.061        0.120      137.151       19.462        0.020      341.217       15.776      865.436
08/16/2014  06:01:00     -131.387      -45.965        3.142       52.145       30.632       20.924     2719.116      938.331      437.794        1.174        0.205      139.195       23.562        0.029      341.117       15.610      865.432
08/16/2014  06:02:00     -127.284      -42.200       -2.407       40.208       37.212       17.968     1616.676     1384.716      322.867        1.066        0.166      134.098       18.856        0.020      341.135       15.639      865.431
08/16/2014  06:03:00     -133.785      -69.020       -0.760       44.640       34.289       19.537     1992.693     1175.704      381.704        1.311        0.178      150.540       18.854        0.016      341.064       15.516      865.443
08/16/2014  06:04:00     -133.932      -57.439        2.057       49.973       44.070       26.399     2497.290     1942.137      696.901        1.319        0.257      145.730       25.248        0.030      341.095       15.570      865.446
08/16/2014  06:05:00     -144.557      -26.922       -5.569       31.487       30.550       19.608      991.411      933.293      384.466        1.198        0.115      147.043       11.988        0.007      341.064       15.518      865.444
08/16/2014  06:06:00      -91.490      -46.848       -2.724       35.925       23.094       16.904     1290.640      533.353      285.730        0.634        0.105      102.787       15.295        0.022      341.183       15.719      865.443
08/16/2014  06:07:00      -95.752      -38.756        1.670       41.342       24.538       18.396     1709.179      602.125      338.396        0.666        0.132      103.298       18.690        0.033      341.126       15.623      865.455
08/16/2014  06:08:00      -72.706      -40.491       -2.749       28.998       26.379       15.496      840.901      695.876      240.111        0.435        0.089       83.221       13.530        0.026      341.159       15.678      865.459
08/16/2014  06:09:00      -83.777      -56.638       -3.302       33.549       26.960       16.819     1125.558      726.864      282.887        0.619        0.107      101.126       15.399        0.023      341.188       15.727      865.469
08/16/2014  06:10:00     -118.440      -49.749       -3.255       16.301       23.353       12.946      265.733      545.364      167.602        0.875        0.049      128.464        9.676        0.006      341.180       15.714      865.471
08/16/2014  06:11:00      -93.317      -54.688        0.242       34.382       23.915       16.886     1182.098      571.924      285.130        0.687        0.102      108.161       12.868        0.014      341.131       15.631      865.476
08/16/2014  06:12:00      -67.538      -46.466        5.503       40.297       32.803       19.019     1623.826     1076.008      361.735        0.491        0.153       81.978       22.019        0.072      341.173       15.702      865.487
08/16/2014  06:13:00      -60.917      -44.714        2.226       34.142       24.816       21.970     1165.653      615.846      482.667        0.399        0.113       75.565       17.948        0.056      341.157       15.676      865.494
08/16/2014  06:14:00      -62.413      -57.189        4.327       39.012       35.461       23.075     1521.942     1257.450      532.458        0.525        0.166       84.652       22.989        0.074      341.160       15.679      865.491
08/16/2014  06:15:00      -68.834      -52.345        1.428       42.572       34.624       23.234     1812.334     1198.825      539.798        0.551        0.178       86.476       23.422        0.073      341.165       15.689      865.486
08/16/2014  06:16:00      -62.506      -55.329        5.734       42.271       32.201       28.412     1786.796     1036.931      807.266        0.532        0.182       83.476       25.092        0.090      341.141       15.647      865.489
08/16/2014  06:17:00      -82.330      -69.715        5.626       54.947       39.661       20.956     3019.149     1572.976      439.168        0.835        0.252      107.881       25.847        0.057      341.219       15.779      865.498
08/16/2014  06:18:00      -50.386      -55.557       11.692       47.540       32.291       27.013     2260.006     1042.682      729.685        0.490        0.202       75.002       25.335        0.114      341.217       15.777      865.504
08/16/2014  06:19:00      -27.138      -37.172       10.986       41.626       33.432       22.392     1732.700     1117.721      501.394        0.279        0.168       46.024       23.523        0.261      341.189       15.728      865.507
08/16/2014  06:20:00      -53.447      -57.248        4.872       42.790       33.979       24.246     1831.006     1154.541      587.857        0.486        0.179       78.319       21.695        0.077      341.198       15.745      865.509
08/16/2014  06:21:00      -81.735      -84.958        4.881       50.527       39.347       26.012     2552.970     1548.187      676.605        0.935        0.239      117.892       25.920        0.048      341.144       15.652      865.506
08/16/2014  06:22:00      -70.167      -96.268       -0.333       52.545       58.026       28.063     2761.021     3367.039      787.509        1.055        0.346      119.126       34.784        0.085      341.160       15.678      865.522
08/16/2014  06:23:00      -99.407      -81.435       -3.915       48.624       37.943       22.573     2364.279     1439.668      509.558        1.042        0.216      128.505       19.229        0.022      341.119       15.610      865.529
08/16/2014  06:24:00      -97.011      -73.618        2.896       63.007       32.914       26.861     3969.844     1083.332      721.527        1.031        0.289      121.782       26.035        0.046      341.086       15.555      865.535
08/16/2014  06:25:00      -81.649      -67.049        7.660       40.030       35.670       20.806     1602.390     1272.322      432.900        0.726        0.165      105.651       13.995        0.018      341.071       15.531      865.547
08/16/2014  06:26:00     -113.652      -93.297       -0.680       36.423       31.981       22.371     1326.641     1022.796      500.461        1.224        0.142      147.041       17.512        0.014      341.082       15.546      865.549
08/16/2014  06:27:00     -101.857      -89.041       -5.894       59.813       32.424       23.567     3577.571     1051.311      555.405        1.176        0.259      135.289       26.983        0.040      341.108       15.592      865.560
08/16/2014  06:28:00     -132.671     -102.129       -5.880       42.138       37.377       23.128     1775.643     1397.055      534.924        1.589        0.185      167.428       21.596        0.017      341.136       15.640      865.571
08/16/2014  06:29:00     -111.950      -88.239       -0.264       48.499       41.326       28.230     2352.198     1707.825      796.945        1.259        0.243      142.544       30.210        0.045      341.083       15.549      865.578
08/16/2014  06:30:00     -126.054      -80.585      -10.128       48.379       33.893       21.201     2340.507     1148.720      449.490        1.321        0.197      149.612       28.657        0.037      341.071       15.528      865.582
08/16/2014  06:31:00     -122.523      -83.092       -2.256       28.657       33.034       19.734      821.200     1091.249      389.425        1.211        0.115      148.041       17.888        0.015      341.072       15.530      865.579
08/16/2014  06:32:00      -91.919      -72.979        3.228       48.235       35.723       21.347     2326.573     1276.140      455.686        0.892        0.203      117.367       25.732        0.048      341.047       15.490      865.579
08/16/2014  06:33:00      -78.334      -87.777       -1.399       40.957       40.540       25.588     1677.507     1643.460      654.747        0.891        0.199      117.648       20.845        0.031      341.027       15.455      865.586
08/16/2014  06:34:00      -91.465     -111.513      -13.532       50.158       43.671       30.911     2515.813     1907.194      955.496        1.318        0.269      144.225       20.184        0.020      341.035       15.469      865.595
08/16/2014  06:35:00      -63.512      -61.561       -1.959       46.914       34.044       23.448     2200.937     1158.972      549.793        0.587        0.195       88.451       11.604        0.017      341.083       15.549      865.604
08/16/2014  06:36:00      -99.506      -73.706        0.364       64.689       41.847       28.352     4184.710     1751.203      803.845        1.104        0.337      123.830       31.507        0.065      341.071       15.529      865.616
08/16/2014  06:37:00      -88.782     -103.090        5.342       60.982       51.631       32.162     3718.847     2665.718     1034.395        1.298        0.371      136.051       38.079        0.078      341.039       15.476      865.621
08/16/2014  06:38:00     -104.567      -90.789       -4.557       57.972       42.970       33.084     3360.808     1846.448     1094.569        1.275        0.315      138.481       26.079        0.035      341.027       15.456      865.635
08/16/2014  06:39:00     -130.250     -119.101      -17.438       35.755       37.545       20.597     1278.393     1409.630      424.218        1.728        0.156      176.494       11.360        0.004      341.038       15.474      865.636
08/16/2014  06:40:00      -91.366      -98.330       -3.760       35.735       26.987       21.072     1276.969      728.324      444.012        1.024        0.122      134.226       15.162        0.013      341.143       15.650      865.636
08/16/2014  06:41:00      -53.865      -62.675        5.882       36.284       37.845       25.909     1316.552     1432.267      671.282        0.514        0.171       82.641       15.677        0.036      341.154       15.671      865.641
08/16/2014  06:42:00      -80.752      -91.709       -3.816       54.777       42.731       34.195     3000.483     1825.973     1169.308        1.047        0.300      122.194       27.381        0.050      341.211       15.767      865.653
08/16/2014  06:43:00      -29.598      -60.927       19.362       37.902       33.526       19.348     1436.565     1123.995      374.334        0.395        0.147       67.735       12.734        0.035      341.232       15.802      865.657
08/16/2014  06:44:00      -94.758     -100.122       -7.376       39.984       34.900       23.836     1598.723     1218.029      568.173        1.122        0.169      137.853       19.973        0.021      341.267       15.862      865.669
08/16/2014  06:45:00      -97.433      -36.639        4.811       43.091       36.110       30.731     1856.849     1303.963      944.382        0.748        0.205      104.094       25.367        0.059      341.252       15.836      865.678
08/16/2014  06:46:00     -124.702      -81.721       -8.520       40.461       32.421       21.008     1637.103     1051.120      441.316        1.271        0.156      149.093       21.883        0.022      341.257       15.844      865.690
08/16/2014  06:47:00     -131.720      -89.700       -2.726       46.922       47.928       28.740     2201.635     2297.064      825.992        1.536        0.266      159.362       24.737        0.024      341.213       15.771      865.705
08/16/2014  06:48:00     -137.106      -86.035       -6.008       62.158       52.895       32.776     3863.623     2797.870     1074.286        1.698        0.387      161.864       35.344        0.048      341.167       15.691      865.711
08/16/2014  06:49:00      -99.713      -61.707        2.514       60.779       34.234       25.806     3694.133     1171.991      665.973        0.964        0.277      117.262       29.455        0.063      341.139       15.646      865.722
08/16/2014  06:50:00     -127.072      -84.441       -1.699       47.908       40.325       23.778     2295.183     1626.067      565.414        1.388        0.224      152.570       22.947        0.023      341.144       15.653      865.733
08/16/2014  06:51:00      -94.409     -103.013       -6.504       48.259       44.706       19.490     2328.979     1998.601      379.852        1.214        0.235      139.731       27.263        0.038      341.160       15.682      865.745
08/16/2014  06:52:00     -108.402      -85.533       -5.615       34.336       34.448       19.592     1178.988     1186.685      383.841        1.092        0.137      138.083       14.960        0.012      341.161       15.683      865.745
08/16/2014  06:53:00     -151.609      -47.377       -8.199       36.805       36.270       25.071     1354.634     1315.527      628.562        1.430        0.165      158.840       14.192        0.008      341.157       15.675      865.749
08/16/2014  06:54:00      -60.921      -51.951        9.534       49.208       33.051       21.076     2421.394     1092.349      444.185        0.523        0.198       80.065       22.053        0.076      341.212       15.769      865.753
08/16/2014  06:55:00      -74.857      -39.598        4.649       46.438       35.893       29.611     2156.465     1288.277      876.834        0.576        0.216       84.685       22.823        0.073      341.186       15.725      865.764
08/16/2014  06:56:00      -88.202      -81.473        0.991       36.857       36.841       22.879     1358.453     1357.266      523.460        0.883        0.162      120.073       14.545        0.015      341.196       15.741      865.778
08/16/2014  06:57:00      -72.435      -78.958      -11.204       35.692       33.912       19.726     1273.910     1150.053      389.121        0.721        0.141      107.150       17.680        0.027      341.188       15.728      865.770
08/16/2014  06:58:00     -110.232      -85.729       -0.459       38.281       30.610       27.420     1465.434      936.992      751.856        1.133        0.158      139.644       23.488        0.028      341.178       15.712      865.773
08/16/2014  06:59:00      -84.286      -52.043       -1.388       40.223       38.804       20.872     1617.885     1505.780      435.643        0.669        0.178       99.058       22.542        0.052      341.203       15.754      865.781
08/16/2014  07:00:00      -63.095      -73.374        4.411       38.345       31.546       22.174     1470.310      995.133      491.674        0.617        0.148       96.771       21.113        0.048      341.196       15.740      865.783
08/16/2014  07:01:00      -90.644      -78.693       -4.968       31.441       35.081       21.186      988.528     1230.696      448.833        0.855        0.133      120.037       19.497        0.026      341.233       15.804      865.779
08/16/2014  07:02:00      -87.379      -73.284       -1.546       36.683       31.545       18.284     1345.645      995.094      334.305        0.784        0.134      114.042       12.911        0.013      341.234       15.806      865.790
08/16/2014  07:03:00      -69.872      -76.340       -1.303       42.493       41.067       23.616     1805.614     1686.475      557.724        0.738        0.202      103.488       27.220        0.069      341.285       15.892      865.809
08/16/2014  07:04:00      -78.695      -68.421       -5.623       18.388       29.036       17.503      338.118      843.094      306.366        0.620        0.074      104.280       14.076        0.018      341.291       15.904      865.806
08/16/2014  07:05:00      -78.394      -65.029       -5.240       17.939       17.256       12.005      321.790      297.755      144.119        0.558        0.038      101.855       10.428        0.010      341.316       15.946      865.817
08/16/2014  07:06:00      -66.592      -67.018       -3.345       23.266       27.613       16.161      541.299      762.489      261.192        0.525        0.078       94.477       17.127        0.033      341.321       15.953      865.819
08/16/2014  07:07:00      -63.586      -66.099       -7.127       33.388       29.140       21.013     1114.790      849.142      441.528        0.543        0.120       91.718       22.505        0.060      341.359       16.019      865.823
08/16/2014  07:08:00      -34.029      -42.322       -1.344       25.486       26.996       10.522      649.543      728.809      110.711        0.222        0.074       54.307       11.745        0.047      341.382       16.055      865.825
08/16/2014  07:09:00      -58.387      -88.749       -3.384       21.947       27.272       21.991      481.690      743.754      483.609        0.650        0.085      106.233       16.589        0.024      341.402       16.090      865.829
08/16/2014  07:10:00      -44.283      -54.475       -1.607       15.992       24.973       13.949      255.750      623.653      194.575        0.300        0.054       70.204       10.720        0.023      341.407       16.099      865.844
08/16/2014  07:11:00      -35.124      -48.322        2.197       34.295       28.227       17.556     1176.122      796.760      308.229        0.293        0.114       59.739       15.852        0.070      341.446       16.163      865.857
08/16/2014  07:12:00      -32.081      -30.547        4.092       20.768       42.803       13.325      431.314     1832.108      177.549        0.221        0.122       44.297       11.428        0.067      341.462       16.190      865.867
08/16/2014  07:13:00      -27.070      -37.928        6.261       24.150       30.388       20.318      583.208      923.412      412.819        0.206        0.096       46.597       15.808        0.115      341.509       16.270      865.873
08/16/2014  07:14:00      -66.331      -59.792      -11.431       30.041       28.325       16.880      902.445      802.280      284.949        0.505        0.099       89.302       15.000        0.028      341.493       16.242      865.879
08/16/2014  07:15:00      -72.720      -68.877        1.503       27.800       25.689       18.151      772.828      659.921      329.458        0.590        0.088      100.161       12.024        0.014      341.443       16.158      865.886
08/16/2014  07:16:00      -83.948      -53.498       -3.691       37.507       23.130       20.555     1406.800      534.984      422.519        0.614        0.118       99.545       18.327        0.034      341.502       16.259      865.885
08/16/2014  07:17:00      -57.656      -80.742        0.109       28.077       40.964       22.095      788.327     1678.042      488.201        0.640        0.148       99.214       23.982        0.058      341.520       16.288      865.896
08/16/2014  07:18:00      -28.169      -43.726        6.091       24.099       22.469       15.631      580.781      504.859      244.324        0.204        0.066       52.014       15.990        0.095      341.612       16.446      865.899
08/16/2014  07:19:00      -38.344      -37.398        5.010       36.233       26.510       21.942     1312.864      702.782      481.468        0.270        0.125       53.562       21.014        0.154      341.658       16.522      865.903
08/16/2014  07:20:00      -60.896      -66.022        7.115       31.837       32.299       20.718     1013.625     1043.200      429.222        0.530        0.124       89.818       20.313        0.051      341.677       16.557      865.914
08/16/2014  07:21:00      -61.803      -69.531       -6.159       25.040       28.342       18.914      627.024      803.288      357.736        0.524        0.089       93.028       12.832        0.019      341.708       16.608      865.911
08/16/2014  07:22:00      -22.244      -61.109        1.783       26.696       33.612       19.545      712.701     1129.775      382.009        0.323        0.111       65.031       17.988        0.077      341.727       16.639      865.911
08/16/2014  07:23:00      -44.499      -23.994        3.269       26.339       25.886       18.646      693.739      670.088      347.661        0.214        0.086       50.556       16.924        0.112      341.825       16.807      865.893
08/16/2014  07:24:00      -68.917      -57.431        0.888       29.413       19.733       16.670      865.134      389.398      277.904        0.479        0.077       89.710       15.611        0.030      341.699       16.592      865.888
08/16/2014  07:25:00      -55.137      -47.308       -2.200       32.874       19.990       15.832     1080.730      399.595      250.651        0.351        0.087       72.651       12.732        0.031      341.793       16.751      865.884
08/16/2014  07:26:00      -45.229      -56.203        0.170       12.998       21.348       11.868      168.944      455.752      140.853        0.298        0.038       72.142       10.763        0.022      341.739       16.661      865.881
08/16/2014  07:27:00      -28.765      -70.696       -3.927       22.987       18.927       13.128      528.397      358.232      172.349        0.345        0.053       76.324       12.751        0.028      341.820       16.797      865.883
08/16/2014  07:28:00      -19.783      -23.674        5.981       14.819       31.457       12.007      219.600      989.549      144.169        0.117        0.068       30.852       11.995        0.151      341.969       17.051      865.879
08/16/2014  07:29:00       -2.633      -12.622        7.658       14.576       17.447       14.747      212.469      304.398      217.486        0.048        0.037       12.894        9.789        0.576      342.461       17.887      865.881
08/16/2014  07:30:00      -40.084      -32.465       -3.352       14.128       17.522        9.979      199.605      307.008       99.582        0.164        0.030       51.582        4.774        0.009      342.012       17.125      865.881
08/16/2014  07:31:00      -45.631      -40.278       -6.922       20.651       19.896       20.678      426.467      395.856      427.587        0.250        0.062       60.865       16.878        0.077      342.051       17.190      865.889
08/16/2014  07:32:00      -14.838      -19.619        9.301       18.537       23.297       18.967      343.637      542.756      359.764        0.097        0.062       24.598       17.437        0.502      342.194       17.434      865.888
08/16/2014  07:33:00      -28.758      -11.477        5.140       24.554       15.314       17.097      602.912      234.515      292.302        0.106        0.056       30.963       17.682        0.326      342.296       17.606      865.897
08/16/2014  07:34:00      -23.691       -8.370       11.937       21.839       22.568       17.552      476.933      509.292      308.068        0.103        0.065       25.127       12.582        0.251      342.372       17.736      865.901
08/16/2014  07:35:00      -14.118       -4.081       12.168       30.169       15.864       15.941      910.159      251.661      254.103        0.089        0.071       14.696        4.905        0.111      342.348       17.696      865.902
08/16/2014  07:36:00      -12.513        1.639        5.303       23.045       12.281       14.510      531.054      150.812      210.526        0.054        0.045       12.620       13.703        1.179      342.448       17.866      865.911
08/16/2014  07:37:00      -37.088      -12.787        3.991       27.600       13.705       16.500      761.787      187.814      272.237        0.139        0.061       39.230       11.612        0.088      342.238       17.508      865.924
08/16/2014  07:38:00      -21.445        8.479       11.695       24.888       15.478       17.483      619.427      239.580      305.671        0.092        0.058       23.060       13.514        0.343      342.689       18.275      865.924
08/16/2014  07:39:00       -0.939       21.877        3.414       12.884       20.302       19.190      166.006      412.181      368.243        0.072        0.047       21.897       11.297        0.266      342.433       17.840      865.920
08/16/2014  07:40:00       -9.186       -3.664        8.005       11.711        9.648       13.000      137.144       93.081      168.996        0.028        0.020        9.890        7.853        0.631      342.662       18.228      865.924
08/16/2014  07:41:00      -34.845      -14.333        3.566       20.769       23.578       12.850      431.354      555.929      165.111        0.129        0.058       37.678       10.863        0.083      342.317       17.643      865.921
08/16/2014  07:42:00      -48.817        5.586        5.055       19.677       11.055       12.206      387.186      122.217      148.976        0.155        0.033       49.136        8.192        0.028      342.158       17.371      865.918
08/16/2014  07:43:00      -24.574       13.540        7.554       12.335       11.627       14.537      152.162      135.185      211.311        0.067        0.025       28.058        9.937        0.125      342.509       17.970      865.917
08/16/2014  07:44:00      -40.088       -0.778       -4.448       10.753        9.263        6.141      115.632       85.807       37.710        0.093        0.012       40.095        4.127        0.011      342.181       17.412      865.919
08/16/2014  07:45:00      -34.119       -7.905       -1.930        9.768        9.396        5.243       95.410       88.278       27.491        0.072        0.011       35.023        3.849        0.012      342.206       17.454      865.914
08/16/2014  07:46:00      -29.797        9.621        1.151        8.594       13.229       11.668       73.865      174.998      136.147        0.068        0.019       31.312        7.373        0.055      342.294       17.605      865.922
08/16/2014  07:47:00       -8.590      -42.575        2.401       27.026       44.602       18.765      730.394     1989.355      352.133        0.248        0.154       43.433       11.968        0.076      342.405       17.792      865.934
08/16/2014  07:48:00        7.962      -48.546       13.507       20.696       22.796       22.756      428.341      519.675      517.820        0.203        0.073       49.194       11.150        0.051      342.672       18.245      865.939
08/16/2014  07:49:00       27.808        8.997       27.056       27.124       29.022       30.216      735.699      842.286      912.979        0.204        0.125       29.227       26.141        0.800      342.687       18.271      865.945
08/16/2014  07:50:00       19.481       21.567       43.502       24.332       18.302       18.707      592.042      334.979      349.958        0.201        0.064       29.062       10.080        0.120      342.659       18.224      865.953
08/16/2014  07:51:00        4.346       -5.356       15.605       22.009       32.151       24.891      484.399     1033.680      619.586        0.121        0.107        6.897       24.638       12.760      342.890       18.616      865.957
08/16/2014  07:52:00        9.362       26.008       33.743       22.525       17.251       15.232      507.398      297.595      232.014        0.147        0.052       27.641       15.508        0.315      343.011       18.823      865.963
08/16/2014  07:53:00       31.152       33.879       24.343       24.757       14.257       19.208      612.921      203.256      368.939        0.195        0.059       46.024       11.153        0.059      342.621       18.160      865.967
08/16/2014  07:54:00       -8.787        2.270       15.806       14.132       16.408       15.514      199.702      269.209      240.681        0.052        0.035        9.075        8.636        0.906      343.110       18.991      865.969
08/16/2014  07:55:00      -31.820        3.831       12.693        9.972       11.579       13.268       99.441      134.068      176.046        0.080        0.020       32.050        9.201        0.082      342.703       18.298      865.967
08/16/2014  07:56:00      -13.170        8.177       26.998       12.925       18.111       18.108      167.068      328.004      327.913        0.090        0.041       15.502       14.785        0.910      343.290       19.300      865.964
08/16/2014  07:57:00        4.796       39.800       49.290       38.930       34.184       27.217     1515.552     1168.528      740.743        0.373        0.171       40.087       23.783        0.352      343.187       19.122      865.965
08/16/2014  07:58:00       85.042       28.972       16.841       46.794       36.279       33.950     2189.685     1316.172     1152.572        0.651        0.233       89.841       19.578        0.047      342.662       18.228      865.961
08/16/2014  07:59:00       28.297       27.114       40.264       44.762       35.609       27.401     2003.678     1268.018      750.798        0.359        0.201       39.190       23.762        0.368      343.058       18.902      865.960
08/16/2014  08:00:00       61.628       38.853        8.384       27.442       28.493       25.812      753.089      811.859      666.278        0.380        0.112       72.852       17.691        0.059      342.696       18.286      865.970
08/16/2014  08:01:00       55.694       37.461        5.278       37.339       27.936       26.377     1394.166      780.409      695.720        0.370        0.144       67.121        8.396        0.016      342.978       18.767      865.982
08/16/2014  08:02:00       54.278       57.385       11.397       37.727       21.091       26.466     1423.347      444.824      700.443        0.447        0.128       78.988       16.530        0.044      342.914       18.657      865.986
08/16/2014  08:03:00       70.776       51.901        5.440       16.332       18.955       18.407      266.735      359.309      338.802        0.435        0.048       87.767        9.012        0.011      342.832       18.517      865.987
08/16/2014  08:04:00       79.711       77.704       45.759       37.882       29.656       29.170     1435.061      879.476      850.911        0.882        0.158      111.318       24.059        0.047      342.884       18.607      865.991
08/16/2014  08:05:00        4.559       57.537       73.401       28.918       32.496       26.673      836.255     1055.997      711.445        0.566        0.130       57.717       24.137        0.175      343.115       19.001      865.993
08/16/2014  08:06:00       10.579       22.034       38.865       28.078       24.702       27.191      788.366      610.194      739.338        0.212        0.107       24.442       18.101        0.548      343.300       19.315      865.996
08/16/2014  08:07:00       67.021       51.170       26.165       47.357       19.489       33.667     2242.704      379.819     1133.498        0.577        0.188       84.322       34.587        0.168      342.912       18.655      865.997
08/16/2014  08:08:00       22.529       19.811       -1.492       19.847       14.191       13.764      393.886      201.389      189.461        0.084        0.039       30.001        9.728        0.105      342.788       18.443      866.000
08/16/2014  08:09:00       10.923       17.437       16.330       49.436       17.868       21.189     2443.876      319.256      448.984        0.195        0.161       20.576        7.301        0.126      343.122       19.012      866.000
08/16/2014  08:10:00       97.876       41.678       24.469       37.854       30.668       25.654     1432.902      940.539      658.126        0.747        0.152      106.381       22.635        0.045      343.001       18.805      866.007
08/16/2014  08:11:00       80.792       46.158       14.311       31.064       33.153       31.303      965.002     1099.134      979.879        0.595        0.152       93.048       25.188        0.073      342.743       18.368      866.017
08/16/2014  08:12:00       39.046       34.214       13.252       13.939       15.058       14.390      194.290      226.758      207.086        0.175        0.031       51.915        6.956        0.018      342.712       18.313      866.024
08/16/2014  08:13:00       56.308       66.139       14.377       22.882       21.006       23.021      523.600      441.243      529.983        0.462        0.075       86.862       15.859        0.033      342.829       18.511      866.026
08/16/2014  08:14:00       18.383       57.271       11.094       31.343       37.292       23.521      982.387     1390.681      553.244        0.333        0.146       60.149       23.113        0.148      343.099       18.973      866.033
08/16/2014  08:15:00       24.845      -17.399       16.586       32.026       34.908       22.994     1025.696     1218.601      528.730        0.198        0.139       30.332       20.755        0.468      343.437       19.548      866.039
08/16/2014  08:16:00       52.054       -5.631       16.346       36.040       35.650       30.482     1298.892     1270.951      929.158        0.325        0.175       52.358       22.080        0.178      343.288       19.295      866.045
08/16/2014  08:17:00       25.388       15.466       32.050       35.037       28.156       28.400     1227.609      792.788      806.552        0.237        0.141       29.728       26.954        0.822      343.278       19.277      866.054
08/16/2014  08:18:00       17.314        8.386        7.675       22.241       27.618       26.313      494.662      762.743      692.395        0.119        0.097       19.238       17.494        0.827      343.437       19.548      866.067
08/16/2014  08:19:00       -6.485       14.320       24.362       11.466       19.765       14.168      131.479      390.646      200.726        0.078        0.036       15.720        5.806        0.136      343.965       20.448      866.074
08/16/2014  08:20:00       -7.032       13.038       35.710       13.333       23.700       16.119      177.774      561.685      259.817        0.125        0.050       14.813        7.547        0.260      344.235       20.911      866.084
08/16/2014  08:21:00       40.472       33.542       26.956       31.191       28.924       22.180      972.894      836.576      491.939        0.290        0.115       52.565       17.573        0.112      343.527       19.702      866.091
08/16/2014  08:22:00       32.992       32.185       27.158       31.313       18.274       18.339      980.480      333.953      336.331        0.226        0.083       46.091       14.289        0.096      343.395       19.475      866.095
08/16/2014  08:23:00      -22.164       -1.946       12.522       20.376       13.478       17.561      415.164      181.669      308.377        0.078        0.045       22.249       14.852        0.446      343.683       19.968      866.106
08/16/2014  08:24:00      -26.643       -5.508        7.039       21.246       12.977       12.081      451.380      168.404      145.962        0.078        0.038       27.206        7.210        0.070      343.365       19.425      866.126
08/16/2014  08:25:00      -60.626      -10.495        3.481       19.173       27.817       16.167      367.588      773.793      261.379        0.260        0.070       61.528        9.291        0.023      343.166       19.087      866.128
08/16/2014  08:26:00      -19.180      -19.884        2.925       29.539       25.570       19.691      872.571      653.850      387.728        0.134        0.096       27.627       13.913        0.254      343.337       19.378      866.129
08/16/2014  08:27:00      -37.227      -36.462        3.956       43.737       31.293       22.536     1912.912      979.233      507.850        0.306        0.170       52.109       18.684        0.129      343.167       19.089      866.139
08/16/2014  08:28:00      -10.727      -13.149       14.305       32.455       21.151       18.876     1053.323      447.360      356.304        0.117        0.093       16.969       18.677        1.212      343.592       19.813      866.127
08/16/2014  08:29:00      -21.250      -25.930       -8.955       29.944       20.913       22.307      896.637      437.358      497.611        0.152        0.092       33.525       13.698        0.167      343.366       19.428      866.127
08/16/2014  08:30:00      -21.056      -32.334       -0.421       14.291       19.336       15.384      204.219      373.873      236.655        0.115        0.041       38.585       11.006        0.081      343.305       19.324      866.126
08/16/2014  08:31:00      -30.661      -14.499       10.760       24.278       23.984       21.895      589.414      575.217      479.383        0.145        0.082       33.916       20.708        0.373      343.678       19.959      866.127
08/16/2014  08:32:00      -12.858        4.325        7.003       16.155       13.299       21.530      260.982      176.866      463.536        0.057        0.045       13.565       13.275        0.958      343.850       20.252      866.136
08/16/2014  08:33:00      -12.845       -1.040       14.991       17.303       14.296       20.565      299.380      204.368      422.939        0.066        0.046       12.887       13.555        1.106      344.036       20.570      866.147
08/16/2014  08:34:00        2.101       28.575       28.106       17.338       17.931       13.132      300.603      321.519      172.437        0.120        0.040       28.652        6.225        0.047      344.456       21.288      866.159
08/16/2014  08:35:00        8.150       18.587       49.031       23.646       25.792       19.420      559.122      665.211      377.137        0.221        0.080       20.295       19.548        0.928      344.745       21.782      866.166
08/16/2014  08:36:00       -7.059       -8.646       39.375       17.322       37.259       19.671      300.038     1388.223      386.948        0.187        0.104       11.161       22.094        3.918      344.001       20.512      866.178
08/16/2014  08:37:00      -28.494      -44.039       -6.825       31.557       24.011       21.683      995.842      576.517      470.167        0.242        0.102       52.454        6.261        0.014      343.516       19.682      866.193
08/16/2014  08:38:00      -53.678      -35.576       -4.540       15.986       10.742        5.701      255.540      115.388       32.505        0.229        0.020       64.397        2.762        0.002      343.407       19.498      866.199
08/16/2014  08:39:00      -41.945       -8.215        5.903       26.464       18.142       19.364      700.355      329.136      374.978        0.163        0.070       42.741       21.166        0.245      343.875       20.297      866.198
08/16/2014  08:40:00      -35.288      -20.860       11.569       39.788       24.787       21.735     1583.077      614.411      472.424        0.224        0.133       40.992       22.811        0.310      343.866       20.281      866.202
08/16/2014  08:41:00      -36.441      -42.202        0.537       31.958       22.307       11.016     1021.318      497.602      121.351        0.237        0.082       55.758        7.834        0.020      343.573       19.780      866.209
08/16/2014  08:42:00      -36.799      -27.844       -7.785       22.940       16.933       13.286      526.239      286.739      176.508        0.159        0.049       46.146        7.590        0.027      343.535       19.716      866.210
08/16/2014  08:43:00      -24.869      -24.021        7.947       28.399       15.694       15.446      806.510      246.299      238.574        0.127        0.065       34.576       15.286        0.195      343.770       20.116      866.204
08/16/2014  08:44:00      -46.113      -37.955       -1.683       26.533       26.928       19.036      704.000      725.116      362.360        0.268        0.090       59.724       18.495        0.096      343.681       19.965      866.201
08/16/2014  08:45:00      -80.035      -32.888       -9.793       14.537       16.624       10.108      211.323      276.359      102.178        0.409        0.029       86.528        4.258        0.002      343.491       19.639      866.199
08/16/2014  08:46:00      -60.580      -21.988       -2.310       27.797       30.490       15.217      772.683      929.654      231.553        0.305        0.097       64.447       13.163        0.042      343.548       19.736      866.199
08/16/2014  08:47:00      -36.820       -3.254        5.518       15.097       17.167       15.082      227.916      294.723      227.459        0.107        0.038       36.963       11.751        0.101      343.704       20.003      866.192
08/16/2014  08:48:00      -49.355        1.266       -0.689       19.480       13.398       10.684      379.472      179.513      114.139        0.156        0.034       49.371        8.047        0.027      343.633       19.880      866.193
08/16/2014  08:49:00      -65.486        8.986       -8.479       21.629       11.400       11.222      467.807      129.969      125.942        0.258        0.036       66.100        6.492        0.010      343.574       19.778      866.192
08/16/2014  08:50:00      -63.240       -9.841       -7.625       15.437       24.435        9.762      238.288      597.049       95.297        0.254        0.047       64.001       11.775        0.034      343.609       19.841      866.184
08/16/2014  08:51:00      -63.554       -5.926       -6.777       18.914        9.056       13.868      357.752       82.012      192.334        0.238        0.032       63.829       14.280        0.050      343.668       19.941      866.179
08/16/2014  08:52:00      -58.177       31.540       -7.981       21.235       25.574       13.012      450.911      654.025      169.309        0.286        0.064       66.177        8.725        0.017      343.747       20.075      866.174
08/16/2014  08:53:00      -65.632       35.887       -7.467       14.775       12.450       10.829      218.307      155.012      117.274        0.307        0.025       74.802        8.603        0.013      343.826       20.211      866.168
08/16/2014  08:54:00      -61.410       15.977      -11.376       13.553       17.230       11.462      183.685      296.886      131.371        0.238        0.031       63.455       11.718        0.034      343.713       20.016      866.168
08/16/2014  08:55:00      -39.147        8.149       -5.743       15.765        7.399        8.487      248.548       54.742       72.033        0.100        0.019       39.986        8.792        0.048      343.767       20.110      866.155
08/16/2014  08:56:00      -68.182       18.083       -1.964       10.494        7.763        5.657      110.123       60.266       32.005        0.259        0.010       70.539        3.193        0.002      343.712       20.018      866.156
08/16/2014  08:57:00      -63.434        8.790        2.758       17.254       26.090       16.246      297.689      680.708      263.924        0.268        0.062       64.040       10.683        0.028      343.847       20.248      866.147
08/16/2014  08:58:00      -40.188       39.096        3.578       28.059       20.529       24.629      787.325      421.425      606.564        0.249        0.091       56.068       22.267        0.158      344.316       21.050      866.151
08/16/2014  08:59:00      -11.166       21.985       31.700       18.126       22.129       19.315      328.565      489.707      373.069        0.140        0.060       24.658       12.092        0.240      345.132       22.445      866.147
08/16/2014  09:00:00      -40.550       13.188       11.671       20.567       20.640       23.600      423.000      426.028      556.962        0.168        0.070       42.640       18.624        0.191      344.316       21.048      866.140
08/16/2014  09:01:00      -60.044      -21.853       -5.743       14.844       13.404       10.086      220.348      179.656      101.731        0.231        0.025       63.897        7.444        0.014      343.904       20.345      866.147
08/16/2014  09:02:00      -42.110       -6.878       -5.387        8.192       18.221        9.169       67.110      332.016       84.066        0.117        0.024       42.668        7.900        0.034      343.947       20.418      866.144
08/16/2014  09:03:00      -15.600        9.858        0.448       16.588       12.856       15.455      275.156      165.274      238.854        0.051        0.034       18.454       11.571        0.393      344.478       21.326      866.138
08/16/2014  09:04:00      -16.302       28.509       48.583       21.471       21.571       19.455      460.988      465.320      378.491        0.237        0.065       32.841       11.930        0.132      345.045       22.296      866.130
08/16/2014  09:05:00       19.305       17.218       54.111       30.451       24.003       14.470      927.238      576.136      209.380        0.265        0.086       25.868        8.242        0.102      345.131       22.443      866.128
08/16/2014  09:06:00        9.009       16.021       50.402       24.438       25.076       19.222      597.191      628.803      369.503        0.224        0.080       18.380       10.384        0.319      345.195       22.552      866.122
08/16/2014  09:07:00       -5.542       13.831       64.643       14.059       24.547       19.878      197.669      602.537      395.129        0.280        0.060       14.900       15.585        1.094      345.519       23.109      866.113
08/16/2014  09:08:00      -11.632       31.708       78.043       12.795       33.368       18.240      163.715     1113.440      332.684        0.442        0.080       33.775       21.071        0.389      345.455       22.997      866.108
08/16/2014  09:09:00        1.795       19.882       65.768       22.935       23.057       17.133      526.015      531.645      293.543        0.304        0.068       19.963       15.185        0.579      345.036       22.281      866.102
08/16/2014  09:10:00       62.553       18.066       20.294       25.502       23.966       28.122      650.347      574.392      790.826        0.333        0.101       65.110       20.619        0.100      344.296       21.015      866.097
08/16/2014  09:11:00       21.690        9.773       26.109       31.253       38.765       21.619      976.768     1502.701      467.366        0.210        0.147       23.790       16.915        0.506      344.675       21.661      866.094
08/16/2014  09:12:00      -26.186        1.733       -8.395       10.687       15.935       13.376      114.217      253.940      178.928        0.065        0.027       26.243       10.436        0.158      344.390       21.175      866.094
08/16/2014  09:13:00      -38.233       17.938        8.489       11.805       14.048       22.112      139.364      197.337      488.961        0.134        0.041       42.232       15.338        0.132      344.676       21.665      866.089
08/16/2014  09:14:00      -24.782       18.647       11.915       20.805       20.240       18.206      432.830      409.663      331.465        0.114        0.059       31.013       13.455        0.188      344.838       21.942      866.087
08/16/2014  09:15:00      -11.485      -15.886       26.633       16.244       20.525       18.456      263.870      421.294      340.612        0.106        0.051       19.603       14.389        0.539      345.299       22.730      866.086
08/16/2014  09:16:00       26.078       78.604       91.766       38.299       35.541       34.301     1466.821     1263.194     1176.532        0.959        0.195       82.817       27.603        0.111      344.930       22.100      866.075
08/16/2014  09:17:00       23.543      -21.536       28.232       26.385       50.662       28.007      696.144     2566.670      784.396        0.293        0.202       31.907       23.468        0.541      345.260       22.664      866.065
08/16/2014  09:18:00       34.124      -92.356      -13.489       28.604       32.832       23.765      818.194     1077.968      564.776        0.617        0.123       98.458        6.850        0.005      344.769       21.824      866.051
08/16/2014  09:19:00       38.730      -10.839        2.670       29.535       34.815       37.485      872.307     1212.116     1405.088        0.256        0.174       40.218       24.834        0.381      345.189       22.542      866.039
08/16/2014  09:20:00        7.529       33.434       38.410       19.855       26.280       15.562      394.210      690.637      242.188        0.199        0.066       34.271       12.104        0.125      345.191       22.547      866.020
08/16/2014  09:21:00       66.879       63.623       44.432       40.853       31.313       23.508     1668.997      980.534      552.609        0.685        0.160       92.308       18.545        0.040      345.065       22.329      866.010
08/16/2014  09:22:00       82.394       44.551       37.849       36.345       23.027       33.785     1320.944      530.227     1141.455        0.660        0.150       93.667       28.353        0.092      344.731       21.757      866.008
08/16/2014  09:23:00       66.643       57.117       44.493       34.554       25.379       29.672     1193.997      644.080      880.438        0.620        0.136       87.771       15.652        0.032      345.029       22.268      865.994
08/16/2014  09:24:00       76.231       52.289       34.927       39.080       25.441       28.998     1527.237      647.261      840.882        0.639        0.151       92.441       17.555        0.036      344.837       21.939      865.988
08/16/2014  09:25:00       16.386       11.796       18.133       49.719       26.067       30.954     2472.028      679.491      958.146        0.242        0.205       20.190       17.570        0.757      345.303       22.738      865.985
08/16/2014  09:26:00       -9.110       -2.675       22.628       18.760       28.308       23.327      351.948      801.335      544.163        0.115        0.085        9.495       19.714        4.311      345.583       23.217      865.976
08/16/2014  09:27:00       -9.665        3.501       43.174       16.182       26.119       24.681      261.855      682.186      609.159        0.176        0.078       10.279       19.982        3.779      346.087       24.084      865.971
08/16/2014  09:28:00      -13.134       55.189       67.319       25.535       37.194       26.127      652.055     1383.369      682.632        0.523        0.136       56.730       22.311        0.155      345.619       23.277      865.974
08/16/2014  09:29:00       13.799       35.747       66.167       32.619       35.280       18.544     1063.985     1244.654      343.864        0.425        0.133       38.317       12.906        0.113      345.857       23.688      865.970
08/16/2014  09:30:00       19.601      -44.437       15.347       48.718       86.886       35.326     2373.426     7549.102     1247.958        0.688        0.559       48.568       45.352        0.872      345.265       22.672      865.976
08/16/2014  09:31:00       27.751     -108.922       17.893       37.374       53.568       38.330     1396.838     2869.538     1469.155        0.934        0.287      112.401       31.209        0.077      345.468       23.020      865.972
08/16/2014  09:32:00       19.884      -22.392       29.154       27.998       43.096       27.666      783.895     1857.297      765.408        0.258        0.170       29.946       21.968        0.538      345.895       23.753      865.973
08/16/2014  09:33:00       -2.808       41.515       52.736       33.838       41.848       28.253     1145.028     1751.275      798.256        0.410        0.185       41.609       25.661        0.380      345.930       23.813      865.980
08/16/2014  09:34:00      -13.809      -50.203       17.967       64.002       45.109       28.602     4096.258     2034.825      818.065        0.499        0.347       52.068       28.373        0.297      345.305       22.741      865.982
08/16/2014  09:35:00       26.772      -14.207       17.234       40.494       29.724       23.171     1639.786      883.504      536.877        0.214        0.153       30.308       23.009        0.576      345.652       23.336      865.980
08/16/2014  09:36:00      -26.955       10.858       19.329       35.819       23.183       28.445     1282.972      537.460      809.144        0.192        0.131       29.060       25.780        0.787      345.437       22.969      865.984
08/16/2014  09:37:00       42.834       67.226       48.910       36.452       35.116       31.650     1328.712     1233.140     1001.739        0.615        0.178       79.713       23.964        0.090      345.195       22.552      865.985
08/16/2014  09:38:00       45.023       58.299       31.889       21.907       18.967       21.000      479.915      359.742      441.003        0.386        0.064       73.660       10.682        0.021      344.972       22.172      865.984
08/16/2014  09:39:00       -4.500       29.460       53.044       19.415       29.766       17.533      376.956      886.016      307.405        0.264        0.079       29.802       16.128        0.293      346.018       23.964      865.981
08/16/2014  09:40:00        9.251       -7.507       49.315       27.207       79.240       42.739      740.198     6279.042     1826.582        0.571        0.442       11.913       49.426       17.212      346.113       24.127      865.970
08/16/2014  09:41:00       52.064       39.948       64.774       45.090       32.278       33.479     2033.113     1041.849     1120.874        0.635        0.210       65.624       20.580        0.098      345.724       23.459      865.977
08/16/2014  09:42:00       59.085       68.137        4.677       34.700       28.188       32.286     1204.118      794.567     1042.406        0.560        0.152       90.187       16.321        0.033      345.160       22.492      865.971
08/16/2014  09:43:00       37.741       80.794        1.209       32.499       50.424       28.211     1056.186     2542.582      795.846        0.617        0.220       89.174       28.346        0.101      345.491       23.060      865.957
08/16/2014  09:44:00       26.671       23.234       26.475       38.037       41.229       34.482     1446.849     1699.843     1189.030        0.314        0.217       35.371       26.065        0.543      346.032       23.989      865.957
08/16/2014  09:45:00       10.667       27.115       45.092       31.168       25.625       20.868      971.450      656.639      435.453        0.247        0.103       29.138       15.694        0.290      346.464       24.731      865.955
08/16/2014  09:46:00       -7.157        7.921       33.769       21.012       26.947       22.738      441.487      726.163      516.998        0.147        0.084       10.675       15.902        2.219      346.156       24.200      865.957
08/16/2014  09:47:00      -30.813      -23.364       42.114       39.298       56.451       35.504     1544.329     3186.681     1260.526        0.463        0.300       38.669       27.477        0.505      346.037       23.997      865.953
08/16/2014  09:48:00        6.362        9.208       38.242       30.418       34.650       20.865      925.284     1200.635      435.358        0.207        0.128       11.192       15.740        1.978      346.233       24.333      865.960
08/16/2014  09:49:00      -17.597       41.437        7.516       38.670       31.103       35.412     1495.367      967.426     1254.042        0.290        0.186       45.019       13.956        0.096      346.112       24.126      865.968
08/16/2014  09:50:00      -82.508       -4.676       -4.761       30.348       33.646       18.358      920.990     1132.076      337.014        0.462        0.120       82.640        9.731        0.014      345.389       22.883      865.971
08/16/2014  09:51:00      -18.602      -35.753       18.518       46.380       34.691       25.124     2151.117     1203.498      631.214        0.298        0.199       40.303       20.387        0.256      345.770       23.538      865.979
08/16/2014  09:52:00      -30.294      -29.223       15.023       37.138       34.251       21.483     1379.245     1173.135      461.501        0.251        0.151       42.092       22.239        0.279      346.164       24.216      865.978
08/16/2014  09:53:00      -32.989      -31.387        1.739       31.843       35.196       21.842     1013.958     1238.786      477.057        0.240        0.136       45.534       22.071        0.235      345.770       23.538      865.985
08/16/2014  09:54:00      -18.961       -4.520       22.542       20.149       14.340       13.671      405.973      205.624      186.883        0.084        0.040       19.492       11.311        0.337      346.194       24.266      865.970
08/16/2014  09:55:00      -22.724       -4.270        0.195       20.536       15.274       13.551      421.747      233.287      183.628        0.069        0.042       23.122        6.102        0.070      345.843       23.664      865.977
08/16/2014  09:56:00        6.964      -13.098       25.943       24.749       26.846       24.821      612.509      720.709      616.099        0.142        0.097       14.834       15.352        1.071      346.302       24.453      865.969
08/16/2014  09:57:00       -2.376       14.245        0.512       29.850       22.262       23.677      891.008      495.585      560.590        0.108        0.097       14.442       13.381        0.858      346.335       24.509      865.963
08/16/2014  09:58:00      -10.066       10.508        6.865       18.555       23.573       23.484      344.295      555.689      551.514        0.085        0.073       14.551       17.534        1.452      346.396       24.615      865.967
08/16/2014  09:59:00       -8.707       32.717       60.550       15.357       30.777       26.294      235.851      947.252      691.384        0.334        0.094       33.856       21.133        0.390      346.416       24.649      865.961
08/16/2014  10:00:00      -14.027      -55.243       -7.424       35.025       44.207       25.147     1226.757     1954.244      632.373        0.356        0.191       56.996       21.710        0.145      345.994       23.922      865.960
08/16/2014  10:01:00      -33.302        4.553        2.179       30.096       14.836       16.136      905.757      220.115      260.363        0.126        0.069       33.611       10.984        0.107      346.026       23.978      865.950
08/16/2014  10:02:00      -13.719        1.835       18.577       16.099       15.006       20.927      259.177      225.182      437.940        0.073        0.046       13.841       10.391        0.564      346.960       25.586      865.952
08/16/2014  10:03:00        7.065      -10.167       39.159       21.648       45.813       26.638      468.615     2098.844      709.581        0.248        0.164       12.381       27.264        4.850      347.022       25.692      865.950
08/16/2014  10:04:00       -5.956       28.728       66.991       24.708       52.548       39.750      610.508     2761.329     1580.066        0.515        0.248       29.339       40.886        1.942      346.666       25.079      865.947
08/16/2014  10:05:00       64.770       52.555       69.977       56.969       56.675       42.964     3245.480     3212.043     1845.895        1.008        0.415       83.410       45.282        0.295      346.143       24.178      865.944
08/16/2014  10:06:00       10.915       64.308      107.478       43.162       68.529       41.659     1862.930     4696.232     1735.437        1.205        0.415       65.227       42.114        0.417      346.292       24.434      865.938
08/16/2014  10:07:00       25.740       11.629       75.095       38.549       47.478       35.634     1486.005     2254.190     1269.807        0.572        0.251       28.245       15.437        0.299      346.787       25.286      865.949
08/16/2014  10:08:00       28.740       29.751       68.442       40.813       39.756       37.601     1665.692     1580.517     1413.813        0.553        0.233       41.366       35.180        0.723      346.519       24.825      865.949
08/16/2014  10:09:00       40.219        2.445       27.309       25.246       36.794       31.571      637.364     1353.820      996.701        0.268        0.149       40.294       16.915        0.176      346.121       24.142      865.933
08/16/2014  10:10:00       40.315       31.484       16.702       27.544       35.948       42.576      758.678     1292.277     1812.758        0.338        0.193       51.152       16.821        0.108      346.161       24.211      865.926
08/16/2014  10:11:00       27.298       32.065       40.075       32.076       33.058       27.177     1028.871     1092.810      738.587        0.312        0.143       42.111       15.720        0.139      346.494       24.781      865.912
08/16/2014  10:12:00       67.716       78.984       -3.905       32.719       34.739       33.954     1070.545     1206.796     1152.847        0.713        0.172      104.038       26.722        0.066      346.072       24.058      865.910
08/16/2014  10:13:00       66.866       54.052       37.902       42.452       26.710       25.192     1802.179      713.424      634.638        0.599        0.158       85.981       19.271        0.050      346.195       24.268      865.903
08/16/2014  10:14:00       33.566       41.337       45.247       37.417       25.271       23.258     1400.038      638.616      540.930        0.373        0.129       53.249       18.877        0.126      346.232       24.333      865.900
08/16/2014  10:15:00        1.372       15.754       33.438       15.066       28.811       17.393      226.985      830.094      302.529        0.136        0.068       15.814       10.227        0.418      346.624       25.007      865.907
08/16/2014  10:16:00      -26.833       -2.175       11.725       29.423       16.601       20.663      865.700      275.593      426.949        0.121        0.078       26.921       16.742        0.387      346.646       25.044      865.901
08/16/2014  10:17:00      -32.356       15.359        9.102       30.210       22.673       25.261      912.616      514.049      638.111        0.171        0.103       35.816       19.728        0.303      346.848       25.391      865.903
08/16/2014  10:18:00      -54.000       34.265        9.584       44.749       23.349       31.743     2002.440      545.173     1007.589        0.387        0.178       63.954       23.075        0.130      346.648       25.047      865.888
08/16/2014  10:19:00      -39.097       -8.257       -2.353       27.559       37.079       16.837      759.477     1374.870      283.475        0.201        0.121       39.959       13.250        0.110      346.122       24.142      865.886
08/16/2014  10:20:00      -23.972      -45.926        9.859       40.906       26.501       26.518     1673.283      702.327      703.194        0.293        0.154       51.807       25.909        0.250      346.196       24.270      865.877
08/16/2014  10:21:00      -21.173      -31.612        1.896       22.770       12.366       14.124      518.485      152.926      199.500        0.116        0.044       38.047       13.988        0.135      346.034       23.992      865.868
08/16/2014  10:22:00       -4.147      -28.613       15.360       19.026       18.556       20.700      361.990      344.312      428.494        0.110        0.057       28.912       14.483        0.251      346.556       24.888      865.859
08/16/2014  10:23:00      -24.529      -63.607       -0.375       19.823       24.492       14.365      392.956      599.863      206.360        0.292        0.060       68.173       11.028        0.026      346.062       24.040      865.858
08/16/2014  10:24:00      -55.169      -31.304        7.031       41.683       27.319       22.154     1737.457      746.302      490.778        0.352        0.149       63.432       20.194        0.101      346.438       24.686      865.848
08/16/2014  10:25:00      -57.789      -29.677        9.173       31.167       20.697       19.317      971.388      428.351      373.132        0.304        0.089       64.964       14.961        0.053      346.388       24.599      865.844
08/16/2014  10:26:00      -31.117       -7.860       -0.698       18.380       19.922       15.827      337.843      396.906      250.490        0.101        0.049       32.094       12.341        0.148      346.582       24.934      865.838
08/16/2014  10:27:00      -13.328        4.061       -1.150       10.963       15.946       11.847      120.185      254.268      140.357        0.036        0.026       13.933        8.410        0.364      346.634       25.023      865.837
08/16/2014  10:28:00      -20.427        4.795        3.057       18.109       10.481       13.755      327.951      109.843      189.205        0.054        0.031       20.983       10.995        0.275      346.827       25.356      865.841
08/16/2014  10:29:00       18.106       29.544       65.301       47.530       38.375       35.395     2259.063     1472.667     1252.814        0.522        0.249       34.651       32.958        0.905      347.303       26.175      865.840
08/16/2014  10:30:00      111.896       71.069       21.384       46.900       36.762       39.551     2199.623     1351.443     1564.272        1.157        0.256      132.557       20.777        0.025      346.440       24.689      865.846
08/16/2014  10:31:00       42.194       27.990       13.280       38.296       27.705       33.016     1466.577      767.580     1090.089        0.303        0.166       50.634       15.354        0.092      346.842       25.380      865.840
08/16/2014  10:32:00      107.708       71.995       31.811       64.257       43.192       40.665     4128.984     1865.573     1653.677        1.272        0.382      129.554       29.413        0.052      346.548       24.875      865.834
08/16/2014  10:33:00       82.929       73.061       12.157       55.484       42.428       36.977     3078.469     1800.155     1367.299        0.930        0.312      110.522       28.911        0.068      346.797       25.304      865.827
08/16/2014  10:34:00       75.097       78.542        6.100       57.528       49.430       41.707     3309.447     2443.291     1739.487        0.967        0.375      108.667       27.803        0.065      346.774       25.264      865.820
08/16/2014  10:35:00      101.134       72.578       19.676       48.448       40.745       35.904     2347.170     1660.185     1289.126        1.059        0.265      124.481       27.228        0.048      346.828       25.357      865.819
08/16/2014  10:36:00       76.139       84.312       37.797       42.564       34.673       41.972     1811.734     1202.183     1761.664        0.955        0.239      113.603       16.002        0.020      346.974       25.608      865.808
08/16/2014  10:37:00      111.486       78.794       38.493       66.382       47.421       56.466     4406.509     2248.704     3188.417        1.498        0.492      136.520       22.654        0.028      346.609       24.979      865.810
08/16/2014  10:38:00       66.478       76.213       20.822       39.325       30.639       44.707     1546.483      938.747     1998.728        0.757        0.224      101.132       30.866        0.093      346.819       25.342      865.808
08/16/2014  10:39:00       51.788       35.595        6.972       46.346       28.837       26.002     2147.959      831.546      676.097        0.383        0.183       62.841       13.251        0.044      346.989       25.634      865.805
08/16/2014  10:40:00       47.435       49.591        3.131       26.315       23.307       27.025      692.493      543.201      730.328        0.334        0.098       68.625       16.643        0.059      346.838       25.374      865.799
08/16/2014  10:41:00       -8.923       34.525       10.094       17.756       22.598       24.813      315.270      510.681      615.703        0.141        0.072       35.660       18.131        0.259      347.361       26.275      865.791
08/16/2014  10:42:00       22.464       38.307       16.155       28.433       30.022       29.204      808.445      901.293      852.898        0.240        0.128       44.408       22.363        0.254      347.463       26.450      865.788
08/16/2014  10:43:00       -5.669        1.016       32.724       23.838       22.439       14.271      568.268      503.514      203.656        0.119        0.064        5.759        7.749        1.810      347.888       27.184      865.766
08/16/2014  10:44:00        7.286       10.701        4.309       33.662       26.759       22.653     1133.152      716.034      513.160        0.127        0.118       12.946       13.699        1.120      347.342       26.243      865.750
08/16/2014  10:45:00      -23.278        1.969        7.664       21.344       16.949       18.060      455.579      287.277      326.147        0.084        0.053       23.361       13.134        0.316      347.377       26.302      865.732
08/16/2014  10:46:00        9.778       13.143       72.625       40.300       36.121       23.256     1624.086     1304.719      540.852        0.451        0.173       16.381       20.025        1.494      348.127       27.598      865.722
08/16/2014  10:47:00      103.994      116.727       69.084       68.105       49.610       57.587     4638.298     2461.160     3316.225        1.981        0.521      156.333       46.328        0.088      346.973       25.605      865.706
08/16/2014  10:48:00       97.586       62.105       29.472       58.173       54.049       41.352     3384.101     2921.348     1710.017        1.113        0.401      115.672       26.839        0.054      347.067       25.768      865.698
08/16/2014  10:49:00       75.942     -122.810       -9.605       78.233       58.347       37.965     6120.411     3404.359     1441.346        1.595        0.548      144.394       39.806        0.076      347.070       25.773      865.693
08/16/2014  10:50:00       74.750      -90.348       36.707       61.237       88.114       52.499     3749.988     7764.056     2756.129        1.468        0.714      117.262       58.999        0.253      347.177       25.957      865.680
08/16/2014  10:51:00       54.166        5.071       41.322       39.224       31.230       22.514     1538.541      975.292      506.872        0.384        0.151       54.403        8.503        0.024      347.043       25.728      865.692
08/16/2014  10:52:00       12.665       36.193       81.582       42.051       89.469       45.965     1768.247     8004.675     2112.739        1.000        0.594       38.346       52.053        1.843      347.676       26.818      865.677
08/16/2014  10:53:00       61.414     -103.137       18.104       58.076       83.819       56.461     3372.774     7025.623     3187.840        1.416        0.679      120.037       62.198        0.268      347.400       26.341      865.672
08/16/2014  10:54:00       46.898      -10.136       40.815       42.141       70.079       55.531     1775.847     4911.032     3083.697        0.687        0.489       47.981       50.466        1.106      347.808       27.045      865.677
08/16/2014  10:55:00       32.694      -24.427       29.494       54.203       87.845       49.363     2937.926     7716.747     2436.669        0.781        0.655       40.811       63.431        2.416      347.334       26.229      865.674
08/16/2014  10:56:00       14.282       32.883       57.392       27.582       53.960       28.929      760.745     2911.658      836.863        0.454        0.225       35.851       33.255        0.860      347.476       26.473      865.676
08/16/2014  10:57:00       89.614       68.928       27.520       87.784       54.149       48.888     7706.050     2932.081     2390.060        1.328        0.651      113.056       52.477        0.215      347.258       26.097      865.663
08/16/2014  10:58:00       44.157       86.306       14.750       50.486       63.928       46.050     2548.875     4086.775     2120.565        0.918        0.438       96.946       38.066        0.154      347.458       26.442      865.661
08/16/2014  10:59:00      113.513       95.394       15.581       94.539       59.361       47.738     8937.677     3523.778     2278.912        1.848        0.737      148.274       39.225        0.070      347.157       25.921      865.650
08/16/2014  11:00:00      164.778      105.166        1.269       59.458       44.798       36.941     3535.286     2006.818     1364.623        2.256        0.345      195.478       25.733        0.017      346.839       25.372      865.640
08/16/2014  11:01:00       17.278      105.924       -7.295       45.736       57.948       47.917     2091.770     3357.951     2296.056        0.966        0.387      107.324       36.409        0.115      347.100       25.823      865.625
08/16/2014  11:02:00      -17.762       86.637       -4.828       27.187       54.991       33.906      739.156     3024.028     1149.599        0.638        0.246       88.439       23.207        0.069      347.262       26.104      865.615
08/16/2014  11:03:00       -8.920       -7.255       21.084       25.217       26.013       19.426      635.901      676.697      377.371        0.113        0.084       11.497       16.306        2.012      347.808       27.047      865.610
08/16/2014  11:04:00      -58.538      -38.302       -7.369       30.670       28.515       25.576      940.661      813.109      654.153        0.368        0.120       69.955       11.191        0.026      347.080       25.790      865.593
08/16/2014  11:05:00        5.811       34.100       29.971       32.549       32.398       39.956     1059.438     1049.618     1596.504        0.290        0.185       34.591       11.982        0.120      347.982       27.347      865.588
08/16/2014  11:06:00       23.278        5.171       40.925       47.950       54.065       33.383     2299.216     2923.013     1114.406        0.429        0.317       23.846       33.095        1.926      348.119       27.584      865.568
08/16/2014  11:07:00       61.856      -58.906      -11.931       38.547       71.690       33.333     1485.856     5139.458     1111.112        0.759        0.387       85.417       32.634        0.146      347.449       26.426      865.577
08/16/2014  11:08:00       -8.720       -1.837       21.069       29.081       24.184       28.669      845.708      584.889      821.902        0.139        0.113        8.911       18.024        4.091      348.012       27.398      865.563
08/16/2014  11:09:00       18.415      -30.829       40.951       47.560       71.189       40.755     2261.994     5067.840     1661.003        0.598        0.450       35.910       43.408        1.461      347.977       27.339      865.564
08/16/2014  11:10:00       45.822      -49.202       42.822       40.330       71.887       44.448     1626.546     5167.730     1975.589        0.756        0.438       67.235       50.610        0.567      347.356       26.266      865.554
08/16/2014  11:11:00       -2.954       -2.165       28.928       22.243       22.990       19.335      494.769      528.541      373.856        0.112        0.070        3.662       21.182       33.459      348.067       27.495      865.550
08/16/2014  11:12:00      -47.309      -57.700       10.135       65.395       45.358       30.413     4276.552     2057.389      924.929        0.646        0.363       74.615       26.806        0.129      347.666       26.801      865.543
08/16/2014  11:13:00     -158.298      -95.354      -10.330       52.509       53.783       31.754     2757.176     2892.601     1008.334        2.046        0.333      184.798       31.481        0.029      347.271       26.118      865.530
08/16/2014  11:14:00      -59.648      -64.948        7.138       55.197       49.710       34.196     3046.666     2471.104     1169.384        0.726        0.334       88.182       34.257        0.151      347.475       26.472      865.534
08/16/2014  11:15:00      -85.087       -2.793       11.390       56.162       44.847       41.068     3154.118     2011.236     1686.596        0.711        0.343       85.133       39.280        0.213      347.464       26.452      865.530
08/16/2014  11:16:00      -33.300       10.571        6.112       35.622       15.570       25.951     1268.917      242.421      673.442        0.172        0.109       34.937       21.071        0.364      347.709       26.876      865.523
08/16/2014  11:17:00     -107.539       20.847      -16.666       64.249       59.571       36.551     4127.978     3548.706     1335.981        1.064        0.451      109.541       25.054        0.052      347.365       26.281      865.508
08/16/2014  11:18:00      -88.212       43.772       -0.876       48.540       35.773       36.995     2356.175     1279.689     1368.612        0.735        0.250       98.475       29.089        0.087      347.408       26.357      865.498
08/16/2014  11:19:00      -88.966      103.555       -7.214       51.689       50.596       39.952     2671.767     2559.943     1596.182        1.276        0.341      136.524       34.148        0.063      347.552       26.605      865.465
08/16/2014  11:20:00      -68.822       92.327        4.560       47.529       46.494       34.956     2259.009     2161.663     1221.921        0.946        0.282      115.155       23.051        0.040      347.599       26.685      865.452
08/16/2014  11:21:00      -24.817       10.510       28.327       55.750       24.045       33.469     3108.080      578.172     1120.196        0.317        0.240       26.951       39.952        2.198      347.830       27.083      865.433
08/16/2014  11:22:00      -20.927      -27.650       12.065       80.696       44.060       36.115     6511.842     1941.266     1304.280        0.555        0.488       34.677       41.088        1.404      347.559       26.618      865.410
08/16/2014  11:23:00       -2.837      -43.796       -7.264       41.961       28.208       26.396     1760.719      795.702      696.728        0.262        0.163       43.888       13.815        0.099      347.585       26.660      865.389
08/16/2014  11:24:00      -31.471      -46.018        2.446       58.115       35.273       25.956     3377.315     1244.172      673.735        0.420        0.265       55.750       24.372        0.191      347.574       26.642      865.375
08/16/2014  11:25:00      -55.885      -44.266        7.948       46.556       30.305       25.661     2167.464      918.406      658.478        0.444        0.187       71.293       14.790        0.043      347.468       26.461      865.360
08/16/2014  11:26:00      -49.589      -83.945       -4.269       26.949       30.223       19.733      726.249      913.453      389.399        0.578        0.101       97.498       10.320        0.011      347.209       26.012      865.346
08/16/2014  11:27:00      -37.843     -126.810        1.374       30.902       58.405       26.476      954.913     3411.201      700.956        1.129        0.253      132.336       28.267        0.046      347.356       26.264      865.332
08/16/2014  11:28:00        2.885     -118.169       10.223       37.360       47.149       26.237     1395.765     2223.010      688.394        0.919        0.215      118.204       24.109        0.042      347.287       26.146      865.308
08/16/2014  11:29:00      -95.871      -28.550       -6.548       49.905       28.765       27.532     2490.516      827.417      758.023        0.706        0.204      100.031       21.123        0.045      347.424       26.383      865.293
08/16/2014  11:30:00      -93.449       11.493        1.509       42.045       44.300       22.855     1767.764     1962.527      522.371        0.656        0.213       94.153       14.310        0.023      347.547       26.596      865.279
08/16/2014  11:31:00      -76.049        2.473        6.582       21.851       31.583       18.236      477.478      997.513      332.561        0.382        0.090       76.089       17.597        0.053      347.409       26.357      865.273
08/16/2014  11:32:00      -61.893       -7.031        9.073       37.619       36.524       28.172     1415.210     1334.012      793.636        0.375        0.177       62.291       30.923        0.246      347.788       27.012      865.254
08/16/2014  11:33:00       13.786       25.541       26.963       34.983       26.463       25.342     1223.821      700.266      642.227        0.207        0.128       29.024       12.255        0.178      348.592       28.401      865.252
08/16/2014  11:34:00       74.438       61.860       10.167       59.263       40.828       34.925     3512.151     1666.939     1219.748        0.793        0.320       96.786       25.017        0.067      348.035       27.440      865.245
08/16/2014  11:35:00       69.461       53.237       36.977       57.395       53.308       50.192     3294.231     2841.744     2519.287        0.884        0.433       87.516       33.855        0.150      348.141       27.621      865.229
08/16/2014  11:36:00       42.902       49.438       69.383       38.255       36.354       29.172     1463.417     1321.637      851.005        0.637        0.182       65.458       23.267        0.126      348.294       27.885      865.219
08/16/2014  11:37:00       -4.115       -9.468       12.640       34.948       65.853       42.197     1221.347     4336.584     1780.583        0.380        0.367       10.324       41.153       15.889      348.507       28.254      865.211
08/16/2014  11:38:00      -15.312       36.446       66.508       22.644       43.080       34.110      512.764     1855.916     1163.495        0.476        0.177       39.532       32.227        0.665      349.179       29.419      865.201
08/16/2014  11:39:00       43.246       86.011       86.069       90.854       48.943       48.505     8254.375     2395.433     2352.760        1.484        0.650       96.272       54.963        0.326      348.258       27.823      865.194
08/16/2014  11:40:00       68.863       66.205       51.399       67.302       71.359       51.095     4529.521     5092.088     2610.687        1.200        0.612       95.526       33.414        0.122      348.330       27.947      865.173
08/16/2014  11:41:00       86.120      -67.369       13.782       72.099      127.514       51.053     5198.335    16259.700     2606.398        1.810        1.203      109.340       48.326        0.195      348.117       27.578      865.188
08/16/2014  11:42:00       61.913     -128.400       -7.254       40.420       62.215       29.609     1633.797     3870.710      876.715        1.338        0.319      142.547       24.852        0.030      347.436       26.404      865.193
08/16/2014  11:43:00       22.926       45.301       75.690       40.586       46.510       32.773     1647.188     2163.146     1074.101        0.659        0.244       50.772       33.208        0.428      348.244       27.798      865.177
08/16/2014  11:44:00       20.738       11.468       48.046       43.631       55.714       31.660     1903.667     3104.043     1002.325        0.444        0.301       23.698       32.279        1.855      348.150       27.636      865.162
08/16/2014  11:45:00       62.439      -57.904       36.303       60.172       69.612       41.303     3620.659     4845.843     1705.925        0.937        0.509       85.156       40.492        0.226      348.092       27.537      865.144
08/16/2014  11:46:00       40.151        1.222       24.607       35.466       44.815       36.315     1257.806     2008.397     1318.772        0.340        0.229       40.170       19.383        0.233      347.863       27.140      865.148
08/16/2014  11:47:00        9.299       -2.526        5.221       34.465       31.147       29.259     1187.835      970.157      856.082        0.157        0.151        9.636       22.586        5.494      347.789       27.014      865.119
08/16/2014  11:48:00      -62.068      -42.792        1.752       31.979       26.918       16.377     1022.629      724.576      268.199        0.385        0.101       75.389       11.757        0.024      347.758       26.959      865.092
08/16/2014  11:49:00        7.954      -46.088       14.142       36.634       35.812       27.597     1342.020     1282.493      761.607        0.289        0.169       46.769       16.322        0.122      348.327       27.942      865.082
08/16/2014  11:50:00      -22.639      -13.976       10.711       30.215       19.430       23.027      912.971      377.522      530.251        0.132        0.091       26.605       15.567        0.342      348.580       28.381      865.067
08/16/2014  11:51:00      -78.459        0.056        7.847       39.444       48.121       29.900     1555.866     2315.644      894.004        0.549        0.238       78.459       24.146        0.095      348.008       27.392      865.064
08/16/2014  11:52:00      -57.012       -2.849       -2.529       37.628       44.821       28.957     1415.871     2008.929      838.486        0.376        0.213       57.083       25.594        0.201      348.083       27.522      865.058
08/16/2014  11:53:00      -19.122       -8.107       21.651       35.581       34.803       28.897     1266.030     1211.283      835.055        0.211        0.166       20.769       29.422        2.007      348.746       28.668      865.055
08/16/2014  11:54:00      -25.641       -6.671        7.585       41.508       28.384       21.951     1722.942      805.634      481.825        0.188        0.151       26.494       17.365        0.430      348.548       28.325      865.053
08/16/2014  11:55:00      -66.141      -46.085        8.180       43.308       33.113       28.284     1875.577     1096.485      799.966        0.517        0.189       80.613       26.639        0.109      347.924       27.246      865.068
08/16/2014  11:56:00       23.632      -45.623       -1.619       91.151       92.774       25.098     8308.480     8607.085      629.919        1.009        0.877       51.381       37.126        0.522      347.895       27.195      865.069
08/16/2014  11:57:00       69.740      -16.305       36.573       42.532       53.267       42.513     1809.012     2837.326     1807.380        0.646        0.323       71.621       35.485        0.245      348.286       27.871      865.068
08/16/2014  11:58:00       62.516       90.017       82.279       49.300       47.942       61.971     2430.443     2298.436     3840.381        1.367        0.428      109.596       42.612        0.151      347.851       27.119      865.066
08/16/2014  11:59:00      -54.802       -4.503      -23.175       48.768       44.945       19.509     2378.365     2020.016      380.619        0.417        0.239       54.987       13.171        0.057      347.706       26.869      865.051
08/16/2014  12:00:00      -39.694       14.020       22.060       60.875       31.698       23.185     3705.818     1004.765      537.546        0.375        0.262       42.097       29.898        0.504      348.333       27.954      865.016
08/16/2014  12:01:00      -40.295       41.000       12.014       50.671       47.145       30.908     2567.553     2222.676      955.306        0.460        0.287       57.486       32.624        0.322      348.695       28.581      864.992
08/16/2014  12:02:00      -60.919       88.067      -15.298       40.314       71.197       33.580     1625.187     5068.982     1127.583        0.976        0.391      107.084       12.082        0.013      347.978       27.341      864.975
08/16/2014  12:03:00      -33.395       55.408        6.868       32.404       54.610       31.521     1049.993     2982.219      993.596        0.463        0.251       64.694       33.639        0.270      348.682       28.558      864.960
08/16/2014  12:04:00       -4.018       11.987       26.961       30.289       21.931       17.626      917.437      480.969      310.676        0.130        0.085       12.643       16.547        1.713      349.297       29.624      864.953
08/16/2014  12:05:00       26.557       58.456       81.817       51.469       57.807       48.123     2649.020     3341.646     2315.796        0.956        0.415       64.206       46.999        0.536      348.892       28.922      864.931
08/16/2014  12:06:00       73.596      -25.297       42.347       64.225       87.161       61.844     4124.864     7597.062     3824.654        1.169        0.777       77.822       69.253        0.792      348.306       27.906      864.916
08/16/2014  12:07:00       63.764       24.265       71.479       99.364       53.295       40.895     9873.137     2840.373     1672.382        1.207        0.719       68.224       37.894        0.309      348.595       28.405      864.896
08/16/2014  12:08:00      -11.867       -5.798       58.900       29.132       75.401       41.232      848.656     5685.348     1700.118        0.594        0.412       13.208       48.121       13.274      348.996       29.100      864.891
08/16/2014  12:09:00        1.981       -6.100       32.901       23.203       34.866       30.685      538.366     1215.647      941.585        0.191        0.135        6.414       25.923       16.335      348.963       29.043      864.876
08/16/2014  12:10:00       -1.535       10.103       45.700       20.084       23.452       19.983      403.369      549.978      399.327        0.177        0.068       10.219       13.602        1.772      349.674       30.277      864.857
08/16/2014  12:11:00       32.154      -47.714       23.049       34.432       52.336       37.382     1185.548     2739.023     1397.402        0.458        0.266       57.537       26.226        0.208      348.648       28.498      864.844
08/16/2014  12:12:00       38.479       -4.627       26.900       43.627       49.010       32.347     1903.342     2401.942     1046.346        0.379        0.268       38.756       35.773        0.852      348.789       28.742      864.850
08/16/2014  12:13:00       84.798       -7.719       46.359       75.116       61.742       56.755     5642.355     3812.111     3221.126        1.103        0.634       85.148       47.444        0.310      348.652       28.505      864.849
08/16/2014  12:14:00       46.926       59.804       38.891       53.572       41.297       40.305     2869.939     1705.402     1624.453        0.674        0.310       76.017       21.088        0.077      348.349       27.980      864.836
08/16/2014  12:15:00       41.376       64.995       17.768       25.663       41.895       35.261      658.565     1755.218     1243.332        0.495        0.183       77.048       30.027        0.152      348.445       28.147      864.804
08/16/2014  12:16:00       18.391      -28.532       35.323       49.059       46.936       46.951     2406.830     2202.990     2204.379        0.461        0.341       33.946       31.041        0.836      348.863       28.871      864.800
08/16/2014  12:17:00       24.294      -89.614       17.666       46.764       64.092       34.941     2186.888     4107.770     1220.901        0.822        0.376       92.848       24.156        0.068      348.618       28.445      864.797
08/16/2014  12:18:00        1.329     -116.572       18.497       44.839       55.327       34.979     2010.508     3061.096     1223.517        1.011        0.315      116.579       22.561        0.037      348.602       28.418      864.790
08/16/2014  12:19:00      -11.828      -98.542        3.820       27.701       62.838       33.861      767.362     3948.580     1146.581        0.786        0.293       99.249       25.046        0.064      348.782       28.729      864.779
08/16/2014  12:20:00        0.703       18.889       59.542       20.538       39.145       33.702      421.793     1532.301     1135.853        0.350        0.154       18.902       27.150        2.063      348.874       28.890      864.771
08/16/2014  12:21:00       27.810       37.238       20.413       21.564       24.919       25.467      465.018      620.977      648.586        0.216        0.087       46.477       17.676        0.145      348.281       27.862      864.756
08/16/2014  12:22:00      -62.675      -14.908       11.366       51.794       24.134       24.543     2682.664      582.463      602.381        0.407        0.193       64.424       27.332        0.180      348.587       28.393      864.727
08/16/2014  12:23:00      -14.845      -10.701       13.345       18.154       17.077       18.526      329.579      291.610      343.220        0.074        0.048       18.299       15.343        0.703      349.163       29.390      864.715
08/16/2014  12:24:00       51.249       35.241        2.496       19.953       17.793       27.721      398.106      316.575      768.434        0.268        0.074       62.197       15.596        0.063      348.314       27.920      864.707
08/16/2014  12:25:00       20.030      -31.934        3.592       30.657       43.990       23.704      939.828     1935.157      561.898        0.243        0.172       37.696       20.439        0.294      348.793       28.748      864.693
08/16/2014  12:26:00      -50.697        1.883        0.256       23.857       19.162       19.575      569.179      367.194      383.174        0.195        0.066       50.732       10.592        0.044      348.674       28.544      864.689
08/16/2014  12:27:00       -7.339       -5.477       11.958       26.008       13.729       18.017      676.400      188.485      324.611        0.071        0.059        9.157       18.559        4.108      349.431       29.856      864.681
08/16/2014  12:28:00      -43.375      -45.950       -0.890       36.742       40.382       23.577     1349.995     1630.705      555.880        0.376        0.177       63.189       12.146        0.037      349.036       29.170      864.659
08/16/2014  12:29:00      -40.698       -9.476       -4.212       41.988       28.904       24.255     1763.018      835.447      588.286        0.247        0.159       41.787        6.771        0.026      348.791       28.745      864.652
08/16/2014  12:30:00      -41.542       -8.317       25.163       24.411       17.651       18.235      595.898      311.566      332.531        0.183        0.062       42.366       13.395        0.100      349.259       29.556      864.626
08/16/2014  12:31:00      -57.382       -4.440       -5.675       44.849       91.951       29.555     2011.402     8455.036      873.474        0.734        0.567       57.553       24.954        0.188      349.013       29.130      864.612
08/16/2014  12:32:00     -114.254      -92.743       -2.259       77.753       49.189       39.253     6045.583     2419.606     1540.765        1.583        0.500      147.157       42.391        0.083      348.773       28.712      864.612
08/16/2014  12:33:00     -100.292     -207.726       -6.374       63.651       77.030       33.389     4051.496     5933.622     1114.849        3.217        0.555      230.670       28.676        0.015      348.272       27.843      864.586
08/16/2014  12:34:00     -148.594     -215.281       -4.459       74.014       99.195       43.500     5478.098     9839.692     1892.292        4.282        0.861      261.584       46.966        0.032      348.341       27.962      864.577
08/16/2014  12:35:00     -167.623     -133.694        1.410      121.021       94.345       50.342    14646.074     8900.943     2534.355        3.602        1.304      214.410       58.943        0.076      348.681       28.551      864.564
08/16/2014  12:36:00     -112.978     -109.653        7.437       85.761       77.406       50.288     7354.901     5991.699     2528.903        2.036        0.794      157.442       51.831        0.108      348.601       28.415      864.567
08/16/2014  12:37:00     -108.718     -106.192        0.621       84.779       50.896       36.549     7187.534     2590.405     1335.858        1.710        0.556      151.975       46.559        0.094      348.428       28.117      864.554
08/16/2014  12:38:00     -167.955     -104.943       -8.954       80.071       62.451       39.161     6411.305     3900.169     1533.609        2.557        0.592      198.045       38.585        0.038      348.500       28.240      864.551
08/16/2014  12:39:00     -131.854      -30.424       -1.268       43.090       51.067       26.993     1856.753     2607.859      728.629        1.175        0.260      135.319       21.862        0.026      348.374       28.023      864.540
08/16/2014  12:40:00     -141.020      -25.214      -10.118       33.855       22.244       18.798     1146.170      494.807      353.377        1.131        0.100      143.256       18.986        0.018      348.267       27.838      864.541
08/16/2014  12:41:00      -65.929       20.755       12.696       41.435       22.793       24.015     1716.831      519.537      576.704        0.388        0.141       69.119       25.727        0.139      348.880       28.899      864.529
08/16/2014  12:42:00      -88.434       23.533       -6.981       34.325       26.360       18.270     1178.187      694.842      333.777        0.531        0.110       91.512       11.390        0.015      348.580       28.380      864.526
08/16/2014  12:43:00     -110.698     -154.017       -9.309       60.944       67.001       38.376     3714.147     4489.098     1472.682        2.287        0.484      189.672       33.310        0.031      348.685       28.560      864.516
08/16/2014  12:44:00     -162.677     -132.558       -4.994       95.915       90.726       47.591     9199.599     8231.178     2264.857        3.187        0.985      209.847       39.207        0.035      348.634       28.469      864.496
08/16/2014  12:45:00     -175.449     -123.789      -14.081       97.462       63.035       42.906     9498.747     3973.408     1840.956        3.081        0.766      214.723       29.176        0.018      348.593       28.397      864.492
08/16/2014  12:46:00     -126.729      -64.801      -11.043       74.925       34.512       24.325     5613.708     1191.051      591.704        1.389        0.370      142.336       30.764        0.047      348.376       28.026      864.485
08/16/2014  12:47:00      -68.420      -66.154      -18.194       39.961       43.220       30.084     1596.906     1867.945      905.036        0.688        0.218       95.172       21.950        0.053      348.568       28.360      864.478
08/16/2014  12:48:00      -77.404     -131.120        0.964       79.661       62.126       40.946     6345.861     3859.666     1676.606        1.753        0.594      152.263       36.374        0.057      348.685       28.561      864.466
08/16/2014  12:49:00      -63.578     -139.523        5.042       61.313       48.071       44.581     3759.296     2310.829     1987.509        1.579        0.403      153.326       28.673        0.035      348.456       28.166      864.473
08/16/2014  12:50:00       -8.679      -63.468       -4.477       61.687       76.767       45.109     3805.322     5893.115     2034.804        0.793        0.587       64.059       26.410        0.170      348.790       28.742      864.436
08/16/2014  12:51:00       46.397      -61.149       29.980       81.463      111.264       54.307     6636.209    12379.789     2949.242        1.437        1.098       76.759       70.719        0.849      349.114       29.303      864.411
08/16/2014  12:52:00       71.715     -171.829      -17.509      114.046       92.726       58.485    13006.526     8598.105     3420.455        2.999        1.251      186.194       62.984        0.114      348.797       28.753      864.396
08/16/2014  12:53:00       27.606     -130.346      -44.868       56.145       46.021       36.018     3152.280     2117.950     1297.312        1.317        0.328      133.237       17.550        0.017      348.884       28.906      864.418
08/16/2014  12:54:00     -117.827      -96.190        3.822      116.185       70.503       51.229    13498.963     4970.617     2624.454        2.212        1.055      152.105       58.438        0.148      348.596       28.405      864.412
08/16/2014  12:55:00       10.204      -40.688       12.907       54.293       95.707       30.059     2947.682     9159.745      903.559        0.747        0.651       41.948       27.993        0.445      348.737       28.651      864.398
08/16/2014  12:56:00      -95.166     -168.866       -1.041       75.610       72.493       33.678     5716.892     5255.246     1134.216        2.484        0.605      193.836       34.224        0.031      348.440       28.136      864.359
08/16/2014  12:57:00     -118.668     -193.955        6.243      103.723       77.061       53.155    10758.420     5938.326     2825.460        3.563        0.976      227.378       52.840        0.054      348.499       28.236      864.354
08/16/2014  12:58:00     -163.835     -141.224        7.306      117.055       92.828       40.695    13701.893     8617.022     1656.099        3.540        1.199      216.301       36.249        0.028      348.719       28.618      864.358
08/16/2014  12:59:00      -47.063      -67.275       11.222       63.471       61.442       40.678     4028.538     3775.081     1654.685        0.816        0.473       82.103       36.972        0.203      348.777       28.720      864.359
08/16/2014  13:00:00      -47.090      -96.040       17.653       75.044       57.661       42.838     5631.651     3324.803     1835.099        1.127        0.540      106.964       46.347        0.188      348.662       28.522      864.347
08/16/2014  13:01:00      -70.019      -87.710        0.253       64.150       75.980       26.474     4115.277     5772.929      700.881        1.159        0.529      112.231       25.722        0.053      348.509       28.256      864.340
08/16/2014  13:02:00     -123.096      -58.185       13.866      101.593      112.121       50.892    10321.121    12571.025     2590.022        2.210        1.274      136.155       50.614        0.138      349.107       29.291      864.321
08/16/2014  13:03:00     -217.333      -90.519       -5.626       88.729       71.527       43.028     7872.865     5116.070     1851.384        3.515        0.742      235.430       41.727        0.031      348.633       28.469      864.334
08/16/2014  13:04:00     -118.814      -54.978        3.754       70.496       45.459       29.041     4969.625     2066.531      843.400        1.251        0.394      130.917       30.186        0.053      348.848       28.845      864.345
08/16/2014  13:05:00     -172.209      -59.518      -26.869       52.283       49.719       31.573     2733.505     2471.958      996.871        2.006        0.310      182.205       25.872        0.020      348.676       28.544      864.329
08/16/2014  13:06:00     -113.222      -30.964        1.298       65.887       49.908       32.662     4341.106     2490.791     1066.776        1.084        0.395      117.380       40.810        0.121      348.819       28.795      864.317
08/16/2014  13:07:00       -8.883      136.390        2.993       33.075       60.430       36.371     1093.958     3651.749     1322.833        1.238        0.303      136.679       29.370        0.046      349.104       29.287      864.292
08/16/2014  13:08:00       -3.621      123.664        3.921       31.461       68.164       39.689      989.797     4646.315     1575.249        1.126        0.361      123.717       40.200        0.106      349.077       29.240      864.275
08/16/2014  13:09:00        4.621      105.601       -2.070       33.091       49.043       34.042     1095.035     2405.193     1158.873        0.792        0.233      105.702       29.151        0.076      349.023       29.147      864.251
08/16/2014  13:10:00       36.110       38.557       10.945       32.377       32.068       32.438     1048.287     1028.367     1052.238        0.302        0.156       52.826       17.206        0.106      349.201       29.455      864.242
08/16/2014  13:11:00       32.234       83.286      -15.235       29.264       36.433       26.526      856.366     1327.349      703.644        0.555        0.144       89.306       22.738        0.065      348.981       29.075      864.244
08/16/2014  13:12:00       24.191      182.923      -26.882       42.665       89.507       41.170     1820.299     8011.507     1694.953        2.315        0.576      184.516       42.256        0.052      348.923       28.972      864.245
08/16/2014  13:13:00       85.336       67.891       -7.275       31.719       27.398       27.833     1006.094      750.638      774.692        0.724        0.127      109.048       15.555        0.020      348.691       28.570      864.232
08/16/2014  13:14:00       17.979       48.335        7.805       45.400       22.555       28.008     2061.170      508.716      784.427        0.304        0.168       51.571       24.327        0.223      348.931       28.988      864.227
08/16/2014  13:15:00      -45.433      128.894       -9.433       33.633       53.569       34.634     1131.210     2869.608     1199.481        1.198        0.260      136.667       28.912        0.045      349.202       29.457      864.225
08/16/2014  13:16:00      -56.935      110.228        4.329       37.881       61.471       37.021     1434.933     3778.653     1370.525        1.100        0.329      124.064       35.104        0.080      349.369       29.747      864.224
08/16/2014  13:17:00       15.547      213.346      -18.333       54.768      127.346       46.468     2999.542    16217.073     2159.264        3.373        1.069      213.911       63.706        0.089      349.160       29.382      864.216
08/16/2014  13:18:00       86.644      133.851      -13.775       42.152       90.804       52.240     1776.768     8245.440     2729.014        1.918        0.638      159.447       48.648        0.093      348.944       29.008      864.206
08/16/2014  13:19:00       41.457       54.650       16.586       68.172       38.702       36.087     4647.444     1497.874     1302.239        0.621        0.372       68.595       34.213        0.249      349.447       29.881      864.187
08/16/2014  13:20:00       89.337      132.658       -0.741       71.610       81.922       66.159     5127.954     6711.219     4377.003        2.089        0.811      159.935       53.128        0.110      349.178       29.414      864.184
08/16/2014  13:21:00       80.162      119.793        0.358       79.172       78.511       48.761     6268.163     6164.047     2377.630        1.779        0.740      144.140       41.097        0.081      349.017       29.135      864.188
08/16/2014  13:22:00      128.336       84.955       18.702       50.023       41.316       44.188     2502.280     1706.992     1952.559        1.510        0.308      153.907       24.742        0.026      348.977       29.067      864.187
08/16/2014  13:23:00      100.100       72.829       10.097       50.930       41.251       45.820     2593.854     1701.617     2099.461        1.091        0.320      123.790       27.074        0.048      349.291       29.611      864.177
08/16/2014  13:24:00       98.067      121.174        0.400       61.906       99.700       45.782     3832.363     9940.170     2095.980        2.008        0.793      155.885       49.337        0.100      349.268       29.571      864.173
08/16/2014  13:25:00       43.031      179.785      -27.971      135.065       83.998       53.724    18242.644     7055.694     2886.258        3.156        1.409      184.862       35.249        0.036      348.884       28.904      864.186
08/16/2014  13:26:00      -63.324      110.117        4.212       50.406       76.844       48.812     2540.719     5905.004     2382.606        1.349        0.541      127.026       42.464        0.112      349.312       29.649      864.174
08/16/2014  13:27:00      -71.567      130.731      -17.717       33.323       69.416       34.738     1110.411     4818.538     1206.761        1.483        0.357      149.039       35.908        0.058      349.125       29.323      864.174
08/16/2014  13:28:00      -31.152      121.331       -6.033       35.243       85.320       32.031     1242.071     7279.490     1025.958        1.264        0.477      125.267       41.916        0.112      349.354       29.720      864.169
08/16/2014  13:29:00      -18.442      125.566       -4.614       32.907       50.598       27.240     1082.846     2560.195      742.045        1.026        0.219      126.913       22.610        0.032      349.184       29.427      864.165
08/16/2014  13:30:00       -6.215       60.048        2.107       24.739       33.042       29.859      612.041     1091.798      891.583        0.312        0.130       60.369       19.103        0.100      349.525       30.017      864.150
08/16/2014  13:31:00        0.151       65.514       12.410       28.579       54.521       29.302      816.780     2972.541      858.619        0.455        0.232       65.514       27.670        0.178      349.695       30.312      864.147
08/16/2014  13:32:00      -32.883       58.578      -16.321       36.357       53.902       36.150     1321.825     2905.400     1306.827        0.516        0.277       67.176       16.987        0.064      349.095       29.273      864.151
08/16/2014  13:33:00        7.021       39.262       24.185       45.647       35.521       46.141     2083.692     1261.709     2128.992        0.382        0.274       39.885       35.506        0.792      349.425       29.842      864.133
08/16/2014  13:34:00      -14.872       83.224      -30.321       55.005       53.882       38.268     3025.575     2903.270     1464.440        0.773        0.370       84.542       39.937        0.223      349.143       29.355      864.123
08/16/2014  13:35:00       41.610      -33.166        1.553       62.216       66.970       38.068     3870.870     4484.916     1449.168        0.632        0.490       53.210       17.658        0.110      349.480       29.940      864.116
08/16/2014  13:36:00       83.385      -14.512       67.741       85.981      144.323       86.610     7392.650    20829.229     7501.233        2.373        1.786       84.639      102.480        1.466      349.398       29.796      864.095
08/16/2014  13:37:00       61.736       79.032      141.778       89.190       84.316       68.095     7954.809     7109.260     4636.869        2.493        0.985      100.287       59.067        0.347      349.271       29.575      864.088
08/16/2014  13:38:00       21.333       57.066       -3.251       73.001       42.468       42.259     5329.118     1803.545     1785.849        0.632        0.446       60.923       35.792        0.345      349.059       29.208      864.118
08/16/2014  13:39:00      -93.527      -29.284       -7.933       39.953       48.070       20.825     1596.222     2310.740      433.689        0.700        0.217       98.004       11.626        0.014      349.125       29.324      864.079
08/16/2014  13:40:00      -90.714      -51.967        3.158       58.221       38.714       29.833     3389.627     1498.805      889.994        0.836        0.289      104.545       22.715        0.047      349.283       29.597      864.062
08/16/2014  13:41:00      -16.646      -75.315       -5.984       51.771       70.134       35.325     2680.273     4918.802     1247.827        0.741        0.442       77.133       34.553        0.201      349.436       29.862      864.047
08/16/2014  13:42:00       67.315       -9.113       69.727       72.392       91.807       68.623     5240.546     8428.491     4709.069        1.392        0.919       67.929       65.792        0.938      349.552       30.064      864.013
08/16/2014  13:43:00       44.864     -119.956      -16.603       64.256       73.078       42.026     4128.864     5340.382     1766.170        1.395        0.562      128.071       33.203        0.067      349.237       29.517      863.987
08/16/2014  13:44:00      -30.985      -91.679       32.716       71.856       61.748       65.972     5163.221     3812.806     4352.264        1.188        0.666       96.774       32.483        0.113      349.621       30.184      863.955
08/16/2014  13:45:00      112.129     -186.701      -23.031       82.111      132.782       64.532     6742.168    17631.049     4164.417        3.824        1.427      217.784       79.356        0.133      349.583       30.118      863.961
08/16/2014  13:46:00       72.238       47.440      102.347       87.568       84.526       65.768     7668.122     7144.608     4325.473        1.854        0.957       86.422       58.736        0.462      349.430       29.852      863.956
08/16/2014  13:47:00      119.408       96.223       48.598      102.873       79.775       57.983    10582.799     6364.077     3362.077        2.309        1.015      153.354       39.466        0.066      349.375       29.755      863.952
08/16/2014  13:48:00      203.845      143.764       27.045       75.002       51.748       46.370     5625.243     2677.844     2150.138        3.670        0.523      249.441       33.258        0.018      348.990       29.083      863.958
08/16/2014  13:49:00       58.461       87.826       21.342       82.287       80.063       54.987     6771.096     6410.140     3023.577        1.389        0.810      105.504       42.207        0.160      349.298       29.623      863.934
08/16/2014  13:50:00       11.374      136.009      -11.596       74.551       89.849       51.484     5557.779     8072.830     2650.629        1.752        0.814      136.484       53.767        0.155      349.655       30.240      863.912
08/16/2014  13:51:00       68.378      236.950      -16.171       81.598      104.544       71.155     6658.267    10929.492     5063.008        4.186        1.133      246.619       67.500        0.075      349.297       29.617      863.899
08/16/2014  13:52:00        9.022      182.367      -13.739       54.357       87.635       48.029     2954.640     7679.921     2306.744        2.323        0.647      182.590       48.413        0.070      349.156       29.375      863.892
08/16/2014  13:53:00      -24.613      202.203      -24.726       46.812       65.498       34.810     2191.362     4290.050     1211.719        2.490        0.385      203.695       38.198        0.035      349.228       29.500      863.882
08/16/2014  13:54:00      -38.585      175.425      -14.582       45.998       71.152       31.848     2115.771     5062.672     1014.307        2.033        0.410      179.618       23.764        0.018      349.358       29.727      863.872
08/16/2014  13:55:00       -9.689      121.054        4.632       44.284       79.547       41.378     1961.079     6327.752     1712.124        1.238        0.500      121.441       39.655        0.107      349.677       30.280      863.874
08/16/2014  13:56:00       57.202      122.192       -6.797       45.598       61.653       49.210     2079.187     3801.135     2421.576        1.327        0.415      134.919       41.655        0.095      349.372       29.750      863.858
08/16/2014  13:57:00       43.234       39.547        0.038       58.172       46.835       34.731     3383.962     2193.529     1206.209        0.511        0.339       58.593       19.717        0.113      349.706       30.331      863.847
08/16/2014  13:58:00       61.505       24.751       -3.303       52.377       53.701       28.455     2743.327     2883.841      809.677        0.542        0.322       66.299        4.674        0.005      349.817       30.523      863.829
08/16/2014  13:59:00      -16.499      -60.558        8.238       47.334       44.719       39.197     2240.508     1999.827     1536.378        0.489        0.289       62.766        9.180        0.021      349.908       30.682      863.816
08/16/2014  14:00:00       12.926      -43.843       10.450       36.065       52.134       38.499     1300.699     2717.914     1482.140        0.385        0.275       45.709       36.745        0.646      350.001       30.844      863.813
08/16/2014  14:01:00       66.968     -155.113      -16.321       86.105       63.764       40.138     7414.091     4065.836     1611.097        2.095        0.655      168.952       36.787        0.047      349.502       29.975      863.794
08/16/2014  14:02:00       68.972      -61.753       50.403       97.705      130.807       78.592     9546.193    17110.541     6176.718        2.197        1.642       92.577       84.083        0.825      349.964       30.778      863.758
08/16/2014  14:03:00      -41.682     -230.298      -34.613      131.764      119.896       73.596    17361.876    14375.009     5416.373        4.656        1.858      234.040       29.301        0.016      349.574       30.096      863.730
08/16/2014  14:04:00     -168.874     -109.749      -13.463      114.185       85.893       53.261    13038.304     7377.604     2836.729        3.199        1.163      201.403       43.970        0.048      349.506       29.980      863.721
08/16/2014  14:05:00     -106.379      -76.835        1.227      109.332       70.134       36.517    11953.511     4918.732     1333.509        1.771        0.910      131.226       38.765        0.087      349.524       30.014      863.727
08/16/2014  14:06:00      -10.895      -42.906        6.666       83.774       55.289       41.115     7018.133     3056.891     1690.432        0.688        0.588       44.268       36.476        0.679      349.737       30.386      863.721
08/16/2014  14:07:00        5.718      -32.208       28.656       37.185       47.957       37.515     1382.732     2299.879     1407.400        0.349        0.255       32.712       30.271        0.856      349.939       30.735      863.715
08/16/2014  14:08:00       76.927       -3.619       53.129       97.197      123.638       67.346     9447.167    15286.311     4535.487        1.901        1.463       77.013       80.109        1.082      349.708       30.332      863.709
08/16/2014  14:09:00       66.795      -71.217       25.738       74.066       76.336       59.358     5485.793     5827.224     3523.429        1.251        0.742       97.639       58.583        0.360      350.007       30.853      863.693
08/16/2014  14:10:00       47.474       50.030       76.454       66.352       90.391       52.125     4402.646     8170.446     2717.026        1.294        0.765       68.970       51.014        0.547      349.952       30.758      863.687
08/16/2014  14:11:00       22.707       21.080        1.948       38.861       35.987       28.262     1510.186     1295.089      798.767        0.228        0.180       30.984       16.158        0.272      349.978       30.804      863.676
08/16/2014  14:12:00       14.028       -2.628       45.373       27.294       72.432       40.900      744.960     5246.393     1672.795        0.496        0.383       14.272       46.981       10.836      350.363       31.472      863.669
08/16/2014  14:13:00       86.404     -180.501      -15.569       63.550       60.302       37.263     4038.638     3636.299     1388.559        2.467        0.453      200.115       29.098        0.021      349.670       30.266      863.672
08/16/2014  14:14:00      102.152     -111.121        7.730       75.995       91.806       47.245     5775.231     8428.315     2232.054        1.964        0.822      150.940       65.029        0.186      349.886       30.642      863.665
08/16/2014  14:15:00      125.396       73.138       49.232       69.928       62.201       56.042     4889.873     3868.965     3140.761        1.770        0.595      145.167       36.550        0.063      349.617       30.176      863.662
08/16/2014  14:16:00       51.917       35.459       22.510       61.722       37.603       38.908     3809.626     1414.017     1513.834        0.560        0.337       62.871       33.761        0.288      349.741       30.393      863.652
08/16/2014  14:17:00       29.623       75.577       19.401       44.563       56.921       37.669     1985.902     3240.002     1418.943        0.680        0.332       81.175       20.722        0.065      349.942       30.741      863.624
08/16/2014  14:18:00       43.148        9.835       23.132       43.219       48.109       28.504     1867.909     2314.507      812.505        0.374        0.250       44.255       20.365        0.212      350.064       30.952      863.607
08/16/2014  14:19:00        0.565      -97.710       18.660       25.672       41.437       31.455      659.030     1717.028      989.440        0.663        0.168       97.712       15.564        0.025      349.818       30.524      863.587
08/16/2014  14:20:00       46.975       56.957       68.819       59.829       57.702       38.642     3579.488     3329.498     1493.177        0.929        0.420       73.829       27.785        0.142      350.262       31.297      863.585
08/16/2014  14:21:00       11.858      -11.854       20.426       31.690       38.365       28.378     1004.279     1471.841      805.295        0.199        0.164       16.768       20.953        1.562      350.459       31.640      863.583
08/16/2014  14:22:00       33.647        4.852       12.759       63.241       25.844       20.636     3999.471      667.921      425.859        0.320        0.255       33.995       23.863        0.493      350.166       31.131      863.573
08/16/2014  14:23:00       13.235        3.495       24.336       26.195       20.991       19.496      686.179      440.638      380.093        0.114        0.075       13.689       10.366        0.573      350.267       31.306      863.563
08/16/2014  14:24:00       45.746        7.856       14.364       52.981       36.718       27.944     2806.939     1348.181      780.893        0.365        0.247       46.415        8.286        0.032      349.922       30.706      863.542
08/16/2014  14:25:00       93.714       28.942       11.162       69.817       66.052       43.897     4874.397     4362.911     1926.989        1.045        0.558       98.081        8.846        0.008      350.082       30.983      863.537
08/16/2014  14:26:00       30.441      -40.302       24.088       47.913       92.070       49.689     2295.636     8476.972     2468.997        0.818        0.662       50.507       56.253        1.240      350.178       31.150      863.547
08/16/2014  14:27:00      115.905       78.216       72.595       87.833       61.800       47.383     7714.605     3819.266     2245.128        1.930        0.689      139.828       34.427        0.061      349.833       30.549      863.528
08/16/2014  14:28:00       77.333      -30.325       40.249       96.702       86.648       57.122     9351.343     7507.924     3262.867        1.432        1.006       83.066       57.126        0.473      349.966       30.782      863.529
08/16/2014  14:29:00      119.710     -147.858      -15.435       91.293       85.998       52.591     8334.412     7395.695     2765.846        2.746        0.925      190.243       61.969        0.106      349.603       30.151      863.528
08/16/2014  14:30:00       87.778     -100.469       -3.527       41.398       55.668       37.588     1713.814     3098.913     1412.823        1.202        0.311      133.413       31.980        0.057      349.565       30.086      863.517
08/16/2014  14:31:00       98.898     -221.713      -25.100       82.863       75.188       44.432     6866.244     5653.164     1974.190        3.703        0.725      242.770       43.944        0.033      349.614       30.168      863.476
08/16/2014  14:32:00       45.991     -113.025       -2.406       42.543       86.961       24.088     1809.865     7562.277      580.235        1.242        0.498      122.024       18.903        0.024      349.413       29.821      863.478
08/16/2014  14:33:00      -39.628        7.719        5.471       36.541       41.219       34.203     1335.232     1699.044     1169.820        0.293        0.210       40.373       26.427        0.428      349.976       30.801      863.454
08/16/2014  14:34:00       33.829        9.604       11.646       55.947       43.658       40.998     3130.114     1905.982     1680.831        0.404        0.336       35.166       27.187        0.598      349.969       30.789      863.438
08/16/2014  14:35:00       28.369      111.214      -13.577       62.631       77.589       34.543     3922.694     6020.013     1193.232        1.224        0.557      114.775       42.151        0.135      349.821       30.530      863.432
08/16/2014  14:36:00       35.485      135.735       -6.108       50.929       93.186       47.914     2593.737     8683.558     2295.766        1.664        0.679      140.296       56.540        0.162      349.929       30.716      863.427
08/16/2014  14:37:00        2.094      162.266      -26.488       52.418       77.685       29.558     2747.642     6034.930      873.673        1.834        0.483      162.280       31.609        0.038      349.817       30.523      863.422
08/16/2014  14:38:00       41.620       96.503       12.276       58.344       76.229       49.255     3403.972     5810.823     2426.100        1.142        0.582      105.095       39.985        0.145      349.904       30.673      863.402
08/16/2014  14:39:00       45.401       62.572        2.706       58.304       69.559       37.549     3399.334     4838.433     1409.893        0.781        0.482       77.308       33.911        0.192      349.759       30.423      863.408
08/16/2014  14:40:00       10.968       17.362       29.131       27.775       32.230       25.787      771.442     1038.774      664.969        0.187        0.124       20.536        7.995        0.152      350.216       31.218      863.411
08/16/2014  14:41:00       30.523       37.513       45.485       68.881       87.376       67.512     4744.598     7634.597     4557.849        1.067        0.847       48.362       52.287        1.169      349.924       30.709      863.411
08/16/2014  14:42:00       94.852       32.965       22.352       76.341       59.688       47.278     5827.947     3562.602     2235.182        1.110        0.581      100.418       42.075        0.176      349.974       30.795      863.389
08/16/2014  14:43:00       37.113     -128.757        1.751       80.053      119.484       59.690     6408.526    14276.314     3562.925        2.110        1.212      133.999       79.483        0.352      349.933       30.723      863.368
08/16/2014  14:44:00       81.147     -175.041       -7.582       89.867       56.190       44.086     8076.142     3157.274     1943.613        2.523        0.659      192.935       38.094        0.039      349.572       30.094      863.357
08/16/2014  14:45:00       62.092      -30.622       29.750       58.750       73.811       54.814     3451.537     5448.119     3004.552        0.879        0.595       69.232       52.188        0.568      349.798       30.491      863.331
08/16/2014  14:46:00       17.325       74.635       89.441       38.506       37.526       33.002     1482.724     1408.205     1089.154        0.892        0.199       76.620       31.021        0.164      349.997       30.837      863.304
08/16/2014  14:47:00       76.553       47.763       48.508       33.982       25.809       25.121     1154.763      666.103      631.082        0.647        0.123       90.231       16.782        0.035      349.851       30.582      863.299
08/16/2014  14:48:00       62.946        5.048       41.094       39.340       31.451       38.064     1547.612      989.144     1448.842        0.483        0.199       63.148       25.857        0.168      349.804       30.501      863.291
08/16/2014  14:49:00       52.566       36.434       23.355       40.585       34.499       28.719     1647.126     1190.172      824.778        0.415        0.183       63.958       18.847        0.087      349.499       29.972      863.284
08/16/2014  14:50:00       33.868       68.105       80.483       53.002       52.774       65.903     2809.163     2785.144     4343.259        1.110        0.497       76.061       55.326        0.529      350.058       30.941      863.258
08/16/2014  14:51:00       19.778       52.263       65.029       36.239       39.174       23.741     1313.263     1534.590      563.654        0.538        0.171       55.880       10.756        0.037      350.033       30.899      863.245
08/16/2014  14:52:00       25.496      -98.152       -0.388       58.341      109.887       53.216     3403.681    12075.254     2831.920        1.429        0.916      101.409       52.897        0.272      349.947       30.749      863.229
08/16/2014  14:53:00       33.183      -43.071       48.411       55.774      104.493       51.663     3110.782    10918.823     2669.030        1.100        0.835       54.371       48.177        0.785      350.296       31.354      863.210
08/16/2014  14:54:00       27.097      -12.702       42.844       68.893       86.130       45.141     4746.239     7418.431     2037.723        0.846        0.710       29.926       46.617        2.427      350.137       31.079      863.190
08/16/2014  14:55:00      121.636     -125.253        5.375       60.804       84.598       46.718     3697.142     7156.773     2182.588        2.177        0.652      174.595       33.668        0.037      349.892       30.652      863.177
08/16/2014  14:56:00       58.827      -41.317       38.594       59.203       82.606       44.829     3505.050     6823.704     2009.640        0.950        0.617       71.886       51.116        0.506      349.988       30.820      863.175
08/16/2014  14:57:00       62.023     -122.064      -21.377       42.903       43.319       27.014     1840.682     1876.508      729.747        1.182        0.222      136.918       19.641        0.021      349.800       30.494      863.180
08/16/2014  14:58:00       32.384      -84.707       -7.612       73.121       52.819       36.462     5346.647     2789.820     1329.445        0.887        0.473       90.686       23.495        0.067      349.962       30.776      863.167
08/16/2014  14:59:00      -33.034       10.673       12.020       41.973       31.499       23.719     1761.728      992.157      562.600        0.233        0.166       34.715       13.039        0.141      350.673       32.011      863.143
08/16/2014  15:00:00       39.831       20.211       42.521       48.149       45.275       32.322     2318.366     2049.802     1044.681        0.461        0.271       44.665       33.717        0.570      350.322       31.401      863.128
08/16/2014  15:01:00       79.400      -99.850       24.074       72.324       49.163       40.996     5230.776     2417.012     1680.711        1.309        0.466      127.571       26.247        0.042      350.167       31.130      863.115
08/16/2014  15:02:00       79.972      -18.296       52.946      101.366       83.462       56.968    10275.133     6965.860     3245.303        1.501        1.024       82.038       63.235        0.594      350.280       31.327      863.100
08/16/2014  15:03:00       30.176      -97.815        7.283       45.860       47.645       45.566     2103.159     2270.048     2076.291        0.849        0.322      102.363       32.480        0.101      350.054       30.937      863.090
08/16/2014  15:04:00      133.099     -122.225       14.150       67.168       62.870       44.556     4511.494     3952.653     1985.255        2.165        0.522      180.705       36.626        0.041      349.941       30.736      863.055
08/16/2014  15:05:00       32.048        6.988       19.292       53.572       49.002       46.194     2869.930     2401.226     2133.855        0.443        0.370       32.801       33.920        1.069      350.281       31.331      863.035
08/16/2014  15:06:00       56.351      -39.839        1.932       61.072       64.865       40.696     3729.805     4207.531     1656.153        0.718        0.480       69.011       26.188        0.144      350.132       31.070      863.026
08/16/2014  15:07:00       23.457      -27.395       28.574       38.094       55.131       27.550     1451.183     3039.433      758.998        0.368        0.262       36.065       21.892        0.368      350.573       31.838      863.024
08/16/2014  15:08:00       18.780      -44.013       23.688       25.177       48.892       29.445      633.884     2390.391      867.014        0.337        0.195       47.852       30.422        0.404      350.450       31.624      863.026
08/16/2014  15:09:00       29.474        7.073       11.053       33.631       38.836       27.405     1131.067     1508.224      751.027        0.221        0.170       30.311       12.053        0.158      350.246       31.268      863.026
08/16/2014  15:10:00       11.315       -4.982       -1.179       30.618       33.233       17.355      937.458     1104.418      301.202        0.125        0.117       12.363        8.397        0.461      350.350       31.449      863.013
08/16/2014  15:11:00       31.478      -38.767       19.008       37.113       57.963       32.650     1377.364     3359.703     1066.046        0.433        0.290       49.938       36.280        0.528      350.211       31.208      862.993
08/16/2014  15:12:00       56.118      -29.749       -1.179       42.395       46.990       38.062     1797.296     2208.045     1448.745        0.474        0.273       63.515       38.279        0.363      350.122       31.053      862.991
08/16/2014  15:13:00       36.184        4.457       50.589       54.102       78.709       52.295     2927.079     6195.146     2734.792        0.787        0.593       36.457       55.162        2.289      350.193       31.176      862.975
08/16/2014  15:14:00       37.356       92.442      101.195       35.165       59.017       28.384     1236.574     3483.035      805.672        1.285        0.276       99.705       16.261        0.027      349.650       30.233      862.968
08/16/2014  15:15:00       60.112      -86.349       10.329       45.897       88.635       51.869     2106.502     7856.092     2690.371        1.191        0.633      105.212       54.742        0.271      349.958       30.767      862.960
08/16/2014  15:16:00      -22.499      -50.054        9.046       66.056       63.117       38.722     4363.351     3983.791     1499.374        0.647        0.492       54.878       36.242        0.436      350.320       31.398      862.940
08/16/2014  15:17:00       -6.749      -58.117      -16.135       60.328       65.619       35.411     3639.490     4305.882     1253.916        0.644        0.460       58.508       34.301        0.344      350.392       31.523      862.913
08/16/2014  15:18:00       42.631      -14.807       27.099       63.462       61.739       45.876     4027.473     3811.725     2104.606        0.636        0.497       45.130       54.466        1.457      350.372       31.488      862.900
08/16/2014  15:19:00       57.059      -22.097       24.164       42.712       34.910       33.482     1824.338     1218.728     1121.018        0.425        0.208       61.188       31.287        0.261      350.309       31.379      862.889
08/16/2014  15:20:00       90.478       31.241       63.295       89.913       72.320       62.137     8084.356     5230.224     3860.954        1.517        0.859       95.719       46.382        0.235      349.971       30.792      862.870
08/16/2014  15:21:00      155.861       78.609       39.293       54.374       53.639       53.429     2956.575     2877.130     2854.675        2.035        0.434      174.562       31.738        0.033      349.848       30.575      862.829
08/16/2014  15:22:00      137.564       63.916       58.805       91.308       50.196       63.833     8337.105     2519.641     4074.665        2.070        0.747      151.687       31.368        0.043      350.091       30.998      862.803
08/16/2014  15:23:00       86.954       47.629      103.594      109.314      131.692       82.918    11949.469    17342.695     6875.373        2.836        1.808       99.144       92.204        0.865      350.578       31.844      862.767
08/16/2014  15:24:00      103.662     -104.282       37.702      109.294      118.302       73.571    11945.079    13995.278     5412.750        2.719        1.568      147.039       70.646        0.231      350.525       31.754      862.750
08/16/2014  15:25:00      160.814     -182.158        2.335      133.896      165.232       89.976    17928.263    27301.728     8095.667        5.618        2.666      242.987       96.208        0.157      350.603       31.886      862.703
08/16/2014  15:26:00      182.439     -184.613        4.777      165.240      185.269       95.229    27304.265    34324.506     9068.590        6.903        3.535      259.550      109.814        0.179      350.390       31.516      862.689
08/16/2014  15:27:00      239.206     -282.093      -42.171      124.746      185.487       87.719    15561.623    34405.262     7694.539        9.811        2.883      369.859       99.524        0.072      350.189       31.168      862.679
08/16/2014  15:28:00      299.395     -310.836      -82.936      182.466      161.113      106.475    33293.898    25957.470    11336.947       13.185        3.529      431.575      123.084        0.081      349.957       30.764      862.691
08/16/2014  15:29:00      146.544     -148.416      -38.826       97.301       79.904       50.087     9467.408     6384.626     2508.728        3.168        0.918      208.573       48.593        0.054      349.933       30.721      862.775
08/16/2014  15:30:00       47.929      -23.840       41.458       49.884       42.039       33.344     2488.444     1767.251     1111.823        0.497        0.268       53.531       24.579        0.211      350.506       31.722      862.761
08/16/2014  15:31:00       76.007       45.867       41.508       67.821       45.554       41.157     4599.640     2075.169     1693.885        0.898        0.418       88.774       25.997        0.086      350.173       31.141      862.745
08/16/2014  15:32:00       82.507       22.258       42.128       76.619       79.764       56.208     5870.399     6362.241     3159.287        1.223        0.770       85.457       50.674        0.352      350.380       31.502      862.713
08/16/2014  15:33:00      122.619      144.834       98.067       53.851       48.518       55.239     2899.882     2353.967     3051.355        2.697        0.415      189.769       41.015        0.047      349.892       30.651      862.708
08/16/2014  15:34:00       64.681       39.849       63.871       80.310       78.293       57.739     6449.695     6129.821     3333.749        1.288        0.796       75.970       52.668        0.481      350.282       31.330      862.695
08/16/2014  15:35:00      155.433       93.982      117.302      133.335       92.789       79.055    17778.097     8609.845     6249.743        3.969        1.632      181.638       82.890        0.208      350.160       31.117      862.685
08/16/2014  15:36:00      204.591      119.130       92.734       92.227       69.390       81.012     8505.747     4815.006     6563.009        4.226        0.994      236.747       52.039        0.048      350.129       31.062      862.671
08/16/2014  15:37:00      108.802       88.989       79.104      100.829       74.503       75.665    10166.517     5550.670     5725.121        2.372        1.072      140.560       63.756        0.206      350.283       31.331      862.660
08/16/2014  15:38:00      152.250       41.540       32.438      109.637       77.949       63.144    12020.370     6076.124     3987.214        2.402        1.104      157.815       44.254        0.079      350.343       31.436      862.654
08/16/2014  15:39:00      141.156      127.106       14.242       78.813       60.288       62.215     6211.485     3634.589     3870.688        2.500        0.686      189.950       28.639        0.023      350.153       31.106      862.646
08/16/2014  15:40:00      119.105      109.150       59.977       92.956       59.824       48.064     8640.841     3578.970     2310.176        2.211        0.726      161.553       40.420        0.063      350.362       31.467      862.623
08/16/2014  15:41:00       86.486       79.977       -4.889       85.896       51.486       27.438     7378.148     2650.838      752.856        1.234        0.539      117.798       22.072        0.035      350.315       31.388      862.598
08/16/2014  15:42:00      148.515       80.767       40.633      119.005       77.959       83.654    14162.152     6077.553     6997.972        2.873        1.362      169.056       91.147        0.291      350.041       30.911      862.579
08/16/2014  15:43:00       98.114      151.163      148.981       99.157      102.894       98.116     9832.087    10587.211     9626.795        4.235        1.502      180.213       85.126        0.223      350.443       31.608      862.547
08/16/2014  15:44:00      146.531       92.761       69.805      103.739      101.509       95.696    10761.680    10304.023     9157.809        3.258        1.511      173.424       70.324        0.164      350.506       31.717      862.527
08/16/2014  15:45:00       61.954       74.022       86.342       69.690       85.322       64.189     4856.692     7279.799     4120.274        1.651        0.813       96.528       58.627        0.369      350.402       31.539      862.506
08/16/2014  15:46:00      156.139       91.383       77.934      112.153       94.321       83.043    12578.339     8896.490     6896.210        3.358        1.419      180.915       63.860        0.125      350.287       31.337      862.494
08/16/2014  15:47:00       61.815       88.388      109.172       68.670       89.879       59.869     4715.628     8078.188     3584.337        1.996        0.819      107.859       63.168        0.343      350.384       31.507      862.490
08/16/2014  15:48:00      203.225      109.555      132.003      129.544       96.914       88.588    16781.651     9392.252     7847.861        5.237        1.701      230.873       55.745        0.058      350.332       31.415      862.493
08/16/2014  15:49:00      145.913       58.621       63.371      131.224      110.764       68.332    17219.845    12268.730     4669.259        3.144        1.708      157.249       68.848        0.192      350.452       31.625      862.502
08/16/2014  15:50:00       58.978       74.110      161.806       94.620      137.496       96.650     8952.894    18905.040     9341.240        3.617        1.860       94.714       98.201        1.075      350.527       31.756      862.470
08/16/2014  15:51:00      116.752     -168.962       -3.544      102.409      157.388       67.645    10487.512    24770.952     4575.839        4.101        1.992      205.376       66.489        0.105      350.434       31.594      862.453
08/16/2014  15:52:00      214.046     -189.504       -8.257      175.354      191.906      121.795    30749.007    36827.942    14833.916        8.209        4.121      285.880      136.299        0.227      350.218       31.216      862.430
08/16/2014  15:53:00       80.158       79.766      172.632      109.546      185.342      125.754    12000.302    34351.666    15814.134        5.237        3.108      113.084      140.072        1.534      350.305       31.367      862.418
08/16/2014  15:54:00       63.291       90.703      155.568      106.038      184.964      118.051    11244.152    34211.701    13935.969        4.790        2.970      110.602      140.520        1.614      350.382       31.503      862.433
08/16/2014  15:55:00      118.520     -111.099       32.520      107.662      166.392       75.687    11591.176    27686.407     5728.499        3.622        2.250      162.450      101.437        0.390      350.371       31.484      862.441
08/16/2014  15:56:00      241.748     -269.609      -49.919      119.787      125.523       56.623    14349.003    15756.104     3206.207        8.346        1.666      362.120       54.387        0.023      350.122       31.050      862.429
08/16/2014  15:57:00       74.383     -175.716      -12.141       96.917       74.400       38.421     9392.962     5535.386     1476.191        2.648        0.820      190.811       23.851        0.016      349.927       30.711      862.471
08/16/2014  15:58:00      -12.442       -3.705       30.287       80.284       68.536       57.065     6445.526     4697.189     3256.456        0.774        0.720       12.982       50.175       14.939      350.329       31.414      862.435
08/16/2014  15:59:00       61.854       79.355       81.669       96.620       78.302       65.301     9335.395     6131.236     4264.266        1.826        0.987      100.614       60.798        0.365      350.399       31.534      862.422
08/16/2014  16:00:00       86.025       72.680       77.428       81.918       78.999       47.507     6710.591     6240.890     2256.928        1.694        0.760      112.617       48.663        0.187      350.300       31.364      862.401
08/16/2014  16:01:00      110.164       51.785       52.203       79.180       58.385       48.272     6269.487     3408.814     2330.189        1.477        0.600      121.729       24.195        0.040      350.390       31.518      862.394
08/16/2014  16:02:00       58.369      -54.674        3.091       62.683       48.981       45.310     3929.196     2399.122     2053.021        0.739        0.419       79.977       32.254        0.163      350.510       31.727      862.392
08/16/2014  16:03:00       67.350       -9.794       19.099       49.465       43.250       31.681     2446.792     1870.598     1003.702        0.516        0.266       68.058       22.876        0.113      350.533       31.768      862.379
08/16/2014  16:04:00      135.437     -210.244      -33.237       65.797      100.804       50.811     4329.243    10161.417     2581.724        4.036        0.854      250.091       39.061        0.024      350.563       31.819      862.363
08/16/2014  16:05:00      175.571     -209.614      -11.835      107.213      120.573       62.115    11494.666    14537.748     3858.277        5.239        1.495      273.428       67.707        0.061      350.346       31.440      862.364
08/16/2014  16:06:00       71.799      -41.843       13.456       59.689      105.344       57.464     3562.832    11097.433     3302.097        1.252        0.898       83.102       63.488        0.584      350.185       31.162      862.398
08/16/2014  16:07:00       32.709      -91.179        0.730       40.119       58.710       35.385     1609.544     3446.838     1252.084        0.785        0.315       96.869       30.605        0.100      350.138       31.081      862.395
08/16/2014  16:08:00       43.696       34.345       42.934       28.479       34.493       36.321      811.039     1189.744     1319.188        0.413        0.166       55.578       22.377        0.162      350.204       31.195      862.399
08/16/2014  16:09:00       76.993       41.224       19.620       55.028       29.488       36.756     3028.076      869.566     1350.980        0.663        0.262       87.334       20.624        0.056      350.218       31.218      862.399
08/16/2014  16:10:00       52.333       27.762       -2.566       45.442       78.080       38.628     2065.019     6096.556     1492.104        0.658        0.483       59.241       27.790        0.220      350.248       31.271      862.392
08/16/2014  16:11:00       71.567      170.752      -22.854       53.812       66.323       39.243     2895.705     4398.791     1540.002        2.182        0.442      185.144       34.967        0.036      349.986       30.814      862.393
08/16/2014  16:12:00       81.473       49.853       10.377       38.821       35.284       30.739     1507.080     1244.974      944.876        0.646        0.185       95.515       21.019        0.048      349.982       30.810      862.402
08/16/2014  16:13:00       68.398       10.222       10.159       36.009       34.602       23.021     1296.644     1197.318      529.988        0.395        0.151       69.157       22.499        0.106      350.064       30.953      862.392
08/16/2014  16:14:00       17.300      -18.143        5.463       14.041       11.001       12.460      197.142      121.022      155.243        0.057        0.024       25.069        9.410        0.141      350.270       31.313      862.383
08/16/2014  16:15:00       18.530       35.454       -0.348       26.817       43.670       21.714      719.131     1907.079      471.490        0.235        0.155       40.004       23.398        0.342      350.193       31.177      862.381
08/16/2014  16:16:00       -5.995       49.750       11.023       30.751       30.890       30.094      945.605      954.191      905.657        0.272        0.140       50.110       21.260        0.180      350.543       31.785      862.379
08/16/2014  16:17:00      -65.119       41.233       -3.972       29.536       43.035       16.853      872.359     1852.007      284.032        0.448        0.150       77.076        8.701        0.013      350.584       31.858      862.388
08/16/2014  16:18:00       -4.830      -11.426       -7.318       54.423       53.372       17.389     2961.884     2848.619      302.360        0.316        0.306       12.405       24.338        3.849      350.446       31.617      862.391
08/16/2014  16:19:00      -72.123     -169.355       -9.685       45.756       65.815       34.615     2093.630     4331.609     1198.213        2.080        0.381      184.073       37.396        0.041      350.218       31.218      862.394
08/16/2014  16:20:00     -105.436     -165.497       -5.410       82.374       91.418       62.852     6785.470     8357.179     3950.392        2.881        0.955      196.230       20.599        0.011      350.344       31.437      862.385
08/16/2014  16:21:00     -134.253      -78.167       -1.891       81.024       69.380       48.538     6564.849     4813.604     2355.894        1.893        0.687      155.351       42.163        0.074      350.387       31.513      862.389
08/16/2014  16:22:00     -249.784      -57.030      -10.420      160.254       80.726       50.120    25681.433     6516.745     2511.972        5.022        1.736      256.211       60.143        0.055      350.459       31.634      862.386
08/16/2014  16:23:00     -298.409      -44.699      -14.030      101.152       94.439       55.165    10231.652     8918.758     3043.201        5.671        1.110      301.738       32.250        0.011      350.230       31.237      862.388
08/16/2014  16:24:00     -197.247      -90.459       -3.107       92.751       59.690       38.101     8602.684     3562.878     1451.684        3.036        0.681      217.000       40.541        0.035      350.273       31.312      862.378
08/16/2014  16:25:00     -282.530     -124.826       -3.286      180.135      120.820       71.198    32448.771    14597.379     5069.160        7.376        2.606      308.877       62.308        0.041      350.395       31.524      862.374
08/16/2014  16:26:00     -336.819     -165.858      -13.532      132.592      132.091       58.599    17580.696    17447.924     3433.811        8.979        1.923      375.441       58.695        0.024      350.428       31.582      862.378
08/16/2014  16:27:00     -333.321      -69.067      -10.613      123.553      104.753       62.011    15265.281    10973.134     3845.369        7.303        1.504      340.401       69.714        0.042      350.376       31.490      862.364
08/16/2014  16:28:00     -177.835      -53.663       13.961      138.857       79.391       49.272    19281.254     6302.955     2427.743        3.135        1.401      185.755       51.707        0.077      350.514       31.732      862.367
08/16/2014  16:29:00     -337.131     -171.734       -7.959      175.970      117.108       68.400    30965.344    13714.359     4678.507        9.628        2.468      378.351       73.609        0.038      350.385       31.508      862.363
08/16/2014  16:30:00     -417.555     -142.341       -2.559      183.960      154.130       90.179    33841.415    23755.904     8132.222       13.016        3.286      441.150       97.458        0.049      350.321       31.396      862.389
08/16/2014  16:31:00     -277.512      -24.086      -22.080      116.613       78.892       55.686    13598.638     6223.871     3100.935        5.050        1.146      278.555       63.063        0.051      350.281       31.327      862.402
08/16/2014  16:32:00      -73.395      -61.342        6.354       90.687       88.271       36.723     8224.041     7791.718     1348.593        1.327        0.868       95.654       34.433        0.130      350.457       31.634      862.398
08/16/2014  16:33:00     -211.308      -49.219      -16.265      139.518      113.853       43.585    19465.296    12962.504     1899.636        4.083        1.716      216.964       45.302        0.044      350.400       31.532      862.388
08/16/2014  16:34:00     -301.913      -81.559       -4.493      105.425       91.394       45.726    11114.340     8352.945     2090.864        5.969        1.078      312.735       40.313        0.017      350.359       31.461      862.382
08/16/2014  16:35:00     -444.163     -163.107      -13.898      168.837      111.271       74.757    28505.796    12381.151     5588.670       13.527        2.324      473.164       85.670        0.033      350.255       31.281      862.353
08/16/2014  16:36:00     -521.174     -215.572      -15.025      219.624      177.059       96.879    48234.708    31349.871     9385.486       20.363        4.449      563.998      113.587        0.041      350.246       31.267      862.355
08/16/2014  16:37:00     -395.208     -136.978       -8.923      201.000      165.261       82.274    40400.966    27311.254     6768.972       12.474        3.724      418.273       89.681        0.046      350.367       31.475      862.351
08/16/2014  16:38:00     -241.811      -22.865      -12.522      131.405      112.122       65.312    17267.308    12571.397     4265.632        4.662        1.705      242.890       65.491        0.073      350.583       31.851      862.382
08/16/2014  16:39:00     -162.547     -156.765       18.693      143.883      132.145       79.730    20702.229    17462.289     6356.828        4.792        2.226      225.825       70.233        0.097      350.400       31.533      862.376
08/16/2014  16:40:00     -218.232     -163.008        1.249      179.775      144.874       85.277    32319.164    20988.620     7272.238        6.738        3.029      272.391       89.014        0.107      350.361       31.466      862.387
08/16/2014  16:41:00     -258.460      -78.891        3.431      199.888      113.497       82.722    39955.384    12881.601     6842.892        6.635        2.984      270.232       94.786        0.123      350.438       31.599      862.388
08/16/2014  16:42:00     -199.925       11.308       11.370      152.525      112.207       61.253    23264.006    12590.489     3751.896        3.991        1.980      200.245       79.036        0.156      350.530       31.761      862.407
08/16/2014  16:43:00     -278.156     -129.433      -10.579      163.943      124.201       83.780    26877.174    15425.958     7019.131        7.177        2.466      306.796       88.383        0.083      350.273       31.311      862.394
08/16/2014  16:44:00     -326.356       -9.983      -19.426      144.655      102.898       61.331    20925.045    10588.058     3761.475        7.112        1.764      326.509       63.952        0.038      350.424       31.576      862.408
08/16/2014  16:45:00     -195.015      -49.653        5.406      120.201      105.081       54.774    14448.306    11042.092     3000.158        3.450        1.425      201.237       47.593        0.056      350.547       31.790      862.431
08/16/2014  16:46:00     -254.303     -108.998      -16.567      134.495      113.513       61.346    18088.993    12885.225     3763.350        5.577        1.737      276.678       65.954        0.057      350.388       31.513      862.442
08/16/2014  16:47:00     -248.419      -41.539       -1.205      140.573      104.788       71.132    19760.855    10980.528     5059.827        4.961        1.790      251.868       76.412        0.092      350.530       31.760      862.431
08/16/2014  16:48:00     -224.105      -49.813      -15.484      107.185       89.736       47.489    11488.657     8052.585     2255.166        3.737        1.090      229.575       33.553        0.021      350.413       31.557      862.445
08/16/2014  16:49:00      -65.464      -59.119        9.205       97.678       73.669       63.827     9541.020     5427.166     4073.826        1.345        0.952       88.208       59.414        0.454      350.583       31.853      862.453
08/16/2014  16:50:00     -256.107     -202.396       15.394      197.064      147.795       88.435    38834.054    21843.440     7820.759        8.763        3.425      326.427       91.096        0.078      350.265       31.298      862.451
08/16/2014  16:51:00     -224.250     -209.597        3.293      153.477      113.714       73.485    23555.109    12930.798     5400.004        6.805        2.094      306.951       76.077        0.061      350.183       31.156      862.476
08/16/2014  16:52:00     -251.615     -237.925        1.789      134.755      105.876       78.860    18158.854    11209.784     6218.835        7.775        1.779      346.293       84.946        0.060      350.051       30.927      862.459
08/16/2014  16:53:00     -147.031     -144.380        9.852      106.653      100.168       63.461    11374.944    10033.690     4027.358        3.399        1.272      206.067       61.177        0.088      350.131       31.065      862.441
08/16/2014  16:54:00     -235.368      -15.949        1.186      168.425      113.513       68.737    28366.827    12885.215     4724.842        5.081        2.299      235.908       69.066        0.086      350.542       31.781      862.442
08/16/2014  16:55:00     -443.565      -83.958      -21.651      146.495      134.712       74.511    21460.751    18147.410     5551.949       12.470        2.258      451.441       53.446        0.014      350.400       31.533      862.438
08/16/2014  16:56:00     -482.108     -119.825       12.265      218.289      170.329       99.404    47650.289    29012.071     9881.142       16.672        4.327      496.776      104.072        0.044      350.322       31.398      862.416
08/16/2014  16:57:00     -588.747     -149.145      -21.473      171.180      157.515       89.841    29302.518    24810.843     8071.451       21.574        3.109      607.344       86.860        0.020      350.048       30.923      862.462
08/16/2014  16:58:00     -447.925      -47.639      -35.451      162.907      120.639       77.853    26538.609    14553.827     6061.142       12.565        2.358      450.452       79.800        0.031      350.187       31.163      862.464
08/16/2014  16:59:00     -330.997      -65.413      -19.155      160.659      117.706       75.789    25811.446    13854.748     5743.986        7.980        2.271      337.399       55.345        0.027      350.270       31.307      862.462
08/16/2014  17:00:00     -511.659      -42.995      -28.264      134.503      112.411       59.464    18091.105    12636.239     3535.988       14.935        1.713      513.463       54.490        0.011      350.062       30.945      862.448
08/16/2014  17:01:00     -303.655       13.905      -15.709      116.343       86.035       59.947    13535.592     7402.062     3593.692        5.858        1.227      303.973       61.075        0.040      350.317       31.390      862.425
08/16/2014  17:02:00     -173.278      -26.575       -2.028      127.446      109.041       65.270    16242.519    11889.893     4260.153        3.156        1.620      175.304       66.285        0.143      350.380       31.499      862.411
08/16/2014  17:03:00     -274.219        4.174      -22.809      217.311      109.320       54.860    47224.115    11950.796     3009.573        6.895        3.109      274.250       72.955        0.071      350.243       31.260      862.386
08/16/2014  17:04:00     -180.985      -39.492        2.407      127.682       92.335       54.131    16302.760     8525.757     2930.155        3.103        1.388      185.244       62.971        0.116      350.458       31.637      862.380
08/16/2014  17:05:00     -270.600      -77.335        8.419      245.937      144.350       80.976    60485.190    20836.839     6557.039        8.356        4.394      281.434      105.880        0.142      350.481       31.676      862.399
08/16/2014  17:06:00     -449.560      -91.930       -0.189      192.180      133.192       88.129    36933.292    17740.015     7766.697       13.649        3.122      458.864      103.089        0.050      350.224       31.227      862.392
08/16/2014  17:07:00     -486.642     -156.434      -38.416      182.374      147.647       68.567    33260.273    21799.767     4701.420       16.125        2.988      511.167       63.218        0.015      350.143       31.086      862.376
08/16/2014  17:08:00     -347.209      -75.120       -9.769      161.798      101.684       76.488    26178.495    10339.590     5850.346        8.432        2.118      355.242       78.684        0.049      350.213       31.208      862.395
08/16/2014  17:09:00     -319.699      -77.672       -0.393      184.820      138.197       78.616    34158.450    19098.320     6180.488        8.383        2.972      328.999       87.834        0.071      350.206       31.198      862.405
08/16/2014  17:10:00     -407.625      -82.934      -23.954      137.054      118.566       67.064    18783.742    14057.969     4497.595       10.547        1.867      415.976       68.793        0.027      350.219       31.220      862.415
08/16/2014  17:11:00     -211.282      -40.729       -4.527      130.093       95.236       50.731    16924.236     9069.918     2573.659        3.744        1.428      215.172       52.633        0.060      350.303       31.366      862.411
08/16/2014  17:12:00     -160.724       -3.825       -3.144       91.871       71.497       40.922     8440.197     5111.890     1674.627        2.054        0.761      160.770       41.478        0.067      350.470       31.657      862.411
08/16/2014  17:13:00     -174.326     -141.353        4.144      126.402      174.409       63.687    15977.402    30418.645     4056.021        5.041        2.523      224.434       72.358        0.104      350.335       31.420      862.412
08/16/2014  17:14:00     -136.289      -97.819       19.457      129.721       95.088       65.002    16827.645     9041.801     4225.281        2.930        1.505      167.759       71.680        0.183      350.382       31.504      862.407
08/16/2014  17:15:00     -197.868      -86.788      -17.771      162.470      118.641       62.604    26396.577    14075.619     3919.296        4.569        2.220      216.065       40.141        0.035      350.325       31.404      862.400
08/16/2014  17:16:00     -283.299       11.321      -17.801      184.965      109.476       65.960    34212.130    11985.099     4350.731        6.562        2.527      283.525       62.001        0.048      350.224       31.226      862.408
08/16/2014  17:17:00     -182.367      -90.554        1.715      130.329       89.992       66.827    16985.684     8098.625     4465.813        3.550        1.478      203.612       62.274        0.094      350.210       31.203      862.381
08/16/2014  17:18:00     -255.174     -144.759      -16.533      113.341       72.206       54.674    12846.197     5213.645     2989.209        5.369        1.052      293.375       61.380        0.044      350.152       31.102      862.393
08/16/2014  17:19:00     -314.255      -97.955       -1.764      146.874      104.098       64.280    21571.939    10836.313     4131.920        7.244        1.827      329.168       66.355        0.041      350.172       31.137      862.371
08/16/2014  17:20:00     -296.840      -30.521      -25.219      142.618      108.381       73.132    20340.014    11746.478     5348.340        6.355        1.872      298.405       78.706        0.070      350.262       31.295      862.390
08/16/2014  17:21:00     -214.705      -65.160      -18.780      193.800      173.403       83.341    37558.453    30068.709     6945.762        6.262        3.729      224.374       97.609        0.189      350.317       31.389      862.380
08/16/2014  17:22:00     -267.778     -150.013        5.350      196.362      154.809       83.486    38557.876    23965.865     6969.925        8.185        3.475      306.935       81.032        0.070      350.247       31.267      862.385
08/16/2014  17:23:00     -371.265      -76.137      -12.120      200.398       97.447       80.171    40159.525     9495.990     6427.348        9.992        2.804      378.991       93.137        0.060      350.224       31.226      862.389
08/16/2014  17:24:00     -380.025     -110.238       -6.109      151.958      140.416       66.799    23091.296    19716.592     4462.128       10.193        2.364      395.691       73.967        0.035      350.181       31.151      862.404
08/16/2014  17:25:00     -297.407     -129.286       14.172      180.450      120.130       66.805    32562.351    14431.182     4462.969        7.840        2.573      324.292       72.478        0.050      350.170       31.134      862.412
08/16/2014  17:26:00     -230.483       -9.757       -7.205      122.662      104.959       54.449    15045.965    11016.425     2964.673        4.114        1.451      230.689       56.274        0.060      350.281       31.328      862.417
08/16/2014  17:27:00     -274.556      -36.733      -18.387      184.990       84.713       56.363    34221.418     7176.363     3176.766        6.081        2.229      277.002       81.242        0.086      350.179       31.149      862.403
08/16/2014  17:28:00     -275.131      -31.412        1.924      135.940      117.486       62.597    18479.683    13802.890     3918.401        5.644        1.810      276.918       62.261        0.051      350.299       31.358      862.413
08/16/2014  17:29:00     -226.406      -35.744        0.327      117.961       85.531       73.219    13914.746     7315.556     5361.080        3.956        1.330      229.211       67.516        0.087      350.264       31.298      862.413
08/16/2014  17:30:00     -212.599      -50.265       12.363      126.265      110.985       65.370    15942.809    12317.650     4273.215        4.020        1.627      218.460       73.145        0.112      350.139       31.080      862.365
08/16/2014  17:31:00     -186.356      -41.482        6.558      131.694       88.379       59.331    17343.195     7810.820     3520.200        3.258        1.434      190.917       61.674        0.104      350.230       31.238      862.375
08/16/2014  17:32:00      -68.735      -45.100       25.208      124.828       80.569       62.472    15582.109     6491.416     3902.797        1.668        1.299       82.210       79.515        0.936      350.309       31.376      862.381
08/16/2014  17:33:00     -143.981      -20.146       -2.520      123.073       95.061       53.142    15146.940     9036.659     2824.113        2.407        1.350      145.384       46.389        0.102      350.231       31.242      862.370
08/16/2014  17:34:00     -302.642      -36.572      -15.516      104.783      120.139       52.709    10979.518    14433.336     2778.247        6.068        1.410      304.844       51.346        0.028      350.288       31.338      862.354
08/16/2014  17:35:00     -369.263      -76.908        0.515      243.793      177.492       81.727    59434.836    31503.314     6679.267       11.992        4.881      377.187      101.927        0.073      350.286       31.335      862.360
08/16/2014  17:36:00     -524.791     -102.113      -19.322      244.088      135.833       93.568    59579.065    18450.666     8754.988       18.648        4.339      534.634      102.508        0.037      350.046       30.917      862.358
08/16/2014  17:37:00     -333.231     -112.321       -0.972      225.235      169.902      100.070    50730.798    28866.802    10013.930       10.662        4.481      351.652      116.231        0.109      350.119       31.044      862.362
08/16/2014  17:38:00     -291.010     -187.602      -11.044      165.418      116.936       79.192    27363.131    13674.142     6271.306        8.365        2.365      346.239       68.228        0.039      350.023       30.877      862.362
08/16/2014  17:39:00     -435.751     -205.072        2.434      180.848      152.959       80.016    32705.947    23396.316     6402.574       14.721        3.125      481.595       95.739        0.040      349.959       30.768      862.364
08/16/2014  17:40:00     -384.630     -165.691      -25.858      174.263      108.706       70.328    30367.442    11817.042     4946.061       11.159        2.357      418.801       81.492        0.038      349.948       30.746      862.373
08/16/2014  17:41:00     -215.236     -156.123       10.045      187.282      120.618       80.266    35074.532    14548.593     6442.658        6.342        2.803      265.896       77.806        0.086      349.948       30.747      862.362
08/16/2014  17:42:00     -294.120     -210.306      -18.199      147.694      119.298       67.072    21813.612    14232.091     4498.649        8.580        2.027      361.573       67.116        0.034      349.993       30.826      862.374
08/16/2014  17:43:00     -174.297     -111.531       10.050      181.149      118.455       62.695    32815.071    14031.584     3930.715        4.684        2.539      206.927       84.139        0.165      350.091       30.998      862.385
08/16/2014  17:44:00     -398.416     -232.741      -15.236      200.795      127.419       92.159    40318.506    16235.502     8493.358       13.908        3.252      461.415       93.577        0.041      349.932       30.720      862.375
08/16/2014  17:45:00     -254.428      -82.106       -4.662      136.354      129.062       54.414    18592.502    16657.097     2960.869        5.485        1.911      267.348       55.081        0.042      350.041       30.910      862.365
08/16/2014  17:46:00     -396.431     -150.096      -25.226      177.771      138.653       80.634    31602.679    19224.698     6501.783       11.881        2.866      423.894       78.157        0.034      349.973       30.791      862.358
08/16/2014  17:47:00     -270.926     -133.045       11.157      222.469      147.678       88.217    49492.677    21808.839     7782.207        8.514        3.954      301.831      113.700        0.142      349.951       30.754      862.343
08/16/2014  17:48:00     -242.187      -14.009       -4.407      171.436      130.215       78.630    29390.420    16955.931     6182.720        5.569        2.626      242.592       94.857        0.153      350.028       30.888      862.313
08/16/2014  17:49:00     -208.518      -29.376       16.035      179.611      153.803       74.059    32260.091    23655.459     5484.686        5.299        3.070      210.577       88.853        0.178      350.072       30.964      862.334
08/16/2014  17:50:00     -300.920      -49.798      -12.545      186.422      113.660       74.330    34753.154    12918.502     5524.930        7.318        2.660      305.013       89.317        0.086      350.104       31.018      862.344
08/16/2014  17:51:00     -396.035      -13.832      -23.434      178.792      122.591       77.182    31966.539    15028.666     5957.077       10.526        2.648      396.277       93.707        0.056      349.926       30.709      862.324
08/16/2014  17:52:00     -253.440     -101.234        6.811      214.354      151.063       70.660    45947.612    22819.899     4992.870        7.413        3.688      272.910      100.574        0.136      349.878       30.627      862.310
08/16/2014  17:53:00     -159.015        2.365      -19.108      120.807      146.973       57.648    14594.442    21601.207     3323.267        3.258        1.976      159.032       62.367        0.154      349.940       30.734      862.299
08/16/2014  17:54:00     -108.147      -73.631       21.012      127.360       78.365       52.463    16220.663     6141.132     2752.406        2.133        1.256      130.833       59.686        0.208      350.110       31.031      862.312
08/16/2014  17:55:00     -276.973      -86.057       -6.787      136.796      133.022       71.785    18713.275    17694.884     5153.148        6.286        2.078      290.034       75.532        0.068      350.062       30.945      862.332
08/16/2014  17:56:00     -288.139      -27.535      -16.092      104.946       84.538       57.691    11013.561     7146.729     3328.277        5.276        1.074      289.451       52.435        0.033      350.020       30.872      862.331
08/16/2014  17:57:00     -124.366      -31.196       17.631      128.950      118.150       55.377    16628.052    13959.364     3066.567        2.520        1.683      128.219       59.949        0.219      350.119       31.046      862.325
08/16/2014  17:58:00     -270.388     -191.915      -14.522      136.500      114.632       67.682    18632.365    13140.464     4580.848        7.325        1.818      331.573       65.127        0.039      350.002       30.840      862.310
08/16/2014  17:59:00     -311.388     -107.728      -17.516      120.878      124.795       50.835    14611.576    15573.858     2584.235        7.082        1.638      329.496       31.789        0.009      350.056       30.934      862.309
08/16/2014  18:00:00     -436.736     -109.725      -27.747      150.241      109.683       58.592    22572.383    12030.364     3432.989       12.078        1.902      450.309       65.176        0.021      349.923       30.705      862.325
08/16/2014  18:01:00     -366.976       16.630      -19.070      210.633      119.055       66.105    44366.177    14174.001     4369.857        9.910        3.146      367.353       73.905        0.040      350.022       30.876      862.327
08/16/2014  18:02:00     -347.893     -105.775      -22.675      156.814      144.180       80.049    24590.672    20787.841     6407.878        9.225        2.589      363.618       63.759        0.031      349.837       30.555      862.310
08/16/2014  18:03:00     -391.422      -84.189      -16.033      159.189      175.814       68.951    25341.048    30910.610     4754.196       11.077        3.050      400.374       65.514        0.027      349.900       30.664      862.306
08/16/2014  18:04:00     -306.790     -143.765        7.544      161.802      164.022       89.495    26179.918    26903.074     8009.284        8.796        3.055      338.804       92.155        0.074      349.843       30.564      862.296
08/16/2014  18:05:00     -447.513      -52.140      -23.518      187.805      109.188       72.689    35270.539    11921.962     5283.749       12.800        2.624      450.540       80.796        0.032      349.810       30.508      862.289
08/16/2014  18:06:00     -313.809      -24.399       -0.688      253.762      124.491       73.246    64395.072    15498.133     5365.033        9.215        4.263      314.756      101.064        0.103      349.860       30.594      862.252
08/16/2014  18:07:00     -153.236      -45.821       12.005      154.636      106.847       68.225    23912.433    11416.307     4654.655        3.285        1.999      159.940       81.115        0.257      349.855       30.587      862.264
08/16/2014  18:08:00     -434.406     -132.474      -13.381      183.651      133.614       72.000    33727.735    17852.577     5183.987       13.159        2.838      454.156       76.846        0.029      349.831       30.544      862.255
08/16/2014  18:09:00     -359.093     -117.359      -12.328      148.679      119.197       67.890    22105.522    14207.980     4609.084        9.189        2.046      377.784       76.164        0.041      349.910       30.681      862.260
08/16/2014  18:10:00     -106.079      -39.708       -9.552      107.648       76.222       48.306    11588.174     5809.859     2333.462        1.632        0.987      113.268       43.508        0.148      349.928       30.714      862.268
08/16/2014  18:11:00     -226.206      -44.360       -0.391      103.775       88.620       48.813    10769.313     7853.429     2382.675        3.707        1.050      230.515       41.037        0.032      349.955       30.760      862.271
08/16/2014  18:12:00     -159.539      -56.896       -3.497       87.844       71.945       42.340     7716.643     5176.053     1792.690        2.169        0.734      169.381       43.512        0.066      349.943       30.740      862.268
08/16/2014  18:13:00     -222.668      -75.445        2.383      142.664      105.695       62.014    20353.039    11171.343     3845.696        4.532        1.769      235.102       68.509        0.085      349.936       30.727      862.266
08/16/2014  18:14:00     -261.496     -200.739       -8.957      173.571      146.330       85.247    30126.729    21412.396     7267.076        8.377        2.940      329.661       89.200        0.073      349.796       30.484      862.282
08/16/2014  18:15:00     -303.556     -239.381      -23.428      184.809      132.153       81.142    34154.488    17464.429     6584.040       10.409        2.910      386.587       80.648        0.044      349.618       30.175      862.231
08/16/2014  18:16:00     -318.457     -197.814      -21.066      155.072      104.655       72.733    24047.218    10952.708     5290.094        9.063        2.015      374.894       81.766        0.048      349.694       30.305      862.231
08/16/2014  18:17:00     -338.458     -215.094      -26.604      131.465      136.306       71.182    17283.133    18579.225     5066.810       10.122        2.046      401.023       65.092        0.026      349.632       30.200      862.233
08/16/2014  18:18:00     -340.297     -222.677      -11.416      191.823      141.114       81.850    36796.029    19913.199     6699.350       11.445        3.170      406.678       88.773        0.048      349.694       30.306      862.230
08/16/2014  18:19:00     -241.567     -186.065      -10.605      176.932      128.536       80.289    31304.763    16521.606     6446.357        7.367        2.714      304.918       72.371        0.056      349.699       30.316      862.232
08/16/2014  18:20:00     -162.757      -38.480       11.986      141.889       75.290       55.720    20132.609     5668.560     3104.697        2.850        1.445      167.244       67.454        0.163      349.818       30.525      862.242
08/16/2014  18:21:00     -388.068     -179.807      -13.435      164.981      141.950       64.724    27218.694    20149.897     4189.226       11.732        2.578      427.700       64.322        0.023      349.669       30.263      862.221
08/16/2014  18:22:00     -238.947     -161.221       17.373      250.041      190.007       94.502    62520.726    36102.836     8930.540        9.545        5.378      288.250      127.674        0.196      349.674       30.271      862.200
08/16/2014  18:23:00     -167.669      -25.038        6.358      116.246       81.122       59.299    13513.061     6580.777     3516.353        2.619        1.181      169.528       57.863        0.116      349.801       30.494      862.215
08/16/2014  18:24:00     -513.269     -168.393      -18.410      215.295      167.781       72.310    46351.799    28150.297     5228.750       18.592        3.987      540.186       87.261        0.026      349.622       30.181      862.206
08/16/2014  18:25:00     -397.233     -128.802      -14.941      207.410      132.541       80.166    43019.054    17567.184     6426.562       12.080        3.351      417.593       97.056        0.054      349.562       30.078      862.204
08/16/2014  18:26:00     -402.406      -59.424      -26.155      157.134      121.651       68.023    24691.223    14799.001     4627.135       10.512        2.206      406.770       71.912        0.031      349.614       30.167      862.202
08/16/2014  18:27:00     -348.338      -33.600      -20.727      149.479      138.238       68.103    22343.869    19109.701     4638.041        8.449        2.305      349.954       70.503        0.041      349.719       30.350      862.184
08/16/2014  18:28:00     -210.298      -34.483       -3.674      155.848      108.887       69.929    24288.593    11856.287     4890.083        4.322        2.052      213.106       88.287        0.172      349.758       30.418      862.209
08/16/2014  18:29:00     -237.879      -98.596       13.865      148.093      144.473       74.556    21931.504    20872.591     5558.642        5.742        2.418      257.502       77.454        0.090      349.702       30.319      862.232
08/16/2014  18:30:00     -333.359     -217.412       -2.027      164.503      137.626       81.899    27061.148    18940.849     6707.520       10.554        2.635      397.990       88.628        0.050      349.620       30.178      862.223
08/16/2014  18:31:00     -282.650      -53.631       -2.888      179.899      107.642       72.996    32363.818    11586.886     5328.398        6.602        2.464      287.693       91.478        0.101      349.637       30.209      862.236
08/16/2014  18:32:00     -425.739     -218.773      -25.535      222.924      171.255       82.899    49695.329    29328.151     6872.298       15.781        4.295      478.660       95.244        0.040      349.523       30.010      862.217
08/16/2014  18:33:00     -209.426     -134.554        6.757      147.843      105.434       65.472    21857.698    11116.394     4286.575        4.963        1.863      248.926       58.747        0.056      349.576       30.103      862.234
08/16/2014  18:34:00     -285.437     -160.415      -14.797      167.540      163.581       87.080    28069.739    26758.831     7582.865        8.491        3.121      327.426       93.220        0.081      349.543       30.046      862.231
08/16/2014  18:35:00     -393.623     -215.586       -0.548      229.399      149.262       94.622    52623.980    22279.223     8953.270       14.262        4.193      448.794      113.588        0.064      349.502       29.975      862.207
08/16/2014  18:36:00     -308.143     -165.245      -14.415      217.509      173.556       78.351    47310.254    30121.607     6138.858       10.300        4.179      349.654      101.331        0.084      349.532       30.027      862.236
08/16/2014  18:37:00     -299.731     -115.081       -7.926      168.214      126.236       65.540    28295.883    15935.617     4295.545        7.583        2.426      321.064       84.638        0.069      349.530       30.022      862.234
08/16/2014  18:38:00     -391.007     -238.344        0.636      237.118      201.713      115.450    56224.754    40688.058    13328.808       15.995        5.512      457.924      138.971        0.092      349.459       29.900      862.214
08/16/2014  18:39:00     -313.644     -163.905       -9.516      180.740      121.132       82.125    32666.806    14672.981     6744.491        8.970        2.704      353.889       76.611        0.047      349.473       29.923      862.244
08/16/2014  18:40:00     -395.490     -124.078      -20.312      163.591      155.179       73.284    26762.145    24080.479     5370.526       11.421        2.811      414.497       77.944        0.035      349.426       29.839      862.251
08/16/2014  18:41:00     -359.974     -108.061      -14.185      132.164      103.037       71.514    17467.259    10616.644     5114.229        8.732        1.660      375.844       66.724        0.032      349.449       29.881      862.239
08/16/2014  18:42:00     -274.832     -181.625      -10.355      188.443      152.117       75.360    35510.793    23139.451     5679.156        8.647        3.216      329.424      100.448        0.093      349.466       29.910      862.240
08/16/2014  18:43:00     -302.450     -178.370       10.395      212.471      193.365      102.828    45143.840    37390.179    10573.586       10.823        4.655      351.129      107.159        0.093      349.440       29.866      862.247
08/16/2014  18:44:00     -400.252     -192.940      -24.494      212.127      164.048       81.473    44998.051    26911.595     6637.838       13.827        3.927      444.328       93.792        0.045      349.412       29.817      862.252
08/16/2014  18:45:00     -288.616      -91.872      -13.518      207.040      157.538       85.841    42865.410    24818.265     7368.742        8.347        3.753      302.885      107.390        0.126      349.442       29.869      862.260
08/16/2014  18:46:00     -388.278     -193.758      -16.838      206.091      136.469       90.215    42473.574    18623.670     8138.721       12.890        3.462      433.938       99.493        0.053      349.410       29.813      862.245
08/16/2014  18:47:00     -530.109      -25.100      -31.316      260.229      143.568      103.953    67718.895    20611.766    10806.226       19.086        4.957      530.703      123.909        0.055      349.383       29.766      862.240
08/16/2014  18:48:00     -427.985     -132.032       -7.868      205.926      181.775      103.627    42405.666    33042.328    10738.584       14.341        4.309      447.887      114.141        0.065      349.386       29.773      862.247
08/16/2014  18:49:00     -341.118     -140.836      -10.245      136.835      116.003       71.988    18723.755    13456.735     5182.213        8.682        1.868      369.048       66.219        0.032      349.383       29.766      862.262
08/16/2014  18:50:00     -225.454      -18.425       11.531      147.813      129.181       90.165    21848.551    16687.612     8129.696        4.897        2.333      226.206      101.240        0.200      349.412       29.816      862.265
08/16/2014  18:51:00     -340.899     -158.333       -2.197      218.928      166.587       84.700    47929.457    27751.395     7174.154       11.205        4.143      375.874       95.305        0.064      349.391       29.781      862.250
08/16/2014  18:52:00     -410.062     -243.307      -20.511      235.583      157.081       98.459    55499.291    24674.514     9694.079       15.880        4.493      476.811      112.287        0.055      349.298       29.619      862.242
08/16/2014  18:53:00     -297.434     -149.317       -5.636      166.981      147.244       76.700    27882.757    21680.786     5882.943        8.311        2.772      332.810       79.092        0.056      349.283       29.596      862.254
08/16/2014  18:54:00     -240.332      -67.331       -3.945      209.229      118.686       75.060    43776.737    14086.439     5634.066        6.289        3.175      249.585       70.778        0.080      349.348       29.710      862.255
08/16/2014  18:55:00     -376.086     -133.470       -9.956      158.471      143.259       70.948    25113.134    20523.123     5033.589       10.500        2.533      399.068       65.836        0.027      349.289       29.603      862.261
08/16/2014  18:56:00     -262.418     -201.541       -5.672      166.438      156.619       87.718    27701.667    24529.609     7694.431        8.471        2.996      330.880       88.309        0.071      349.278       29.586      862.286
08/16/2014  18:57:00     -335.949     -138.953        6.648      226.901      155.090       90.202    51483.974    24052.816     8136.350       10.793        4.184      363.552      114.548        0.099      349.234       29.510      862.294
08/16/2014  18:58:00     -247.106     -205.745      -14.587      205.041      154.653       87.429    42041.686    23917.483     7643.854        8.859        3.680      321.547       92.758        0.083      349.203       29.457      862.286
08/16/2014  18:59:00     -413.197      -47.191      -10.573      269.424      176.727       89.275    72589.118    31232.479     7970.089       14.241        5.590      415.883      116.814        0.079      349.170       29.399      862.289
08/16/2014  19:00:00     -258.550      -96.477       -5.961      171.635      134.169       71.259    29458.636    18001.283     5077.790        6.435        2.627      275.963       87.410        0.100      349.184       29.422      862.291
08/16/2014  19:01:00     -323.832     -150.655      -15.475      185.172      170.057       74.795    34288.718    28919.315     5594.300        9.829        3.440      357.161       77.467        0.047      349.164       29.386      862.302
08/16/2014  19:02:00     -366.530     -284.094       -0.493      176.328      142.912       93.212    31091.462    20423.814     8688.513       13.762        3.010      463.739       94.258        0.041      349.115       29.302      862.302
08/16/2014  19:03:00     -268.622     -104.175        5.792      210.036      162.944       92.553    44115.101    26550.874     8565.981        8.112        3.962      288.116      108.498        0.142      349.129       29.328      862.293
08/16/2014  19:04:00     -365.296     -133.761       -7.119      223.739      147.110       87.582    50059.361    21641.495     7670.628       11.536        3.969      389.016      114.776        0.087      349.111       29.294      862.325
08/16/2014  19:05:00     -345.179     -207.626       12.738      203.877      170.346      108.019    41565.934    29017.869    11668.207       12.232        4.113      402.812      120.169        0.089      349.055       29.199      862.327
08/16/2014  19:06:00     -342.951     -143.168      -11.208      248.698      206.574       93.088    61850.629    42672.772     8665.464       12.569        5.659      371.635      115.043        0.096      349.075       29.234      862.347
08/16/2014  19:07:00     -304.703     -210.738       -7.226      148.935      125.118       95.658    22181.544    15654.563     9150.509        9.214        2.349      370.478       90.889        0.060      349.043       29.178      862.355
08/16/2014  19:08:00     -327.943     -180.648       -4.489      189.700      137.560       87.303    35986.079    18922.827     7621.843       10.135        3.127      374.407       91.329        0.060      349.035       29.164      862.369
08/16/2014  19:09:00     -379.032     -105.040      -20.457      187.304      178.408       89.345    35082.732    31829.336     7982.571       11.499        3.745      393.317       84.563        0.046      349.017       29.133      862.380
08/16/2014  19:10:00     -252.791     -163.995       -4.065      212.964      174.979       83.734    45353.592    30617.556     7011.333        8.688        4.149      301.327      100.437        0.111      349.011       29.123      862.371
08/16/2014  19:11:00     -257.460     -118.717       -0.816      176.790      137.634       67.405    31254.867    18943.078     4543.374        6.755        2.737      283.512       49.797        0.031      349.007       29.117      862.389
08/16/2014  19:12:00     -393.554     -221.376      -26.784      255.473      150.033       98.246    65266.405    22510.003     9652.235       15.100        4.871      451.544      102.834        0.052      348.962       29.038      862.394
08/16/2014  19:13:00     -267.778      -99.807       -8.570      171.079      114.862       72.681    29267.973    13193.253     5282.551        6.473        2.387      285.773       82.499        0.083      348.994       29.094      862.410
08/16/2014  19:14:00     -230.715     -167.287       -3.328      211.914      120.613       83.196    44907.646    14547.596     6921.500        7.379        3.319      284.981       94.108        0.109      348.968       29.050      862.420
08/16/2014  19:15:00     -339.275      -66.243      -18.403      192.457      131.974       76.492    37039.611    17417.266     5850.982        9.006        3.015      345.682       93.474        0.073      348.973       29.056      862.424
08/16/2014  19:16:00     -336.198     -104.353        1.274      218.380      142.232       76.999    47689.687    20229.809     5928.812        9.887        3.692      352.021       90.879        0.067      348.948       29.012      862.440
08/16/2014  19:17:00     -434.896     -151.700       -9.632      192.157      137.581       69.217    36924.488    18928.648     4791.003       13.643        3.032      460.594       55.499        0.015      348.912       28.951      862.447
08/16/2014  19:18:00     -424.439     -264.559      -20.899      193.121      156.987       84.086    37295.600    24644.927     7070.422       15.978        3.451      500.140       78.334        0.025      348.925       28.974      862.435
08/16/2014  19:19:00     -266.131     -188.541       -5.388      146.812      134.868       76.491    21553.774    18189.431     5850.936        7.599        2.280      326.149       84.033        0.066      348.906       28.941      862.462
08/16/2014  19:20:00     -453.345     -138.513      -29.048      227.189      174.479       84.874    51615.063    30442.997     7203.584       15.739        4.463      474.033       89.969        0.036      348.877       28.889      862.472
08/16/2014  19:21:00     -358.849     -109.347      -23.603      209.661      141.394       87.399    43957.643    19992.153     7638.602       10.642        3.579      375.139      103.627        0.076      348.865       28.870      862.491
08/16/2014  19:22:00     -432.586     -238.484       -8.169      214.891      198.117       87.019    46178.011    39250.345     7572.302       16.852        4.650      493.969      100.088        0.041      348.858       28.857      862.497
08/16/2014  19:23:00     -346.107     -179.896        0.375      241.953      161.883      102.539    58541.311    26206.126    10514.193       12.369        4.763      390.067      118.348        0.092      348.832       28.812      862.516
08/16/2014  19:24:00     -394.672     -163.349       -1.732      234.207      138.272       85.998    54852.927    19119.165     7395.654       13.189        4.068      427.140       91.820        0.046      348.787       28.732      862.529
08/16/2014  19:25:00     -296.252     -145.931        2.838      206.564      174.703       95.594    42668.631    30521.238     9138.275        9.568        4.116      330.244      104.319        0.100      348.774       28.713      862.524
08/16/2014  19:26:00     -223.171      -78.598        6.252      137.970      137.936       72.232    19035.636    19026.256     5217.392        4.964        2.164      236.607       72.803        0.095      348.781       28.725      862.554
08/16/2014  19:27:00     -238.167      -75.147        8.293      234.343      139.968       85.948    54916.455    19590.949     7387.125        7.215        4.095      249.741       98.164        0.154      348.751       28.671      862.555
08/16/2014  19:28:00     -353.219     -152.616      -11.793      209.070      124.215       91.215    43710.088    15429.412     8320.110       10.781        3.373      384.779      113.062        0.086      348.714       28.610      862.580
08/16/2014  19:29:00     -308.368     -101.563        0.257      190.400      169.338       90.107    36252.188    28675.399     8119.204        8.921        3.652      324.663      100.026        0.095      348.687       28.563      862.572
08/16/2014  19:30:00     -453.984     -143.885      -28.336      194.271      169.658       78.234    37741.185    28783.746     6120.621       15.011        3.632      476.240       84.504        0.031      348.660       28.513      862.589
08/16/2014  19:31:00     -287.977     -155.118      -11.255      131.318      126.358       63.307    17244.309    15966.346     4007.810        7.216        1.861      327.096       58.566        0.032      348.623       28.451      862.611
08/16/2014  19:32:00     -232.805     -124.924       11.397      183.326      161.195       83.389    33608.526    25983.886     6953.803        6.823        3.327      264.205       87.732        0.110      348.603       28.417      862.606
08/16/2014  19:33:00     -273.967      -53.801       11.798      185.665      128.520       78.540    34471.576    16517.506     6168.497        6.761        2.858      279.200       79.025        0.080      348.574       28.367      862.619
08/16/2014  19:34:00     -424.568     -322.131      -36.270      188.668      170.222      101.045    35595.725    28975.379    10210.170       18.005        3.739      532.941      104.970        0.039      348.565       28.349      862.608
08/16/2014  19:35:00     -396.517     -201.369      -25.055      201.105      156.014       83.132    40443.165    24340.422     6910.888       13.503        3.585      444.719       85.264        0.037      348.546       28.316      862.644
08/16/2014  19:36:00     -390.417     -194.362      -26.174      191.256      128.480       79.245    36578.754    16507.209     6279.807       12.511        2.968      436.122       79.375        0.033      348.532       28.293      862.637
08/16/2014  19:37:00     -270.478     -206.227      -11.771      170.966      137.508       94.303    29229.265    18908.567     8893.064        8.642        2.852      340.129      101.120        0.088      348.505       28.247      862.645
08/16/2014  19:38:00     -357.367     -134.950       -6.898      229.082      181.913       86.647    52478.367    33092.364     7507.736       11.951        4.654      381.999      104.003        0.074      348.492       28.225      862.650
08/16/2014  19:39:00     -384.007     -181.291      -23.715      222.260      163.487       96.097    49399.505    26728.065     9234.570       13.311        4.268      424.650      103.891        0.060      348.502       28.241      862.648
08/16/2014  19:40:00     -320.934     -184.314        8.565      200.047      165.394       77.404    40018.935    27355.231     5991.344       10.519        3.668      370.095       95.340        0.066      348.475       28.195      862.659
08/16/2014  19:41:00     -224.764     -121.080       15.306      166.299      112.905       82.863    27655.348    12747.469     6866.326        5.633        2.363      255.302       94.789        0.138      348.435       28.127      862.683
08/16/2014  19:42:00     -364.112     -215.558      -13.041      189.596      160.681       90.123    35946.701    25818.297     8122.146       12.454        3.494      423.134      100.185        0.056      348.442       28.137      862.659
08/16/2014  19:43:00     -349.939     -200.962       -4.151      147.166      150.418       82.207    21657.728    22625.472     6757.976       10.694        2.552      403.538       82.445        0.042      348.408       28.078      862.661
08/16/2014  19:44:00     -330.951     -240.869       -9.455      188.013      148.488       91.530    35348.986    22048.594     8377.674       11.669        3.289      409.324       85.905        0.044      348.387       28.042      862.669
08/16/2014  19:45:00     -266.659     -130.488       -7.588      158.748      138.375       68.411    25200.863    19147.579     4680.068        6.860        2.451      296.874       65.793        0.049      348.388       28.044      862.681
08/16/2014  19:46:00     -296.996     -105.019        3.343      200.696      130.612       69.914    40278.784    17059.502     4887.950        8.072        3.111      315.017       82.930        0.069      348.361       27.998      862.707
08/16/2014  19:47:00     -351.543     -254.994       -9.450      174.313      126.480       80.570    30384.881    15997.177     6491.589       12.077        2.644      434.286       87.541        0.041      348.361       27.995      862.706
08/16/2014  19:48:00     -334.302     -133.088        4.211      176.052      132.643       75.164    30994.340    17594.295     5649.696        9.185        2.712      359.820       76.466        0.045      348.334       27.948      862.730
08/16/2014  19:49:00     -285.089     -122.904       19.166      170.293      180.544       85.200    28999.780    32596.059     7258.991        8.279        3.443      310.453       87.828        0.080      348.311       27.910      862.726
08/16/2014  19:50:00     -393.300     -125.918      -16.975      194.455      155.078       73.753    37812.775    24049.267     5439.564       11.905        3.365      412.966       84.265        0.042      348.294       27.879      862.748
08/16/2014  19:51:00     -393.303     -154.825        5.796      235.788      165.672       89.224    55596.085    27447.296     7960.867       13.483        4.550      422.680      105.726        0.063      348.280       27.856      862.762
08/16/2014  19:52:00     -318.206      -86.116      -10.448      165.329      135.512       82.129    27333.814    18363.487     6745.252        8.060        2.622      329.652       76.443        0.054      348.271       27.841      862.776
08/16/2014  19:53:00     -244.571     -171.910        3.845      165.330      140.066       82.340    27334.010    19618.434     6779.904        7.155        2.687      298.945       90.180        0.091      348.253       27.811      862.800
08/16/2014  19:54:00     -265.754     -134.744        3.582      174.467      138.455       90.091    30438.654    19169.770     8116.308        7.325        2.886      297.962       90.758        0.093      348.253       27.810      862.795
08/16/2014  19:55:00     -241.497     -112.934       -1.016      158.892      108.293       73.124    25246.756    11727.402     5347.047        5.669        2.116      266.599       77.785        0.085      348.217       27.751      862.830
08/16/2014  19:56:00     -202.650     -177.971       11.300      148.028      126.565       74.275    21912.418    16018.672     5516.823        5.815        2.172      269.705       76.006        0.079      348.190       27.703      862.824
08/16/2014  19:57:00     -283.272     -114.954       -7.806      127.170      113.401       62.346    16172.094    12859.758     3886.964        6.321        1.646      305.708       67.284        0.048      348.178       27.681      862.833
08/16/2014  19:58:00     -346.127     -187.826      -18.203      192.243      124.251       76.303    36957.222    15438.218     5822.100       10.680        2.911      393.805       87.180        0.049      348.170       27.668      862.834
08/16/2014  19:59:00     -227.791     -137.153        2.795      171.698      117.137       63.348    29480.053    13721.115     4012.995        5.895        2.361      265.894       69.512        0.068      348.107       27.559      862.835
08/16/2014  20:00:00     -381.565     -133.235       -7.390      221.882      114.161       81.096    49231.723    13032.729     6576.535       11.611        3.442      404.158      100.989        0.062      348.090       27.529      862.854
08/16/2014  20:01:00     -243.820     -103.661       -5.631       97.961       87.127       49.519     9596.275     7591.035     2452.156        4.493        0.982      264.941       40.424        0.023      348.103       27.552      862.876
08/16/2014  20:02:00     -342.054      -82.298       -3.463      143.425      164.450       76.366    20570.623    27043.713     5831.762        8.861        2.672      351.815       81.903        0.054      348.084       27.519      862.902
08/16/2014  20:03:00     -231.101     -205.457        5.235      157.975      122.793       88.113    24956.122    15078.162     7763.943        7.171        2.390      309.225       92.074        0.089      348.045       27.450      862.921
08/16/2014  20:04:00     -239.119     -151.762      -15.496       98.561       74.966       51.060     9714.366     5619.904     2607.104        4.919        0.897      283.213       43.324        0.023      348.032       27.427      862.953
08/16/2014  20:05:00     -129.670      -72.718       -1.330       86.528       68.725       43.964     7487.058     4723.149     1932.874        1.812        0.707      148.668       37.023        0.062      347.967       27.317      862.967
08/16/2014  20:06:00     -331.494      -83.051      -12.444      126.301      113.501       52.743    15951.824    12882.570     2781.835        7.427        1.581      341.740       57.134        0.028      347.967       27.318      862.985
08/16/2014  20:07:00     -140.648      -27.237        6.810       74.707       66.858       36.772     5581.102     4469.972     1352.143        1.598        0.570      143.261       33.609        0.055      347.957       27.301      863.000
08/16/2014  20:08:00     -180.488      -15.144       -3.560       72.642       55.041       41.208     5276.847     3029.524     1698.111        2.141        0.500      181.123       34.392        0.036      347.899       27.202      863.014
08/16/2014  20:09:00     -233.559      -98.105        1.671      110.171       80.802       49.916    12137.581     6528.959     2491.656        4.266        1.058      253.326       51.071        0.041      347.876       27.159      863.031
08/16/2014  20:10:00     -275.285       -4.863      -20.158       75.027       76.707       48.246     5628.980     5883.917     2327.676        4.502        0.692      275.328       44.575        0.026      347.893       27.187      863.049
08/16/2014  20:11:00     -267.284      -40.413      -20.117       91.656       95.327       44.235     8400.845     9087.249     1956.758        4.646        0.972      270.322       35.044        0.017      347.889       27.180      863.060
08/16/2014  20:12:00     -217.180      -21.513       -8.873       91.891       65.862       38.239     8443.973     4337.754     1462.208        3.097        0.712      218.243       37.622        0.030      347.826       27.072      863.094
08/16/2014  20:13:00     -218.677      -54.692        1.826      115.670       95.870       56.519    13379.486     9191.081     3194.343        3.828        1.288      225.413       62.890        0.078      347.857       27.126      863.115
08/16/2014  20:14:00     -173.212      -42.839      -18.553       90.592       72.947       39.705     8206.862     5321.222     1576.499        2.364        0.755      178.431       27.420        0.024      347.884       27.174      863.124
08/16/2014  20:15:00     -208.438      -16.341      -12.463       82.984       78.198       49.314     6886.308     6114.882     2431.868        2.965        0.772      209.077       46.847        0.050      347.888       27.179      863.139
08/16/2014  20:16:00     -202.234      -15.648      -16.722       97.108       59.144       38.616     9430.049     3497.964     1491.204        2.792        0.721      202.838       35.934        0.031      347.835       27.089      863.149
08/16/2014  20:17:00     -185.079       21.848      -28.468       70.655       41.449       37.305     4992.189     1718.011     1391.697        2.182        0.405      186.364       27.352        0.022      347.844       27.105      863.155
08/16/2014  20:18:00      -93.461       73.902        3.540       70.370       74.351       35.737     4951.981     5528.074     1277.128        1.298        0.588      119.149       31.732        0.071      347.749       26.943      863.177
08/16/2014  20:19:00     -150.646       59.788      -16.042      183.684       74.494       52.337    33739.881     5549.336     2739.179        3.427        2.101      162.077       80.425        0.246      347.760       26.961      863.201
08/16/2014  20:20:00     -252.715       23.975      -25.552       78.835       66.272       42.358     6214.951     4392.024     1794.208        3.874        0.620      253.850       35.945        0.020      347.773       26.982      863.225
08/16/2014  20:21:00      -81.603       -7.175        2.991       67.860       69.855       35.958     4605.041     4879.719     1293.002        0.875        0.539       81.918       34.590        0.178      347.687       26.836      863.265
08/16/2014  20:22:00     -184.450      -92.946       -9.145       84.878       69.821       39.016     7204.301     4874.979     1522.278        2.817        0.680      206.545       29.613        0.021      347.640       26.753      863.290
08/16/2014  20:23:00      -48.787        2.068       12.385       38.533       52.128       28.946     1484.813     2717.288      837.888        0.379        0.252       48.831       14.687        0.090      347.577       26.649      863.305
08/16/2014  20:24:00     -155.443       81.393      -21.878      102.284       95.140       37.214    10462.015     9051.647     1384.907        2.608        1.045      175.463       40.105        0.052      347.609       26.700      863.319
08/16/2014  20:25:00     -193.148       77.725      -21.154      108.142      114.597       53.370    11694.763    13132.547     2848.334        3.573        1.384      208.200       44.361        0.045      347.661       26.791      863.329
08/16/2014  20:26:00     -115.731      118.683      -12.358       81.681      105.755       45.813     6671.855    11184.175     2098.867        2.379        0.998      165.769       46.260        0.078      347.612       26.704      863.323
08/16/2014  20:27:00      -75.446      106.487      -23.710       33.262       70.832       27.878     1106.387     5017.204      777.200        1.225        0.345      130.506       30.024        0.053      347.526       26.557      863.315
08/16/2014  20:28:00      -96.514       57.493      -14.365       34.716       56.051       25.531     1205.183     3141.682      651.814        0.891        0.250      112.340       14.155        0.016      347.578       26.648      863.329
08/16/2014  20:29:00     -170.877       46.258      -15.200      108.900       52.805       30.067    11859.110     2788.389      904.011        2.356        0.778      177.028       44.574        0.063      347.624       26.727      863.349
08/16/2014  20:30:00     -123.942      141.936      -20.293       74.146       86.218       48.361     5497.580     7433.554     2338.749        2.559        0.763      188.434       52.554        0.078      347.549       26.597      863.355
08/16/2014  20:31:00     -102.387      127.441      -27.618       56.142       68.363       42.658     3151.871     4673.564     1819.742        1.856        0.482      163.475       28.848        0.031      347.583       26.657      863.347
08/16/2014  20:32:00     -169.730      115.871      -29.346       57.734       82.182       35.931     3333.173     6753.865     1291.017        2.723        0.569      205.510       33.814        0.027      347.629       26.735      863.383
08/16/2014  20:33:00     -137.562       34.987       -4.368       63.262      100.282       33.056     4002.080    10056.411     1092.727        1.766        0.758      141.942       25.320        0.032      347.607       26.697      863.393
08/16/2014  20:34:00     -158.696       73.419      -18.514      124.252       60.293       43.970    15438.578     3635.277     1933.335        2.596        1.050      174.856       66.255        0.144      347.582       26.652      863.407
08/16/2014  20:35:00     -173.022       80.837      -18.862       89.305       89.642       45.222     7975.400     8035.661     2045.045        2.744        0.903      190.975       49.756        0.068      347.512       26.532      863.413
08/16/2014  20:36:00     -185.870      110.414      -11.840      118.215       84.374       59.231    13974.850     7118.990     3508.271        3.574        1.230      216.192       52.689        0.059      347.500       26.511      863.409
08/16/2014  20:37:00     -143.206      147.450      -15.169       62.987       87.319       48.098     3967.384     7624.586     2313.422        2.819        0.695      205.546       40.081        0.038      347.470       26.460      863.395
08/16/2014  20:38:00     -124.806       94.019      -23.368       56.469       81.296       31.048     3188.799     6609.095      963.980        1.786        0.538      156.257       35.822        0.053      347.500       26.512      863.399
08/16/2014  20:39:00     -135.678      118.348      -30.379       67.518       56.811       37.079     4558.638     3227.524     1374.887        2.125        0.458      180.041       33.598        0.035      347.515       26.538      863.410
08/16/2014  20:40:00     -141.045      134.050      -31.587       45.886       94.861       36.697     2105.511     8998.560     1346.697        2.565        0.623      194.585       29.673        0.023      347.486       26.489      863.442
08/16/2014  20:41:00     -114.506       79.026      -13.644       69.384      122.088       47.822     4814.173    14905.552     2286.922        2.077        1.100      139.129       39.385        0.080      347.415       26.366      863.450
08/16/2014  20:42:00      -63.689        7.703      -11.234       56.928       70.575       29.397     3240.781     4980.854      864.209        0.666        0.454       64.153       19.823        0.095      347.382       26.310      863.474
08/16/2014  20:43:00     -106.942       93.312      -19.961       68.830       68.290       42.601     4737.636     4663.574     1814.874        1.588        0.561      141.928       42.669        0.090      347.407       26.352      863.483
08/16/2014  20:44:00      -69.021       71.060      -10.127       42.582       41.587       29.836     1813.243     1729.485      890.206        0.717        0.222       99.062       23.799        0.058      347.422       26.380      863.497
08/16/2014  20:45:00     -104.234       44.846        7.681       64.382       79.264       41.625     4145.096     6282.729     1732.649        1.255        0.608      113.472       34.815        0.094      347.317       26.198      863.527
08/16/2014  20:46:00     -232.444        7.893      -31.971       69.801       61.237       38.540     4872.216     3749.985     1485.354        3.261        0.505      232.578       24.205        0.011      347.313       26.189      863.537
08/16/2014  20:47:00      -85.497      -31.529       -2.380       78.167       61.742       33.021     6110.022     3812.029     1090.402        0.966        0.551       91.125       37.892        0.173      347.214       26.021      863.557
08/16/2014  20:48:00      -39.653       97.199        2.289       46.685       66.724       38.898     2179.504     4452.067     1513.033        0.958        0.407      104.976       17.310        0.027      347.139       25.890      863.570
08/16/2014  20:49:00     -114.744      146.115      -17.773       49.035      114.501       43.204     2404.440    13110.457     1866.563        2.610        0.869      185.785       22.631        0.015      347.210       26.012      863.569
08/16/2014  20:50:00     -107.033       86.849      -22.148       50.274       57.058       37.138     2527.476     3255.601     1379.215        1.332        0.358      137.836       32.944        0.057      347.243       26.071      863.592
08/16/2014  20:51:00     -123.081      100.614      -17.706       60.491       73.580       37.626     3659.120     5414.003     1415.685        1.804        0.524      158.973       34.627        0.047      347.233       26.053      863.623
08/16/2014  20:52:00     -116.174      -32.435       -1.260      100.058       98.352       32.054    10011.685     9673.089     1027.432        1.763        1.036      120.617       29.964        0.062      347.173       25.950      863.627
08/16/2014  20:53:00     -100.548       54.573       -5.185       71.152      125.625       47.317     5062.641    15781.667     2238.906        1.809        1.154      114.403       54.349        0.226      347.180       25.963      863.646
08/16/2014  20:54:00     -149.380       64.520       -7.967       78.172       74.558       55.573     6110.787     5558.876     3088.390        2.065        0.738      162.718       50.169        0.095      347.215       26.022      863.657
08/16/2014  20:55:00     -135.776       27.058      -14.729      137.103       98.709       45.458    18797.201     9743.550     2066.421        2.499        1.530      138.446       56.489        0.166      347.231       26.049      863.638
08/16/2014  20:56:00     -137.519       61.987      -20.247       80.689       67.593       35.269     6510.642     4568.782     1243.874        1.774        0.616      150.843       39.070        0.067      347.233       26.052      863.649
08/16/2014  20:57:00     -111.646      -17.830       -4.704      133.495       54.165       41.312    17820.930     2933.885     1706.681        1.763        1.123      113.060       57.338        0.257      347.136       25.885      863.671
08/16/2014  20:58:00     -273.314      -23.754      -11.223      138.029      141.032       62.297    19052.045    19890.044     3880.906        5.910        2.141      274.345       64.493        0.055      347.193       25.982      863.689
08/16/2014  20:59:00     -337.971      -83.324      -20.710      115.443       92.554       47.184    13327.000     8566.319     2226.312        7.285        1.206      348.091       46.059        0.018      347.209       26.009      863.722
08/16/2014  21:00:00     -228.496       -5.353      -27.743      133.383       76.088       43.455    17790.992     5789.320     1888.350        3.923        1.273      228.559       52.959        0.054      347.168       25.939      863.729
08/16/2014  21:01:00      -75.918      -38.415        7.700       52.899       69.791       32.841     2798.297     4870.724     1078.501        0.802        0.437       85.084       23.396        0.076      347.117       25.853      863.749
08/16/2014  21:02:00     -257.726      -76.563      -10.374      124.101       87.172       50.346    15401.143     7598.873     2534.757        4.896        1.277      268.858       51.200        0.036      347.174       25.949      863.762
08/16/2014  21:03:00     -123.696       68.573      -30.625       32.291       74.610       29.067     1042.733     5566.584      844.868        1.420        0.373      141.432       33.666        0.057      347.216       26.024      863.781
08/16/2014  21:04:00       -8.931       31.844        5.270       48.261       42.771       29.312     2329.168     1829.391      859.171        0.307        0.251       33.072       29.248        0.782      347.133       25.883      863.776
08/16/2014  21:05:00      -64.820        2.727      -13.711       25.473       40.746       12.935      648.881     1660.222      167.307        0.344        0.124       64.877        9.187        0.020      347.160       25.930      863.811
08/16/2014  21:06:00      -99.945       81.312      -32.380       48.250       69.049       25.815     2328.088     4767.737      666.435        1.270        0.388      128.843       27.073        0.044      347.231       26.049      863.846
08/16/2014  21:07:00     -152.999        6.047      -18.760       48.438       50.270       25.219     2346.233     2527.038      635.993        1.465        0.275      153.118       26.129        0.029      347.162       25.931      863.859
08/16/2014  21:08:00      -99.202      -21.153       -6.309       44.565       47.276       21.177     1985.999     2235.047      448.456        0.750        0.233      101.432       13.032        0.017      347.004       25.659      863.904
08/16/2014  21:09:00      -60.552       39.764       -6.486       45.108       30.944       22.793     2034.750      957.539      519.510        0.440        0.176       72.441       21.711        0.090      347.134       25.884      863.921
08/16/2014  21:10:00      -12.521       55.513       -3.977       30.027       30.726       26.307      901.624      944.065      692.083        0.290        0.127       56.907       21.133        0.138      347.125       25.869      863.906
08/16/2014  21:11:00       20.929       26.548        8.328       24.191       26.151       15.493      585.199      683.896      240.027        0.136        0.075       33.806        9.244        0.075      347.133       25.882      863.886
08/16/2014  21:12:00      -71.838       86.990      -10.309       40.596       49.585       21.994     1648.036     2458.692      483.715        0.871        0.230      112.819       22.528        0.040      347.082       25.795      863.937
08/16/2014  21:13:00     -204.363       34.045       -7.802      128.247       89.766       63.550    16447.191     8057.890     4038.644        3.576        1.427      207.180       62.225        0.090      347.141       25.892      863.942
08/16/2014  21:14:00     -221.922        8.945      -20.108      157.206       78.411       44.990    24713.765     6148.305     2024.119        4.130        1.644      222.102       65.013        0.086      347.029       25.699      863.970
08/16/2014  21:15:00      -91.533      -28.270        1.553       75.068       61.809       32.933     5635.259     3820.381     1084.560        0.986        0.527       95.799       33.439        0.122      346.934       25.539      863.943
08/16/2014  21:16:00     -205.378      -52.065       -6.051      107.820       63.940       33.319    11625.115     4088.349     1110.132        3.087        0.841      211.875       47.461        0.050      347.039       25.716      863.949
08/16/2014  21:17:00     -353.427     -117.007      -16.814      124.451      100.530       62.447    15488.103    10106.330     3899.662        8.418        1.475      372.292       51.996        0.020      347.023       25.688      863.983
08/16/2014  21:18:00     -398.471       12.233      -35.275      128.130      108.948       70.786    16417.267    11869.625     5010.630        9.673        1.665      398.658       65.781        0.027      347.067       25.763      864.007
08/16/2014  21:19:00     -324.494      -64.079      -17.039      148.719      107.400       66.214    22117.279    11534.795     4384.246        7.386        1.902      330.760       74.641        0.051      347.042       25.720      864.011
08/16/2014  21:20:00     -457.374        9.811      -35.902      144.423      112.204       55.367    20857.910    12589.656     3065.467       12.354        1.826      457.479       59.524        0.017      347.099       25.819      864.015
08/16/2014  21:21:00     -235.387     -117.947        9.861      180.077      128.212       82.809    32427.714    16438.224     6857.315        6.256        2.786      263.284       90.903        0.119      347.005       25.657      864.000
08/16/2014  21:22:00     -424.760     -114.910       -5.026      219.863      143.374       81.400    48339.847    20556.013     6626.030       13.457        3.776      440.029       92.124        0.044      347.040       25.718      864.004
08/16/2014  21:23:00     -404.218      -55.891      -16.260      192.913      118.153       67.942    37215.428    13960.116     4616.049       11.127        2.790      408.063       76.948        0.036      347.051       25.737      864.003
08/16/2014  21:24:00     -245.189      -65.701        1.935      137.596      102.379       59.214    18932.669    10481.375     3506.326        4.867        1.646      253.839       65.527        0.067      346.996       25.643      864.036
08/16/2014  21:25:00     -163.663     -105.453       -0.987      124.053      111.768       66.004    15389.245    12492.089     4356.536        3.507        1.612      194.694       60.323        0.096      347.048       25.731      864.030
08/16/2014  21:26:00     -168.517      -21.640       -6.184       65.195       74.997       44.933     4250.361     5624.579     2019.002        2.040        0.595      169.901       36.673        0.047      347.026       25.693      864.025
08/16/2014  21:27:00     -138.555      -41.049       -1.979       63.990       46.430       28.122     4094.778     2155.772      790.859        1.396        0.352      144.507       23.639        0.027      346.979       25.615      864.013
08/16/2014  21:28:00     -213.223      -59.599       -4.679      103.941       88.723       50.494    10803.661     7871.749     2549.659        3.513        1.061      221.396       50.268        0.052      346.890       25.459      864.005
08/16/2014  21:29:00     -288.583      -53.726      -18.419       87.848       89.142       43.831     7717.262     7946.366     1921.197        5.204        0.879      293.541       30.191        0.011      346.875       25.434      864.032
08/16/2014  21:30:00     -322.997        6.427      -36.335       76.287       83.167       42.877     5819.674     6916.756     1838.457        6.013        0.729      323.061       40.464        0.016      346.886       25.452      864.031
08/16/2014  21:31:00     -308.643      -58.324      -17.223      118.082       78.650       56.824    13943.415     6185.881     3228.926        6.115        1.168      314.105       62.092        0.039      346.905       25.485      864.022
08/16/2014  21:32:00     -158.872      -62.820       -7.187       83.755       61.897       36.328     7014.982     3831.251     1319.715        2.070        0.608      170.841       35.601        0.043      346.839       25.373      863.998
08/16/2014  21:33:00     -150.493      -92.063       -7.188       70.395       59.614       45.924     4955.390     3553.887     2109.021        2.089        0.531      176.419       42.790        0.059      346.777       25.268      864.006
08/16/2014  21:34:00     -293.378      -60.793      -16.031       97.522       65.720       45.958     9510.626     4319.175     2112.125        5.298        0.797      299.610       38.794        0.017      346.825       25.347      864.034
08/16/2014  21:35:00     -303.776      -35.921      -21.241       68.293       72.520       42.987     4663.928     5259.204     1847.893        5.289        0.589      305.892       33.542        0.012      346.842       25.376      864.030
08/16/2014  21:36:00     -227.133      -60.121      -15.747      126.719       81.012       51.414    16057.825     6563.021     2643.386        4.035        1.263      234.955       61.005        0.067      346.779       25.269      863.990
08/16/2014  21:37:00     -322.263      -70.337      -24.315      151.363      106.641       66.556    22910.662    11372.344     4429.702        7.404        1.936      329.849       69.443        0.044      346.768       25.250      863.992
08/16/2014  21:38:00     -345.298      -82.647      -17.344      116.793      118.976       69.958    13640.494    14155.254     4894.052        7.952        1.634      355.051       73.675        0.043      346.773       25.259      863.996
08/16/2014  21:39:00     -160.504      -68.587       -0.902      109.999       69.705       51.786    12099.759     4858.742     2681.799        2.505        0.982      174.544       45.728        0.069      346.725       25.177      864.000
08/16/2014  21:40:00     -230.588      -77.008       -8.156      128.792       81.030       43.077    16587.383     6565.844     1855.593        4.208        1.250      243.107       56.014        0.053      346.738       25.199      863.988
08/16/2014  21:41:00     -193.473      -55.815        0.772      130.676       90.965       48.416    17076.124     8274.716     2344.138        3.412        1.385      201.363       59.769        0.088      346.721       25.169      863.963
08/16/2014  21:42:00     -289.556      -39.177      -14.562      195.098       93.338       66.362    38063.355     8712.066     4403.919        6.837        2.559      292.194       81.857        0.078      346.690       25.116      863.972
08/16/2014  21:43:00     -359.684      -96.902      -26.236      103.265      135.960       60.421    10663.668    18485.090     3650.675        8.612        1.640      372.509       52.959        0.020      346.711       25.151      863.987
08/16/2014  21:44:00     -398.663      -43.394      -27.627      166.960      122.254       69.357    27875.741    14946.119     4810.368       10.460        2.382      401.018       75.142        0.035      346.744       25.207      863.989
08/16/2014  21:45:00     -255.412      -39.436      -11.968      115.100      104.792       55.393    13247.902    10981.343     3068.402        4.711        1.365      258.439       52.422        0.041      346.764       25.242      864.010
08/16/2014  21:46:00     -194.377      -55.773      -22.890      105.655       69.679       46.461    11163.065     4855.136     2158.611        2.979        0.909      202.220       53.610        0.070      346.904       25.484      863.965
08/16/2014  21:47:00     -370.001      -38.500      -22.519      175.341      121.412       67.906    30744.368    14740.880     4611.228        9.448        2.505      371.999       66.428        0.032      346.821       25.339      863.940
08/16/2014  21:48:00     -475.758       98.158      -23.906      163.616      102.855       65.783    26770.168    10579.211     4327.432       13.911        2.084      485.778       60.803        0.016      346.776       25.263      863.965
08/16/2014  21:49:00     -318.964      -76.924        5.051      165.591      157.519       80.600    27420.417    24812.360     6496.327        8.319        2.936      328.109       83.595        0.065      346.747       25.213      864.011
08/16/2014  21:50:00     -298.587      -85.513      -12.968      160.164      136.165       64.675    25652.496    18541.041     4182.795        7.250        2.419      310.591       65.752        0.045      346.831       25.359      864.057
08/16/2014  21:51:00      -86.276      -34.033       -3.331       83.798       38.180       30.940     7022.047     1457.695      957.272        0.902        0.472       92.746       29.864        0.104      346.775       25.264      864.015
08/16/2014  21:52:00     -206.930       47.203      -21.252      223.530      123.085       50.744    49965.818    15149.906     2574.963        5.658        3.385      212.245       75.731        0.127      346.777       25.267      863.968
08/16/2014  21:53:00     -377.830      -85.339      -17.023      160.548      114.685       64.813    25775.671    13152.602     4200.676        9.672        2.156      387.348       62.109        0.026      346.760       25.235      863.993
08/16/2014  21:54:00     -304.715      -52.276      -18.611      160.498      119.548       59.315    25759.575    14291.656     3518.262        6.974        2.178      309.167       67.808        0.048      346.725       25.176      863.986
08/16/2014  21:55:00     -392.901      -29.892      -23.684      153.097      131.383       68.099    23438.839    17261.377     4637.407       10.057        2.267      394.036       73.523        0.035      346.687       25.110      863.992
08/16/2014  21:56:00     -319.151      -71.717        6.095      204.162      136.804       76.795    41682.305    18715.296     5897.461        8.665        3.315      327.110       90.289        0.076      346.686       25.109      864.020
08/16/2014  21:57:00     -358.534      -57.743      -13.609      163.560      134.498       60.028    26751.944    18089.683     3603.325        9.025        2.422      363.155       64.231        0.031      346.733       25.190      864.048
08/16/2014  21:58:00     -161.671      -96.205       12.847      161.577       84.857       51.120    26107.284     7200.708     2613.240        3.573        1.796      188.130       55.329        0.086      346.713       25.155      864.065
08/16/2014  21:59:00     -242.167     -131.741      -15.761      120.532       87.269       63.588    14527.890     7615.818     4043.413        5.121        1.309      275.682       71.705        0.068      346.764       25.243      864.044
08/16/2014  22:00:00     -124.678     -100.045       28.168      146.516      107.191       82.105    21466.914    11489.881     6741.267        3.301        1.985      159.855       82.399        0.266      346.691       25.117      864.028
08/16/2014  22:01:00     -271.601      -29.981      -16.284      103.800      138.589       56.639    10774.465    19206.822     3207.923        5.405        1.659      273.251       47.882        0.031      346.665       25.073      864.040
08/16/2014  22:02:00     -257.692       -9.539      -13.150      141.715      134.771       64.674    20083.071    18163.189     4182.729        5.454        2.121      257.868       64.673        0.063      346.621       24.998      864.056
08/16/2014  22:03:00     -304.448      -37.852      -17.063       87.691       86.154       45.758     7689.754     7422.444     2093.770        5.581        0.860      306.792       45.691        0.022      346.623       24.999      864.044
08/16/2014  22:04:00     -110.910      -21.336       16.245      141.685       86.587       65.161    20074.708     7497.283     4245.943        2.241        1.591      112.944       76.607        0.460      346.555       24.885      864.010
08/16/2014  22:05:00     -266.435      -71.634       -0.465      156.046      115.408       73.733    24350.311    13318.999     5436.605        5.960        2.155      275.896       72.515        0.069      346.535       24.848      864.044
08/16/2014  22:06:00     -157.298     -145.120       10.214      182.252      115.496       67.956    33215.915    13339.283     4618.026        4.853        2.559      214.015       85.203        0.158      346.540       24.858      864.046
08/16/2014  22:07:00     -249.071       -7.318       -2.778      146.321      104.429       53.905    21409.857    10905.351     2905.744        4.865        1.761      249.179       60.792        0.060      346.512       24.810      864.034
08/16/2014  22:08:00     -349.720     -109.187      -22.446      126.785       81.984       53.306    16074.547     6721.381     2841.482        8.018        1.282      366.368       64.521        0.031      346.527       24.835      864.041
08/16/2014  22:09:00     -180.898      -50.426      -22.122      119.854       83.631       54.183    14365.016     6994.214     2935.849        3.002        1.215      187.794       54.037        0.083      346.557       24.888      864.028
08/16/2014  22:10:00     -117.914      -85.272       11.529      104.684       94.261       52.002    10958.687     8885.204     2704.239        2.192        1.127      145.516       63.189        0.189      346.477       24.750      864.017
08/16/2014  22:11:00     -126.309      -18.314        3.664       77.644       82.223       45.614     6028.519     6760.682     2080.618        1.558        0.743      127.629       37.584        0.087      346.461       24.723      864.018
08/16/2014  22:12:00     -330.103      -45.154      -24.607      190.660      116.574       78.170    36351.140    13589.477     6110.498        8.382        2.803      333.177       97.000        0.085      346.438       24.683      863.976
08/16/2014  22:13:00     -252.091      -58.956      -16.500      134.580      130.832       63.802    18111.809    17117.079     4070.643        5.329        1.965      258.893       61.398        0.056      346.430       24.668      863.955
08/16/2014  22:14:00     -302.853      -89.383       -4.378      223.003      142.040       77.248    49730.486    20175.413     5967.186        8.779        3.794      315.768      104.132        0.109      346.408       24.632      863.950
08/16/2014  22:15:00     -262.634      -58.860      -23.011      198.381      119.811       76.438    39355.110    14354.575     5842.732        6.625        2.978      269.149      102.073        0.144      346.395       24.611      863.961
08/16/2014  22:16:00     -300.273      -75.838      -34.465      124.878      124.895       53.892    15594.434    15598.654     2904.339        6.559        1.705      309.702       52.076        0.028      346.468       24.735      863.952
08/16/2014  22:17:00     -298.983     -112.112       -9.709      125.989      127.615       67.805    15873.301    16285.493     4597.575        6.940        1.838      319.312       65.374        0.042      346.460       24.721      863.950
08/16/2014  22:18:00     -282.627     -123.456      -18.863       90.747      102.789       53.015     8235.094    10565.585     2810.592        5.854        1.081      308.414       43.263        0.020      346.453       24.707      863.944
08/16/2014  22:19:00     -128.328      -98.375        9.696      135.132       83.321       61.186    18260.677     6942.464     3743.787        2.759        1.447      161.697       70.303        0.189      346.421       24.654      863.952
08/16/2014  22:20:00     -213.605     -130.400        6.565      149.161       99.095       59.218    22249.035     9819.840     3506.780        4.912        1.779      250.262       71.921        0.083      346.370       24.565      863.962
08/16/2014  22:21:00     -240.311      -73.687       -9.446      172.019       95.300       58.900    29590.474     9082.117     3469.240        5.270        2.107      251.355       69.394        0.076      346.371       24.570      863.989
08/16/2014  22:22:00     -230.797     -130.408        1.737      132.424       85.451       58.013    17536.197     7301.952     3365.522        4.923        1.410      265.092       60.976        0.053      346.390       24.600      863.992
08/16/2014  22:23:00     -261.445      -76.619      -11.256      142.591       99.111       69.008    20332.224     9822.964     4762.107        5.463        1.746      272.441       73.228        0.072      346.373       24.569      863.973
08/16/2014  22:24:00     -205.701      -91.441        6.171      133.128      136.232       72.143    17722.977    18559.128     5204.632        4.609        2.074      225.109       52.498        0.054      346.374       24.573      863.979
08/16/2014  22:25:00     -203.404      -61.487       -5.665      131.512       78.067       59.204    17295.342     6094.435     3505.068        3.604        1.345      212.494       59.235        0.078      346.337       24.510      863.978
08/16/2014  22:26:00     -264.702      -87.746       13.909      174.856      111.673       73.187    30574.775    12470.862     5356.288        6.317        2.420      278.866       76.157        0.075      346.351       24.533      863.999
08/16/2014  22:27:00     -299.858       -6.148      -18.355      135.326       96.732       57.743    18313.132     9357.155     3334.262        6.064        1.550      299.921       58.852        0.039      346.367       24.561      864.004
08/16/2014  22:28:00     -194.887      -35.504      -11.475      114.785       84.692       45.014    13175.497     7172.732     2026.269        3.087        1.119      198.095       43.056        0.047      346.318       24.477      863.984
08/16/2014  22:29:00     -285.462     -155.110      -15.491      146.958      112.704       72.017    21596.705    12702.222     5186.437        7.263        1.974      324.881       65.223        0.040      346.329       24.496      864.006
08/16/2014  22:30:00     -309.392      -63.335       -5.609      180.013      120.026       57.169    32404.637    14406.141     3268.280        7.491        2.504      315.808       40.159        0.016      346.340       24.512      864.025
08/16/2014  22:31:00     -352.296      -78.015      -11.778      131.750      112.476       52.927    17358.049    12650.759     2801.243        8.157        1.641      360.830       50.803        0.020      346.415       24.641      864.041
08/16/2014  22:32:00      -77.803      -91.661        7.751       87.067       69.586       41.348     7580.702     4842.182     1709.685        1.432        0.707      120.229       48.875        0.165      346.325       24.489      864.048
08/16/2014  22:33:00     -170.803     -106.661       -3.828      117.895      124.411       60.000    13899.161    15478.194     3599.972        3.676        1.649      201.371       60.422        0.090      346.303       24.451      864.057
08/16/2014  22:34:00     -239.155      -71.925       -8.670       71.117       84.746       46.266     5057.649     7181.896     2140.526        3.841        0.719      249.736       41.691        0.028      346.288       24.423      864.104
08/16/2014  22:35:00     -177.855      -72.724      -11.423      144.015       76.172       54.598    20740.373     5802.247     2980.925        3.328        1.476      192.149       69.326        0.130      346.282       24.417      864.127
08/16/2014  22:36:00      -17.394      -29.796       18.206       46.596       43.836       27.026     2171.213     1921.614      730.418        0.317        0.241       34.502       20.822        0.364      346.198       24.272      864.131
08/16/2014  22:37:00      -94.455      -29.122        4.337       84.559       53.077       36.184     7150.240     2817.134     1309.306        1.053        0.564       98.842       43.799        0.196      346.259       24.377      864.169
08/16/2014  22:38:00     -122.829       40.870      -11.915       51.364       38.838       29.820     2638.289     1508.427      889.206        1.097        0.252      129.450       18.834        0.021      346.269       24.394      864.198
08/16/2014  22:39:00      -36.643      106.798       -7.932       74.854       96.702       46.873     5603.189     9351.186     2197.097        1.498        0.858      112.909       37.211        0.109      346.190       24.259      864.223
08/16/2014  22:40:00      -39.091       89.985       12.059      115.498       82.553       59.331    13339.718     6814.936     3520.195        1.672        1.184       98.109       60.870        0.385      346.203       24.280      864.224
08/16/2014  22:41:00      126.128       84.228        7.970       49.403       44.944       35.201     2440.629     2019.992     1239.130        1.438        0.285      151.666       19.726        0.017      346.041       24.004      864.244
08/16/2014  22:42:00      160.887      100.689       11.667       60.066       43.900       38.587     3607.872     1927.238     1488.928        2.159        0.351      189.797       23.734        0.016      346.122       24.138      864.248
08/16/2014  22:43:00      164.403       95.829       27.572       48.193       35.835       29.234     2322.537     1284.160      854.638        2.072        0.223      190.294       16.994        0.008      346.102       24.107      864.246
08/16/2014  22:44:00      128.230       60.401       26.625       80.949       60.754       44.878     6552.782     3691.100     2014.011        1.653        0.613      141.743       35.720        0.064      346.037       23.994      864.224
08/16/2014  22:45:00       55.093       61.800       -8.058       41.345       44.838       30.074     1709.405     2010.434      904.419        0.577        0.231       82.792       19.797        0.057      346.000       23.932      864.259
08/16/2014  22:46:00       77.009       35.312        5.649       34.915       31.082       21.815     1219.076      966.114      475.893        0.493        0.133       84.719        8.501        0.010      346.079       24.068      864.285
08/16/2014  22:47:00       88.169       65.775       14.053       34.505       33.935       26.872     1190.611     1151.610      722.092        0.768        0.153      110.001        8.853        0.006      346.111       24.123      864.291
08/16/2014  22:48:00       80.741       52.525       11.902       42.691       32.747       27.532     1822.521     1072.345      758.001        0.654        0.183       96.322       12.665        0.017      346.185       24.251      864.307
08/16/2014  22:49:00       69.679       54.405       -0.518       43.847       41.082       27.825     1922.583     1687.752      774.224        0.610        0.219       88.403       23.647        0.072      346.166       24.220      864.328
08/16/2014  22:50:00      109.441       64.479       11.694       44.451       39.381       32.105     1975.863     1550.831     1030.717        1.041        0.228      127.023       26.284        0.043      346.022       23.970      864.316
08/16/2014  22:51:00       75.325       65.310       -1.546       30.989       50.194       25.734      960.310     2519.431      662.221        0.704        0.207       99.696       23.980        0.058      345.994       23.920      864.306
08/16/2014  22:52:00       24.274       48.149       -4.439       61.687       38.285       24.166     3805.311     1465.714      584.003        0.439        0.293       53.922       20.430        0.144      346.001       23.934      864.313
08/16/2014  22:53:00       13.085      135.195      -15.666       40.371       49.067       27.226     1629.836     2407.619      741.265        1.174        0.239      135.827       29.202        0.046      346.057       24.030      864.321
08/16/2014  22:54:00       62.933       68.205        4.557       64.264       40.781       35.487     4129.860     1663.069     1259.340        0.784        0.353       92.803       26.015        0.079      345.918       23.793      864.329
08/16/2014  22:55:00        6.276      107.338       -6.787       35.984       43.823       30.032     1294.843     1920.443      901.927        0.786        0.206      107.521       30.800        0.082      345.991       23.916      864.328
08/16/2014  22:56:00       35.435       46.728       -4.248       30.528       20.019       18.950      931.945      400.780      359.093        0.257        0.085       58.644       10.073        0.030      345.848       23.672      864.341
08/16/2014  22:57:00        8.393       94.865      -14.939       27.421       44.446       19.144      751.898     1975.412      366.478        0.619        0.155       95.235        8.437        0.008      346.016       23.960      864.345
08/16/2014  22:58:00       19.024       11.222      -15.020       18.633       38.346       24.555      347.197     1470.403      602.946        0.157        0.121       22.087       19.727        0.798      346.115       24.131      864.336
08/16/2014  22:59:00       10.049       13.721        7.325       15.232       21.878       17.164      232.001      478.643      294.604        0.067        0.050       17.008       16.541        0.946      346.007       23.948      864.329
08/16/2014  23:00:00       62.289       55.120        0.451       41.438       54.111       28.861     1717.112     2927.998      832.931        0.620        0.274       83.175       29.455        0.125      345.972       23.885      864.336
08/16/2014  23:01:00      108.663      237.732      -21.066      100.526      133.567       60.883    10105.477    17840.020     3706.728        5.020        1.583      261.388       68.395        0.068      346.065       24.040      864.307
08/16/2014  23:02:00       22.269      243.275      -24.837       81.449      106.959       53.990     6633.950    11440.260     2914.897        4.064        1.049      244.292       48.603        0.040      346.280       24.411      864.342
08/16/2014  23:03:00       -5.448      278.006      -42.998       39.884       82.214       27.173     1590.740     6759.125      738.385        4.413        0.454      278.060       30.550        0.012      346.274       24.400      864.351
08/16/2014  23:04:00      -34.692      337.899      -42.982       58.336       60.620       33.163     3403.073     3674.791     1099.770        6.270        0.409      339.675       24.499        0.005      346.267       24.387      864.357
08/16/2014  23:05:00      -10.850      182.369      -24.081       47.232       64.904       31.820     2230.864     4212.566     1012.481        2.070        0.373      182.691       29.450        0.026      346.123       24.142      864.356
08/16/2014  23:06:00      -40.550      182.543      -14.701       82.627       58.106       43.469     6827.182     3376.273     1889.543        2.364        0.605      186.993       33.700        0.032      346.225       24.317      864.344
08/16/2014  23:07:00     -135.346      143.092      -31.413       69.357       70.346       40.473     4810.431     4948.625     1638.089        2.559        0.570      196.962       42.916        0.047      346.245       24.352      864.349
08/16/2014  23:08:00     -119.297      180.137      -28.805       72.398       83.456       41.714     5241.502     6964.827     1740.080        3.073        0.697      216.058       34.408        0.025      346.336       24.507      864.343
08/16/2014  23:09:00      -33.103      117.937      -17.512       58.668       64.824       32.363     3441.972     4202.120     1047.389        1.200        0.435      122.495       35.885        0.086      346.237       24.339      864.352
08/16/2014  23:10:00       13.688      104.050      -21.122       50.051       32.763       20.927     2505.102     1073.405      437.939        0.774        0.201      104.946       13.502        0.017      345.995       23.924      864.339
08/16/2014  23:11:00      -90.905       68.741      -11.439       50.663       48.605       36.512     2566.745     2362.477     1333.144        0.969        0.313      113.969       26.452        0.054      346.011       23.953      864.356
08/16/2014  23:12:00     -176.792      121.406      -17.584       87.200       55.612       41.710     7603.916     3092.644     1739.717        2.937        0.622      214.464       28.710        0.018      346.288       24.426      864.376
08/16/2014  23:13:00     -186.939      -44.880      -10.844       86.816       56.335       35.171     7537.062     3173.598     1236.975        2.451        0.597      192.251       42.528        0.049      346.443       24.693      864.349
08/16/2014  23:14:00      -70.821       49.036       -5.159       53.485       41.219       32.070     2860.623     1699.012     1028.472        0.652        0.279       86.141       23.490        0.074      346.236       24.337      864.362
08/16/2014  23:15:00      -72.469       99.051      -21.458       38.890       42.971       25.048     1512.462     1846.493      627.417        0.975        0.199      122.731       20.534        0.028      346.289       24.431      864.374
08/16/2014  23:16:00      -49.045       51.628        0.294       36.073       24.774       20.926     1301.239      613.764      437.884        0.371        0.118       71.210       15.048        0.045      346.123       24.144      864.372
08/16/2014  23:17:00        9.899       30.819        1.910       16.158       19.774       11.111      261.070      391.022      123.463        0.091        0.039       32.370        8.109        0.063      346.044       24.011      864.348
08/16/2014  23:18:00       34.185       48.802       -4.985       18.154       23.682       14.563      329.578      560.831      212.069        0.234        0.055       59.584       15.619        0.069      346.011       23.952      864.351
08/16/2014  23:19:00       60.808       35.068        0.349       30.232       22.497       21.544      913.960      506.099      464.132        0.341        0.094       70.195       13.356        0.036      345.821       23.625      864.357
08/16/2014  23:20:00      111.123       69.438       10.344       31.538       28.497       22.380      994.625      812.101      500.875        0.979        0.115      131.034       18.301        0.020      345.705       23.429      864.344
08/16/2014  23:21:00       66.902       47.043        4.736       62.046       28.918       31.204     3849.747      836.233      973.674        0.618        0.283       81.785       16.588        0.041      345.565       23.185      864.341
08/16/2014  23:22:00       43.839       42.064       -4.244       24.056       25.981       14.039      578.690      675.031      197.083        0.258        0.073       60.755       14.110        0.054      345.472       23.026      864.347
08/16/2014  23:23:00       21.149       55.630      -10.068       18.524       23.332       13.909      343.139      544.365      193.460        0.236        0.054       59.514       13.769        0.054      345.789       23.571      864.349
08/16/2014  23:24:00        6.480       45.147        2.214       14.782       26.574       16.433      218.508      706.157      270.053        0.164        0.060       45.610       15.657        0.118      345.643       23.320      864.348
08/16/2014  23:25:00      -15.159       78.506       -6.671       35.613       35.131       18.220     1268.290     1234.179      331.968        0.464        0.142       79.956       16.517        0.043      345.769       23.537      864.351
08/16/2014  23:26:00      -43.886      146.183      -17.318       56.927       49.942       28.581     3240.692     2494.210      816.893        1.507        0.328      152.628       26.112        0.029      345.780       23.554      864.332
08/16/2014  23:27:00      -77.576       55.221      -15.683       34.885       30.369       15.366     1216.975      922.263      236.104        0.584        0.119       95.223       10.230        0.012      345.752       23.508      864.327
08/16/2014  23:28:00      -54.017       61.526      -10.681       21.623       19.026       13.574      467.554      361.974      184.254        0.392        0.051       81.874       10.855        0.018      345.606       23.255      864.312
08/16/2014  23:29:00      -24.946       81.471      -16.592       20.177       24.400       11.898      407.099      595.362      141.572        0.434        0.057       85.205        2.482        0.001      345.663       23.354      864.286
08/16/2014  23:30:00      -57.859       98.629      -15.135       33.053       25.161       16.920     1092.523      633.091      286.271        0.766        0.101      114.348       13.973        0.015      345.611       23.264      864.273
08/16/2014  23:31:00      -13.246       81.625      -14.142       42.082       29.444       18.190     1770.902      866.978      330.873        0.500        0.148       82.693       13.825        0.028      345.610       23.263      864.277
08/16/2014  23:32:00        8.423       83.327      -12.156       24.371       39.266       16.985      593.960     1541.815      288.506        0.479        0.121       83.752       17.457        0.043      345.571       23.196      864.276
08/16/2014  23:33:00        2.959       24.999       -1.339       21.323       12.977       15.649      454.660      168.414      244.879        0.075        0.043       25.174       11.162        0.197      345.551       23.162      864.285
08/16/2014  23:34:00       23.660       18.828        2.382       32.672       23.615       17.584     1067.449      557.663      309.183        0.143        0.097       30.237       17.509        0.335      345.455       22.998      864.292
08/16/2014  23:35:00       16.910        4.368        4.715       24.916       11.819       12.929      620.788      139.688      167.170        0.063        0.046       17.465        8.013        0.211      345.317       22.761      864.329
08/16/2014  23:36:00      -10.488       -9.270       -6.358       38.593       16.989        9.713     1489.410      288.617       94.347        0.105        0.094       13.998       11.264        0.648      345.357       22.829      864.357
08/16/2014  23:37:00      -34.560       -5.061       -3.460       20.780       11.654       10.285      431.819      135.812      105.782        0.095        0.034       34.928        8.001        0.052      345.403       22.910      864.381
08/16/2014  23:38:00       48.295       14.981        6.038       25.267       15.746       14.420      638.417      247.929      207.937        0.184        0.055       50.566       10.899        0.046      345.376       22.862      864.378
08/16/2014  23:39:00       58.999       40.685       42.303       32.680       27.059       28.396     1067.977      732.190      806.312        0.477        0.130       71.667       15.035        0.044      345.152       22.478      864.365
08/16/2014  23:40:00       52.981       36.744       44.790       29.438       32.386       20.620      866.625     1048.884      425.175        0.425        0.117       64.476       17.677        0.075      345.173       22.513      864.362
08/16/2014  23:41:00       89.504       32.649       18.038       39.394       25.166       29.916     1551.873      633.341      894.980        0.624        0.154       95.273       21.540        0.051      345.285       22.706      864.368
08/16/2014  23:42:00       51.768       25.296        6.401       34.820       29.968       17.893     1212.448      898.067      320.146        0.290        0.122       57.618        8.163        0.020      345.146       22.467      864.376
08/16/2014  23:43:00       49.311       45.875        1.081       29.106       26.794       20.177      847.172      717.935      407.125        0.325        0.099       67.350       12.981        0.037      345.135       22.450      864.381
08/16/2014  23:44:00       86.106       66.402        4.847       36.972       22.170       21.455     1366.924      491.516      460.330        0.708        0.116      108.736       16.175        0.022      345.267       22.675      864.373
08/16/2014  23:45:00      120.682       66.903       17.513       31.252       26.629       25.001      976.700      709.100      625.067        1.083        0.116      137.986       16.988        0.015      345.455       22.998      864.370
08/16/2014  23:46:00       73.020       42.090       22.121       32.162       32.186       23.032     1034.412     1035.967      530.485        0.510        0.130       84.282       13.890        0.027      345.332       22.786      864.378
08/16/2014  23:47:00       32.120       16.834       11.793       17.867       22.865       12.314      319.230      522.790      151.631        0.122        0.050       36.264       13.679        0.142      345.280       22.697      864.392
08/16/2014  23:48:00      -19.426      -28.960       -5.203       16.145       12.527        9.067      260.671      156.918       82.218        0.087        0.025       34.872        7.697        0.049      345.482       23.042      864.406
08/16/2014  23:49:00      -32.981      -34.277       -8.200       15.586       15.215        9.831      242.913      231.500       96.644        0.145        0.029       47.567        8.780        0.034      345.282       22.698      864.404
08/16/2014  23:50:00      -55.138      -62.269       -6.643       28.806       25.706       17.773      829.781      660.788      315.876        0.438        0.090       83.172       13.363        0.026      345.351       22.819      864.400
08/16/2014  23:51:00      -41.877      -50.707       -3.721       30.522       20.581       16.915      931.598      423.564      286.114        0.299        0.082       65.764       18.482        0.079      345.438       22.967      864.401
08/16/2014  23:52:00      -43.856      -62.221      -10.357       23.530       14.962       18.045      553.649      223.868      325.636        0.350        0.055       76.123       18.109        0.057      345.657       23.346      864.417
08/16/2014  23:53:00      -31.233      -54.738       -9.141       12.169       12.003        8.799      148.090      144.068       77.425        0.221        0.018       63.022        5.980        0.009      345.777       23.550      864.427
08/16/2014  23:54:00       -7.339      -36.405        1.176       15.711       16.678       16.482      246.824      278.161      271.651        0.109        0.040       37.137        7.797        0.044      345.714       23.441      864.432
08/16/2014  23:55:00      -26.492      -31.064       -4.876       20.134       14.766        9.210      405.375      218.044       84.827        0.120        0.035       40.826        7.714        0.036      345.791       23.573      864.437
08/16/2014  23:56:00        1.308      -10.391       -1.607       13.429       12.924        6.496      180.330      167.031       42.195        0.025        0.019       10.473        8.609        0.676      345.752       23.510      864.440
08/16/2014  23:57:00      -41.301        5.117       -1.131       34.970       10.075        6.809     1222.911      101.504       46.360        0.155        0.069       41.617       10.069        0.059      345.820       23.623      864.447
08/16/2014  23:58:00      -70.185      -23.169      -14.300       25.171       20.194       15.312      633.577      407.797      234.469        0.347        0.064       73.910        7.729        0.011      345.893       23.748      864.465
08/16/2014  23:59:00      -45.138       -0.498        1.021       24.565       15.498       11.503      603.435      240.189      132.319        0.151        0.049       45.141        3.967        0.008      345.762       23.525      864.476
